[[[{"header":{"parameterUnit":"kt","parameterCategory":2,"dx":1,"dy":1,"la1":29.285339999999998,"la2":30.599998999999997,"lo1":-89.70041500000002,"lo2":-87.6738589999976,"nx":112,"ny":82,"refTime":"2022-09-17T18:00:00:Z","depth":0,"parameterNumber":1,"parameterNumberName":"U-component_of_WINDS"},"data":[6.7781,7.2234,7.5655,6.6068,6.2175,5.7787,4.6853,4.7493,5.0189,4.9499,5.1571,5.3544,5.3742,5.0814,4.8413,4.8514,4.682,4.4979,0.0,4.4143,4.4716,4.4716,5.1061,5.5844,5.703,5.9413,6.5056,7.503,7.3903,7.6937,8.6708,8.9596,9.1404,9.2296,9.4232,9.5251,9.5251,9.5251,9.5251,9.5251,9.5251,9.5251,9.5254,9.5103,9.5021,9.4834,9.1684,9.1418,9.3039,8.9981,9.0042,9.1962,9.1962,9.1962,9.1993,9.2729,9.3345,9.3661,9.2364,9.1962,9.1962,9.1962,9.1962,9.1962,9.1962,9.1962,9.1962,9.1962,9.1962,9.1962,9.1962,9.1962,9.1962,9.1962,9.1962,9.1962,9.1962,9.1962,9.1962,9.1962,9.1962,9.1962,9.1962,9.1962,9.1962,9.1962,9.1962,9.1962,9.1962,9.1962,9.1962,9.1962,9.4856,9.7559,9.9361,9.9507,9.9507,9.9507,9.9507,9.9507,9.9507,9.9507,9.9507,9.9507,9.9507,9.9507,9.9507,9.9507,9.9507,9.9507,9.9507,9.9507,6.2204,6.6255,6.9634,5.93,5.7224,5.5177,4.555,4.7773,5.0683,4.6374,4.8907,5.1012,4.8133,4.7621,4.7146,4.5716,4.5881,4.5716,0.0,4.5308,4.6933,4.894,5.6421,6.1418,6.149,6.4003,6.8849,7.6674,7.4965,7.8055,8.8286,9.0188,9.1634,9.3085,9.4498,9.5251,9.5251,9.5251,9.5251,9.5251,9.5251,9.5251,9.5221,9.4611,9.4333,9.4116,9.0465,9.0286,9.2372,8.9311,8.9577,9.1987,9.2128,9.2476,9.2934,9.3146,9.361,9.394,9.2451,9.1962,9.1962,9.1962,9.1962,9.1962,9.1962,9.1962,9.1962,9.1962,9.1962,9.1962,9.1962,9.1962,9.1962,9.1962,9.1962,9.1962,9.1962,9.1962,9.1962,9.1962,9.1962,9.1962,9.1962,9.1962,9.1962,9.1962,9.1962,9.1962,9.1962,9.1962,9.1962,9.1962,9.4986,9.7646,9.9361,9.9507,9.9507,9.9507,9.9507,9.9507,9.9507,9.9507,9.9507,9.9507,9.9507,9.9507,9.9507,9.9507,9.9507,9.9507,9.9507,9.9507,6.2014,6.0638,5.8867,5.0931,5.0499,5.0477,4.4656,4.766,5.047,4.6407,4.8808,5.0814,4.81,4.7573,4.7113,4.5782,4.6817,0.0,0.0,4.7047,5.0205,5.6094,6.2918,6.8344,7.1436,6.6592,6.8017,7.9469,7.3626,7.518,8.8215,9.0253,9.17,9.3117,9.4531,9.5251,9.5251,9.5251,9.5251,9.5251,9.5251,9.5251,9.5191,9.3428,9.2602,9.2409,8.877,8.859,9.0704,8.8827,8.9618,9.208,9.2546,9.3634,9.4726,9.3291,9.2791,9.274,9.214,9.1945,9.1962,9.1962,9.1962,9.1962,9.1962,9.1962,9.1962,9.1962,9.1962,9.1962,9.1962,9.1962,9.1962,9.1962,9.1962,9.1962,9.1962,9.1962,9.1962,9.1962,9.1962,9.1962,9.1962,9.1962,9.1962,9.1962,9.1962,9.1962,9.1962,9.1962,9.1962,9.1962,9.1962,9.4026,9.9071,9.9507,9.9507,9.9507,9.9507,9.9507,9.9507,9.9507,9.9507,9.9507,9.9507,9.9507,9.9507,9.9507,9.9507,9.9507,9.9507,9.9507,5.7994,5.9989,6.1232,5.0641,5.103,5.2141,4.4978,4.4573,4.5965,4.6835,4.6327,0.0,0.0,0.0,4.629,4.6915,0.0,5.1785,5.0354,5.4136,5.9215,6.4982,6.7414,7.0602,7.5697,7.4744,7.688,8.4329,8.0061,8.0956,8.9892,9.1766,9.3183,9.4626,9.5054,9.5251,9.5251,9.5251,9.5251,9.5251,9.5251,9.5251,9.5221,9.4732,9.4519,9.4302,9.0633,9.0464,9.2489,8.935,9.0424,9.3968,9.307,9.4138,9.5967,9.4516,9.4421,9.4755,9.3098,9.2268,9.1962,9.1962,9.1962,9.1962,9.1962,9.1962,9.1962,9.1962,9.1962,9.1962,9.1962,9.1962,9.1962,9.1962,9.1962,9.1962,9.1962,9.1962,9.1962,9.1962,9.1962,9.1962,9.1962,9.1962,9.1962,9.1962,9.1962,9.1962,9.1962,9.1962,9.1962,9.1962,9.1962,9.4026,9.9071,9.9507,9.9507,9.9507,9.9507,9.9507,9.9507,9.9507,9.9507,9.9507,9.9507,9.9507,9.9507,9.9507,9.9507,9.9507,9.9507,9.9507,5.6676,5.8276,5.9586,5.0007,5.0639,5.1788,4.4924,4.3359,4.3823,4.548,0.0,0.0,0.0,0.0,0.0,0.0,5.2278,5.5647,5.481,5.9676,6.5462,7.126,7.4086,7.6683,7.9444,7.8647,8.0357,8.6236,8.2593,8.3283,9.0582,9.2329,9.3775,9.5218,9.5251,9.5251,9.5251,9.5251,9.5251,9.5251,9.5251,9.5251,9.5251,9.5251,9.5251,9.5101,9.2183,9.2096,9.3661,9.0794,9.1469,9.4235,9.3681,9.4872,9.6724,9.4778,9.4386,9.4647,9.2971,9.2199,9.1962,9.1962,9.1962,9.1962,9.1962,9.1962,9.1962,9.1962,9.1962,9.1962,9.1962,9.1962,9.1962,9.1962,9.1962,9.1962,9.1962,9.1962,9.1962,9.1962,9.1962,9.1962,9.1962,9.1962,9.1962,9.1962,9.1962,9.1962,9.1962,9.1962,9.1962,9.1962,9.1962,9.3154,9.6076,9.8286,9.9507,9.9507,9.9507,9.9507,9.9507,9.9507,9.9507,9.9507,9.5103,9.5055,9.9507,9.9507,9.9507,9.9507,9.9507,9.9507,5.6349,5.533,5.5171,4.9921,4.9779,4.9611,4.4499,0.0,4.4754,4.5194,0.0,4.7328,4.7609,0.0,0.0,4.9778,5.5434,5.9986,5.9986,6.5199,7.1041,7.6402,8.1515,8.4138,8.2849,8.0415,8.1098,8.6329,8.3349,8.4138,9.0615,9.246,9.3939,9.5218,9.5251,9.5251,9.5251,9.5251,9.5251,9.5251,9.5251,9.5251,9.5251,9.5251,9.5251,9.5161,9.3333,9.3274,9.4323,9.2495,9.2575,9.3891,9.4374,9.559,9.6856,9.4397,9.3509,9.3329,9.2314,9.1962,9.1962,9.1962,9.1962,9.1962,9.1962,9.1962,9.1962,9.1962,9.1962,9.1962,9.1962,9.1962,9.1962,9.1962,9.1962,9.1962,9.1962,9.1962,9.1962,9.1962,9.1962,9.1962,9.1962,9.1962,9.1962,9.1962,9.1962,9.1962,9.1962,9.1962,9.1962,9.1962,9.1962,9.1962,9.1962,9.6047,9.8664,9.8664,9.8664,9.8664,9.8664,9.8048,9.7703,9.7703,8.9602,9.006,9.9507,9.9507,9.89,9.775,9.8975,9.9507,5.213,4.9624,4.9459,5.3641,4.981,4.4696,0.0,0.0,0.0,5.6657,5.7528,5.8426,6.0761,6.0681,6.055,6.1451,6.5779,6.9035,6.9035,7.5951,8.1935,8.4329,8.5579,8.6138,8.5842,8.5315,8.5447,8.6625,8.8045,8.9492,9.0878,9.341,9.4955,9.5251,9.5251,9.5251,9.5251,9.5251,9.5251,9.5251,9.5251,9.5251,9.5251,9.5251,9.5251,9.5161,9.3333,9.3274,9.4323,9.2495,9.3449,9.5938,9.5359,9.531,9.5483,9.4016,9.3509,9.3329,9.2314,9.1962,9.1962,9.1962,9.1962,9.1962,9.1962,9.1962,9.1962,9.1962,9.1962,9.1962,9.1962,9.1962,9.1962,9.1962,9.1962,9.1962,9.1962,9.1962,9.1962,9.1962,9.1962,9.1962,9.1962,9.1962,9.1962,9.1962,9.1962,9.1962,9.1962,9.1962,9.1962,9.1962,9.1962,9.1962,9.1962,9.2863,9.3416,9.3416,9.3416,9.3416,9.3416,8.9068,8.6649,8.6649,9.3106,9.747,9.9507,9.9507,9.5103,8.686,9.5514,9.9507,4.987,4.8345,4.8532,5.0753,4.7293,0.0,0.0,4.633,5.1277,5.9057,5.9875,5.9629,6.1052,6.3294,6.4924,6.4936,6.9835,7.4692,7.7562,8.1646,8.4933,8.65,8.6724,8.6724,8.6724,8.6724,8.6724,8.6724,8.9361,9.1273,9.2029,9.41,9.5251,9.5251,9.5251,9.5251,9.5251,9.5251,9.5251,9.5251,9.5251,9.5251,9.5251,9.5251,9.5251,9.5191,9.4302,9.4257,9.4812,9.3886,9.4433,9.5879,9.5413,9.5251,9.5123,9.3921,9.3509,9.3329,9.2314,9.1962,9.1962,9.1962,9.1962,9.1962,9.1962,9.1962,9.1962,9.1962,9.1962,9.1962,9.1962,9.1962,9.1962,9.1962,9.1962,9.1962,9.1962,9.1962,9.1962,9.1962,9.1962,9.1962,9.1962,9.1962,9.1962,9.1962,9.1962,9.1962,9.1962,9.1962,9.1312,8.9696,9.0985,9.0943,8.8432,9.0529,9.1962,9.1962,9.1962,9.2514,9.3837,8.7239,8.3589,8.3589,9.2366,9.775,9.9507,9.9507,9.4013,8.3751,8.9066,9.2959,4.774,4.7718,4.8604,4.8349,4.597,0.0,4.8659,4.9825,5.2766,6.211,6.275,6.1673,6.1669,6.5798,6.8904,6.8006,7.2827,7.845,8.3651,8.4637,8.5289,8.6532,8.6724,8.6724,8.6724,8.6724,8.6724,8.6724,8.9098,9.1306,9.3019,9.4465,9.5251,9.5251,9.5251,9.5251,9.5251,9.5251,9.5251,9.5251,9.5251,9.5251,9.5251,9.5251,9.5251,9.5251,9.5251,9.5251,9.5251,9.5251,9.5251,9.5221,9.4856,9.4702,9.4534,9.3122,9.2749,9.282,9.1885,9.1729,9.1962,9.1962,9.1962,9.1962,9.1962,9.1962,9.1962,9.1962,9.1962,9.1962,9.1962,9.1962,9.1962,9.1962,9.1962,9.1962,9.1962,9.1962,9.1962,9.1962,9.1962,9.1962,9.1962,9.1962,9.1962,9.1962,9.1962,9.1962,9.1962,9.1962,9.0943,8.83,8.9956,8.9581,8.5618,8.8943,9.1439,9.1919,9.2281,9.3101,9.4457,8.8164,8.4595,8.4595,9.0111,9.4449,9.7442,9.7442,9.2663,8.3589,8.3589,8.7017,4.3947,4.4262,4.6479,5.3778,5.0214,0.0,6.7589,7.2924,7.4455,7.5761,7.587,7.5738,7.5717,7.6289,7.7093,7.822,7.9074,8.0751,8.3914,8.5552,8.65,8.6691,8.6724,8.6724,8.6724,8.6724,8.6724,8.6724,8.8149,9.0258,9.2986,9.4465,9.5251,9.5251,9.5251,9.5251,9.5251,9.5251,9.5251,9.5251,9.5251,9.5251,9.5251,9.5251,9.5251,9.5251,9.5251,9.5251,9.5251,9.5251,9.5251,9.5101,9.3459,9.2826,9.2537,9.0194,9.0096,9.0991,9.0398,9.096,9.1962,9.1962,9.1962,9.1962,9.1962,9.1962,9.1962,9.1962,9.1962,9.1962,9.1962,9.1962,9.1962,9.1962,9.1962,9.1962,9.1962,9.1962,9.1962,9.1962,9.1962,9.1962,9.1962,9.1962,9.1962,9.1962,9.1962,9.1962,9.1962,9.1962,9.1806,9.1439,8.9783,8.8432,8.7875,8.8344,8.9581,9.1806,9.3387,9.2895,9.0092,8.8848,8.8268,8.8268,8.8216,8.8809,9.001,9.001,8.7801,8.3589,8.3589,8.9015,4.2552,4.34,4.5386,5.0129,0.0,0.0,6.0196,7.203,8.1808,8.179,7.9725,7.7928,7.7943,7.7943,7.8485,8.0245,8.1482,8.3073,8.5387,8.6269,8.6724,8.6724,8.6724,8.6724,8.6724,8.6724,8.6724,8.6724,8.8802,9.0615,9.1799,9.4035,9.5251,9.5251,9.5251,9.5251,9.5251,9.5251,9.5251,9.5251,9.5251,9.5251,9.5251,9.5251,9.5251,9.5251,9.5251,9.5251,9.5161,9.4116,9.4302,9.5101,9.3239,9.2538,9.2245,8.9717,8.9638,9.0684,9.0171,9.0844,9.1962,9.1962,9.1962,9.1962,9.1962,9.1962,9.1962,9.1962,9.1962,9.1962,9.1962,9.1962,9.1962,9.1962,9.1962,9.1962,9.1962,9.1962,9.1962,9.1962,9.1962,9.1962,9.1962,9.1962,9.1962,9.1962,9.1962,9.1962,9.1962,9.1962,9.1397,8.9956,8.8856,8.7653,8.6208,8.6072,8.7135,8.9624,9.0379,9.0,8.8379,8.811,8.806,8.806,8.7645,8.922,9.2811,8.9602,8.8112,8.8164,8.5052,8.6807,4.1581,0.0,0.0,0.0,0.0,0.0,6.0606,7.3144,8.4566,8.4568,8.1044,7.7964,7.7948,7.7943,7.8934,8.1983,8.3677,8.5077,8.65,8.6724,8.6724,8.6724,8.6724,8.6724,8.6724,8.6724,8.6724,8.6724,8.9361,9.0972,9.0972,9.3706,9.5251,9.5251,9.5251,9.5251,9.5251,9.5251,9.5251,9.5251,9.5251,9.5251,9.5251,9.5251,9.5251,9.5221,9.4702,9.4763,9.5101,9.2762,9.3143,9.4977,9.215,9.13,9.1427,8.8591,8.8602,8.9987,8.9599,9.0524,9.1962,9.1962,9.1962,9.1962,9.1962,9.1962,9.1962,9.1962,9.1962,9.1962,9.1962,9.1962,9.1962,9.1962,9.1962,9.1962,9.1962,9.1962,9.1962,9.1962,9.1962,9.1962,9.1962,9.1962,9.1962,9.1962,9.1962,9.1962,9.1962,9.1962,9.0985,8.852,8.7653,8.6506,8.4702,8.3962,8.461,8.7045,8.848,8.8437,8.6699,8.789,8.7905,8.6411,8.6411,8.9066,9.4497,8.9066,8.8164,9.1444,8.6807,8.5642,0.0,0.0,0.0,5.9827,6.2283,6.6155,8.035,8.41,8.4577,8.4547,8.1062,7.796,7.7948,7.7943,7.9819,8.5569,8.6588,8.6631,8.6724,8.6724,8.6724,8.6724,8.6724,8.6724,8.6724,8.6724,8.6724,8.6724,8.9361,9.0972,9.0972,9.3706,9.5251,9.5251,9.5251,9.5251,9.5251,9.5251,9.5251,9.5251,9.5251,9.5251,9.5251,9.5251,9.5251,9.5161,9.3365,9.3617,9.4977,9.1367,9.2021,9.4735,8.9333,8.8347,8.944,8.5696,8.5962,8.8116,8.8134,8.978,9.1962,9.1962,9.1962,9.1962,9.1962,9.1962,9.1962,9.1962,9.1962,9.1962,9.1962,9.1962,9.1962,9.1962,9.1962,9.1962,9.1962,9.1962,9.1962,9.1962,9.1962,9.1962,9.1962,9.1962,9.1962,9.1962,9.1962,9.1962,9.1962,9.1962,9.0985,8.852,8.6072,8.4656,8.4564,8.2348,8.2016,8.4518,8.9311,8.9652,8.4307,8.8846,8.9015,8.3805,8.3697,8.6306,9.1644,8.6306,8.6411,9.1494,8.8655,8.741,4.7585,5.0976,5.5149,6.4011,6.8601,7.229,7.7206,8.1581,8.457,8.4565,8.3382,8.2351,8.2354,8.1157,8.0907,8.335,8.5377,8.6724,8.6724,8.6724,8.6724,8.6724,8.6724,8.6724,8.6724,8.6724,8.6724,8.6724,8.9361,9.0972,9.0972,9.3706,9.5251,9.5251,9.5251,9.5251,9.5251,9.5251,9.5251,9.5251,9.5251,9.5251,9.5251,9.5251,9.5251,9.5161,9.3333,9.2889,9.3143,8.9475,8.944,9.13,8.8276,8.7477,8.779,8.6064,8.6581,8.8181,8.9053,9.0507,9.1962,9.1962,9.1962,9.1962,9.1962,9.1962,9.1962,9.1962,9.1962,9.1962,9.1962,9.1962,9.1962,9.1962,9.1962,9.1962,9.1962,9.1962,9.1962,9.1962,9.1962,9.1962,9.1962,9.1962,9.1962,9.1962,9.1962,9.1962,9.1962,9.1962,9.1637,9.0786,8.7045,8.4564,8.4564,8.0776,7.9467,8.1968,8.6061,8.7058,8.408,8.803,8.813,8.3697,8.3589,8.5295,8.8861,8.7069,8.7096,8.8809,8.7905,8.6569,5.1544,5.503,5.8857,6.8272,7.3348,7.6524,7.817,8.167,8.4569,8.4569,8.4569,8.4551,8.4559,8.309,8.2065,8.2693,8.5001,8.6724,8.6724,8.6724,8.6724,8.6724,8.6724,8.6724,8.6724,8.6724,8.6724,8.6724,8.9361,9.0972,9.0972,9.3706,9.5251,9.5251,9.5251,9.5251,9.5251,9.5251,9.5251,9.5251,9.5251,9.5251,9.5251,9.5251,9.5251,9.5131,9.2602,9.1923,9.2215,8.7848,8.7524,8.9547,8.7011,8.6716,8.7596,8.6508,8.721,8.8879,8.971,9.0844,9.1962,9.1962,9.1962,9.1962,9.1962,9.1962,9.1962,9.1962,9.1962,9.1962,9.1962,9.1962,9.1962,9.1962,9.1962,9.1962,9.1962,9.1962,9.1962,9.1962,9.1962,9.1962,9.1962,9.1962,9.1962,9.1962,9.1962,9.1962,9.1962,9.1962,9.1962,9.1962,8.7519,8.4564,8.4564,7.9978,7.7865,7.9419,8.3083,8.424,8.2213,8.6084,8.6617,8.311,8.3393,8.4838,8.7462,8.6569,8.6544,8.7462,8.6517,8.5213,5.2844,5.6992,6.2084,7.2971,7.6821,7.9101,8.356,8.4569,8.4569,8.4569,8.4569,8.4516,8.438,8.3678,8.3265,8.365,8.5377,8.6724,8.6724,8.6724,8.6724,8.6724,8.6724,8.6724,8.6724,8.6724,8.6724,8.6724,8.9361,9.0972,9.0972,9.3706,9.5251,9.5251,9.5251,9.5251,9.5251,9.5251,9.5251,9.5251,9.5251,9.5251,9.5251,9.5251,9.5251,9.5071,9.1498,9.0902,9.1956,8.6542,8.6387,8.9167,8.5591,8.601,8.8489,8.685,8.7821,9.0001,9.0088,9.0902,9.1962,9.1962,9.1962,9.1962,9.1962,9.1962,9.1962,9.1962,9.1962,9.1962,9.1962,9.1962,9.1962,9.1962,9.1962,9.1962,9.1962,9.1962,9.1962,9.1962,9.1962,9.1962,9.1962,9.1962,9.1962,9.1962,9.1962,9.1962,9.1962,9.1962,9.1962,9.1962,8.7653,8.4702,8.4564,8.0124,7.7291,7.7165,8.0648,8.1477,7.8854,8.3272,8.4588,8.2108,8.3003,8.4735,8.7253,8.481,8.4863,8.7201,8.4756,8.3589,5.9468,6.5947,7.1355,8.0019,8.2465,8.3118,8.4286,8.4569,8.4569,8.4569,8.4569,8.4055,8.2391,8.3644,8.4376,8.2876,8.4908,8.6724,8.6724,8.6724,8.6724,8.6724,8.6724,8.6724,8.6724,8.6724,8.6724,8.6724,8.9361,9.0972,9.0972,9.3706,9.5251,9.5251,9.5251,9.5251,9.5251,9.5251,9.5251,9.5251,9.5251,9.5251,9.5251,9.5251,9.5251,9.5098,9.2826,9.1333,9.0265,8.7519,8.6039,8.5516,8.4542,8.5253,8.6841,8.7391,8.8617,9.0146,9.1106,9.17,9.1962,9.1962,9.1962,9.1962,9.1962,9.1962,9.1962,9.1962,9.1962,9.1962,9.1962,9.1962,9.1962,9.1962,9.1962,9.1962,9.1962,9.1962,9.1962,9.1962,9.1962,9.1962,9.1962,9.1962,9.1962,9.1962,9.1962,9.1962,9.1962,9.1962,9.1962,9.1962,8.9161,8.6551,8.4702,8.1709,7.915,7.7291,7.9843,8.0593,7.8829,8.2389,8.3727,8.2083,8.227,8.3134,8.4595,8.3889,8.3943,8.4541,8.3889,8.3589,5.8245,6.6608,7.4603,8.1741,8.4055,8.4569,8.4569,8.4569,8.4569,8.4569,8.4569,8.386,8.1674,8.3078,8.4082,8.2469,8.4164,8.594,8.6598,8.6724,8.6724,8.6724,8.6724,8.6724,8.6724,8.6724,8.6724,8.6724,8.9361,9.0972,9.0972,9.3706,9.5251,9.5251,9.5251,9.5251,9.5251,9.5251,9.5251,9.5251,9.5251,9.5251,9.5251,9.5251,9.5251,9.5068,9.2473,9.0768,8.9582,8.6901,8.516,8.4206,8.4797,8.5815,8.7134,8.8442,8.971,9.0931,9.17,9.1962,9.1962,9.1962,9.1962,9.1962,9.1962,9.1962,9.1962,9.1962,9.1962,9.1962,9.1962,9.1962,9.1962,9.1962,9.1962,9.1962,9.1962,9.1962,9.1962,9.1962,9.1962,9.1962,9.1962,9.1962,9.1962,9.1962,9.1962,9.1962,9.1962,9.1962,9.1962,9.1962,8.974,8.7224,8.4794,8.23,7.9809,7.7341,7.8461,7.8858,7.8094,8.0373,8.1568,8.1269,8.1757,8.2348,8.2905,8.3369,8.3589,8.3589,8.3589,8.3589,5.5192,6.4047,7.4143,8.0594,8.3401,8.4569,8.4569,8.4569,8.4569,8.4569,8.4569,8.3928,8.1879,8.2648,8.3383,8.259,8.3676,8.5081,8.6494,8.6724,8.6724,8.6724,8.6724,8.6724,8.6724,8.6724,8.6724,8.6724,8.9361,9.0972,9.0972,9.3706,9.5251,9.5251,9.5251,9.5251,9.5251,9.5251,9.5251,9.5251,9.5251,9.5251,9.5251,9.5251,9.5251,9.5038,9.1662,9.0027,8.9513,8.601,8.4418,8.4332,8.5611,8.693,8.821,8.9507,9.0815,9.1962,9.1962,9.1962,9.1962,9.1962,9.1962,9.1962,9.1962,9.1962,9.1962,9.1962,9.1962,9.1962,9.1962,9.1962,9.1962,9.1962,9.1962,9.1962,9.1962,9.1962,9.1962,9.1962,9.1962,9.1962,9.1962,9.1962,9.1962,9.1962,9.1962,9.1962,9.1962,9.1637,9.1595,9.1919,8.974,8.7358,8.5253,8.2793,8.0318,7.7816,7.7341,7.7165,7.7165,7.819,7.9139,8.0014,8.1098,8.1761,8.2055,8.2929,8.3442,8.3589,8.3589,8.3589,6.3431,6.824,7.2774,8.0338,8.3401,8.4569,8.4569,8.4569,8.4569,8.4569,8.4569,8.4157,8.2923,8.3878,8.4573,8.3786,8.4886,8.6015,8.6629,8.6724,8.6724,8.6724,8.6724,8.6724,8.6724,8.6724,8.6724,8.6724,8.9361,9.0972,9.0972,9.3706,9.5251,9.5251,9.5251,9.5251,9.5251,9.5251,9.5251,9.5251,9.5251,9.5251,9.5251,9.5251,9.5251,9.5131,9.2985,9.1201,8.9616,8.7483,8.5621,8.4332,8.5611,8.693,8.821,8.9507,9.0815,9.1962,9.1962,9.1962,9.1962,9.1962,9.1962,9.1962,9.1962,9.1962,9.1962,9.1962,9.1962,9.1962,9.1962,9.1962,9.1962,9.1962,9.1962,9.1962,9.1962,9.1962,9.1962,9.1962,9.1962,9.1962,9.1962,9.1962,9.1962,9.1962,9.1962,9.1962,9.1962,9.0157,8.9668,9.1722,8.974,8.8052,8.7653,8.5345,8.284,8.0366,7.8312,7.7165,7.7165,7.819,7.8798,7.8993,7.9215,8.0191,8.2055,8.2172,8.2734,8.3589,8.3589,8.3589,6.0712,6.5537,7.0552,7.5992,8.0363,8.356,8.4374,8.4569,8.4783,8.5587,8.514,8.4262,8.3192,8.3547,8.4192,8.4784,8.5477,8.6322,8.7442,8.7593,8.7364,8.6773,8.6724,8.6724,8.6724,8.6724,8.6724,8.6724,8.9361,9.0972,9.0972,9.3706,9.5251,9.5251,9.5251,9.5251,9.5251,9.5251,9.5251,9.5251,9.5251,9.5251,9.5251,9.5251,9.5251,9.5068,9.2312,9.0633,8.9582,8.6718,8.5009,8.4332,8.5611,8.6523,8.7279,8.9245,9.0379,9.1018,9.1729,9.1962,9.1962,9.1962,9.1962,9.1962,9.1962,9.1962,9.1962,9.1962,9.1962,9.1962,9.1962,9.1962,9.1962,9.1962,9.1962,9.1962,9.1962,9.1962,9.1962,9.1962,9.1962,9.1962,9.1962,9.1962,9.1962,9.1962,9.1962,9.1962,9.1962,9.0943,9.0157,9.0042,9.0114,8.9118,8.6551,8.5253,8.3497,8.0991,7.856,7.7165,7.7165,7.7653,7.7921,7.7921,7.8483,7.9264,8.0289,8.085,8.1655,8.2758,8.2758,8.3051,5.8603,6.3629,6.9451,7.3016,7.7329,8.149,8.4393,8.4783,8.489,8.6122,8.5694,8.4705,8.3556,8.3621,8.4214,8.541,8.5648,8.6218,8.7715,8.8021,8.7724,8.6827,8.6724,8.6724,8.6724,8.6724,8.6724,8.6724,8.9361,9.0972,9.0972,9.3706,9.5251,9.5251,9.5251,9.5251,9.5251,9.5251,9.5251,9.5251,9.5251,9.5251,9.5251,9.5251,9.5251,9.5071,9.1431,8.9613,8.8954,8.5554,8.4148,8.4332,8.5611,8.6105,8.6396,8.8722,8.9768,9.0146,9.1164,9.1729,9.1962,9.1962,9.1962,9.1962,9.1962,9.1962,9.1962,9.1962,9.1962,9.1962,9.1962,9.1962,9.1962,9.1962,9.1962,9.1962,9.1962,9.1962,9.1962,9.1962,9.1962,9.1962,9.1962,9.1962,9.1962,9.1962,9.1962,9.1962,9.1962,9.1028,8.9826,8.8388,8.9031,8.8432,8.5573,8.4886,8.373,8.1778,7.9346,7.7716,7.7215,7.7165,7.7165,7.7165,7.7995,7.848,7.87,7.9554,8.0557,8.1659,8.1879,8.2494,6.5829,6.8632,7.1416,7.6009,7.651,7.7758,8.5033,8.557,8.4605,8.4747,8.5765,8.6195,8.47,8.5574,8.6254,8.5351,8.5397,8.5706,8.6244,8.6612,8.6827,8.6724,8.6724,8.6724,8.6724,8.6724,8.6724,8.6724,8.9361,9.0972,9.0972,9.3706,9.5251,9.5251,9.5251,9.5251,9.5251,9.5251,9.5251,9.5251,9.5251,9.5251,9.5251,9.5251,9.5251,9.5071,9.1431,8.888,8.715,8.5047,8.4148,8.4332,8.5611,8.6105,8.628,8.7715,8.8995,9.003,9.0146,9.0931,9.1962,9.1962,9.1962,9.1962,9.1962,9.1962,9.1962,9.1962,9.1962,9.1962,9.1962,9.1962,9.1962,9.1962,9.1962,9.1962,9.1962,9.1962,9.1962,9.1962,9.1962,9.1962,9.1962,9.1962,9.1962,9.1962,9.1962,9.1962,9.1962,8.8007,8.6027,8.8007,8.4426,8.3497,8.7564,8.5846,8.4472,8.4241,8.1873,7.9516,7.7241,7.7165,7.7165,7.7165,7.7263,7.7775,7.87,7.8798,7.9407,8.048,8.1537,8.2103,5.7431,6.1434,6.549,6.8291,7.3547,7.8861,8.1954,8.3646,8.4819,8.5765,8.6461,8.6711,8.6086,8.5694,8.5966,8.737,8.7704,8.792,8.8287,8.8595,8.8533,8.782,8.7138,8.6724,8.6724,8.6724,8.6724,8.6724,8.9361,9.0972,9.0972,9.3706,9.5251,9.5251,9.5251,9.5251,9.5251,9.5251,9.5251,9.5251,9.5251,9.5251,9.5251,9.5251,9.5251,9.5131,9.2538,9.0431,8.8493,8.5433,8.4148,8.4206,8.4739,8.4943,8.5117,8.6396,8.7715,8.8966,8.971,9.0844,9.1962,9.1962,9.1962,9.1962,9.1962,9.1962,9.1962,9.1962,9.1962,9.1962,9.1962,9.1962,9.1962,9.1962,9.1962,9.1962,9.1962,9.1962,9.1962,9.1962,9.1962,9.1962,9.1962,9.1962,9.1962,9.1962,9.1962,9.1962,9.1962,8.8943,8.6596,8.6072,8.4287,8.3869,8.5846,8.3776,8.2935,8.4472,8.0824,7.9516,8.1565,7.8781,7.7865,7.9395,7.794,7.736,7.7799,7.7799,7.8336,7.9358,7.9825,8.0362,5.279,5.6639,6.0821,6.2852,6.9927,7.6729,7.8177,8.0572,8.307,8.507,8.6247,8.689,8.689,8.6015,8.5979,8.8155,8.8228,8.8119,8.8475,8.9082,8.9088,8.8053,8.7522,8.7084,8.6718,8.6724,8.6724,8.6724,8.9361,9.0972,9.0972,9.3706,9.5251,9.5251,9.5251,9.5251,9.5251,9.5251,9.5251,9.5251,9.5251,9.5251,9.5251,9.5251,9.4947,9.4333,9.2505,9.0667,8.8744,8.5516,8.4148,8.4148,8.4148,8.4148,8.4264,8.5204,8.6378,8.7686,8.8954,9.0262,9.1467,9.1845,9.1962,9.1962,9.1962,9.1962,9.1962,9.1962,9.1962,9.1962,9.1962,9.1962,9.1962,9.1962,9.1962,9.1962,9.1962,9.1962,9.1962,9.1962,9.1962,9.1962,9.1962,9.1962,9.1962,9.1962,9.1962,9.168,9.0943,8.932,8.7045,8.3823,8.2793,8.2678,8.3403,8.1873,8.1921,8.4426,8.0583,7.9516,8.2253,7.9002,7.799,7.976,7.804,7.7165,7.7165,7.7165,7.7531,7.8288,7.8554,7.9115,5.6318,5.7522,5.9464,6.2597,6.5766,6.94,7.4179,7.6491,7.8503,8.1627,8.4714,8.689,8.689,8.689,8.689,8.6925,8.5943,8.5268,8.5518,8.692,8.7609,8.6818,8.7724,8.7975,8.6827,8.6724,8.6724,8.6724,8.9361,9.0972,9.0972,9.3706,9.5251,9.5251,9.5251,9.5251,9.5251,9.5251,9.5251,9.5251,9.5251,9.5251,9.5251,9.5251,9.4239,9.2441,9.0602,8.881,8.6961,8.4971,8.4148,8.4148,8.4148,8.4148,8.4148,8.4177,8.503,8.6348,8.7628,8.8937,9.0233,9.1512,9.1962,9.1962,9.1962,9.1962,9.1962,9.1962,9.1962,9.1962,9.1962,9.1962,9.1962,9.1962,9.1962,9.1962,9.1962,9.1962,9.1962,9.1962,9.1962,9.1962,9.1962,9.1962,9.1962,9.1962,9.1962,9.1071,8.8608,8.8256,8.6344,8.1422,7.8683,7.8238,8.0679,8.0872,8.1921,8.4426,8.2206,7.976,7.7341,7.7215,7.7215,7.7215,7.7215,7.7165,7.7165,7.7165,7.7165,7.7214,7.8263,7.87,5.1291,5.4277,5.7878,6.0994,6.491,6.9031,7.2779,7.5672,7.8753,8.2963,8.3767,8.4321,8.6497,8.6015,8.5658,8.6711,8.6592,8.673,8.79,8.8711,8.9482,9.0321,8.9262,8.8324,8.7923,8.7164,8.6724,8.6724,8.9361,9.0972,9.0972,9.3706,9.5251,9.5251,9.5251,9.5251,9.5251,9.5251,9.5251,9.5251,9.5251,9.3961,9.1596,9.2826,9.2409,9.0566,8.874,8.7591,8.6925,8.4971,8.4148,8.4148,8.4148,8.4148,8.4148,8.4148,8.5001,8.6164,8.6581,8.8169,9.0059,9.0495,9.1234,9.1962,9.1962,9.1962,9.1962,9.1962,9.1962,9.1962,9.1962,9.1962,9.1962,9.1962,9.1962,9.1962,9.1962,9.1962,9.1962,9.1962,9.1962,9.1962,9.1962,9.1962,9.1962,9.1962,9.1962,9.1071,8.8564,8.8256,8.6344,8.1374,7.8634,7.8189,8.0631,7.9297,7.9395,8.1873,7.9712,7.9516,8.2111,7.8978,7.794,7.9663,7.804,7.7165,7.7165,7.7165,7.7165,7.7165,7.7507,7.7677,5.1277,5.4145,5.7273,6.1006,6.3205,6.5524,6.9332,7.1223,7.335,7.7453,7.8487,7.968,8.2804,8.4481,8.5944,8.7496,8.7282,8.7089,8.7601,8.8793,8.9829,9.0443,8.968,8.8921,8.8458,8.7364,8.6724,8.6724,8.9361,9.0972,9.0972,9.3706,9.5251,9.5251,9.5251,9.5251,9.5251,9.5251,9.5251,9.5221,9.4547,9.3017,9.0868,9.13,9.0499,8.874,8.7555,8.6668,8.5883,8.4657,8.4148,8.4148,8.4148,8.4148,8.4148,8.4148,8.4681,8.5466,8.5931,8.7472,8.9332,8.9855,9.0873,9.1962,9.1962,9.1962,9.1962,9.1962,9.1962,9.1962,9.1962,9.1962,9.1962,9.1962,9.1962,9.1962,9.1962,9.1962,9.1962,9.1962,9.1962,9.1962,9.1962,9.1962,9.1962,9.1962,9.1156,8.9624,8.7179,8.6027,8.3916,7.9906,7.8089,7.7816,7.9346,7.804,7.8238,8.0727,7.856,7.856,8.1661,7.8781,7.7915,7.9419,7.794,7.7165,7.7165,7.7165,7.7165,7.7165,7.7165,7.7165,5.4538,5.5942,5.7273,6.1766,6.103,6.0364,6.4716,6.4382,6.4084,6.7209,7.0282,7.3379,7.6612,8.2162,8.6818,8.8584,8.7746,8.6557,8.5738,8.7989,8.94,8.8454,8.9634,9.0016,8.8592,8.7364,8.6724,8.6724,8.9262,9.0845,9.0972,9.3607,9.5152,9.5251,9.5251,9.5251,9.5251,9.5251,9.5131,9.4856,9.3238,9.2312,9.1891,9.0299,8.8599,8.6888,8.6888,8.5845,8.4148,8.4148,8.4148,8.4148,8.4148,8.4148,8.4148,8.4148,8.4148,8.4323,8.5553,8.6901,8.8239,8.9449,9.0786,9.1962,9.1962,9.1962,9.1962,9.1962,9.1962,9.1962,9.1962,9.1962,9.1962,9.1962,9.1962,9.1962,9.1962,9.1962,9.1962,9.1962,9.1962,9.1919,9.1722,9.1806,9.1919,9.1722,8.974,8.7358,8.4886,8.2395,7.9881,7.7441,7.7165,7.7165,7.7165,7.7165,7.8139,8.0438,7.8411,7.7241,7.7441,7.7241,7.7341,7.7716,7.7341,7.7241,7.7441,7.7241,7.7165,7.7165,7.7165,7.7165,4.8912,5.1837,5.5119,5.7451,6.1065,6.436,6.543,6.3552,6.2469,6.5608,6.6857,6.8726,7.3165,7.7147,8.1036,8.4997,8.6336,8.7622,8.9737,9.2771,9.426,9.3089,9.3507,9.2453,8.8794,8.7364,8.6724,8.6724,8.8314,8.9793,9.0907,9.2654,9.4103,9.5218,9.5251,9.5251,9.5251,9.5251,9.3835,9.1101,9.2053,9.0265,8.6165,8.7229,8.6675,8.4848,8.4848,8.458,8.4148,8.4148,8.4148,8.4148,8.4148,8.4148,8.4148,8.4148,8.4148,8.4206,8.4536,8.6135,8.8093,8.8413,9.0071,9.1962,9.1962,9.1962,9.1962,9.1962,9.1962,9.1962,9.1962,9.1962,9.1962,9.1962,9.1962,9.1962,9.1962,9.1962,9.1962,9.1962,9.1962,9.1354,8.9451,9.07,9.1312,8.9407,8.8608,8.7358,8.4886,8.2395,7.9881,7.7441,7.7165,7.7165,7.7165,7.7165,7.7441,7.799,7.7491,7.804,7.9881,7.8189,7.8978,8.2746,7.9101,7.8089,7.9978,7.8089,7.7165,7.7165,7.7165,7.7165,4.9671,5.3168,5.6047,5.543,5.8937,6.229,6.1565,6.0102,5.9365,6.1065,6.1993,6.4395,7.0653,7.3186,7.6362,8.2499,8.4195,8.557,8.8013,9.1099,9.3391,9.4122,9.3388,9.2462,9.1582,8.8576,8.6724,8.6724,8.8018,8.9464,9.0878,9.2329,9.3775,9.5218,9.5251,9.5251,9.5251,9.5251,9.3396,8.9822,9.0801,8.9236,8.5538,8.5658,8.516,8.4148,8.4148,8.4148,8.4148,8.4148,8.4148,8.4148,8.4148,8.4148,8.4148,8.4148,8.4148,8.4148,8.4148,8.5495,8.725,8.7861,8.9431,9.1164,9.1787,9.1962,9.1962,9.1962,9.1962,9.1962,9.1962,9.1962,9.1962,9.1962,9.1962,9.1962,9.1962,9.1962,9.1962,9.1962,9.1962,9.1524,9.02,9.0114,9.02,8.9956,8.7045,8.4794,8.4564,8.1422,7.8634,7.7291,7.7165,7.7165,7.7165,7.7165,7.7165,7.7165,7.7165,7.7766,7.9101,7.7915,7.8411,8.1087,7.856,7.7816,7.915,7.7816,7.7165,7.7165,7.7165,7.7165,5.2169,5.613,5.8437,5.5773,5.6903,5.8354,5.7023,5.6167,5.5739,5.5953,5.707,6.0185,6.7428,6.914,7.178,7.8915,8.0663,8.197,8.4347,8.7766,9.0878,9.3108,9.1742,9.1509,9.3816,8.9603,8.6724,8.6724,8.782,8.9234,9.0874,9.2098,9.3545,9.5218,9.5251,9.5131,9.4856,9.4547,9.2698,8.9406,8.9406,8.8422,8.6558,8.4924,8.4148,8.4148,8.4148,8.4148,8.4148,8.4148,8.4148,8.4148,8.4148,8.4148,8.4148,8.4148,8.4148,8.4148,8.4148,8.503,8.6309,8.7628,8.8937,9.0262,9.1583,9.1962,9.1962,9.1962,9.1962,9.1962,9.1962,9.1962,9.1962,9.1962,9.1962,9.1962,9.1962,9.1962,9.1962,9.1962,9.1962,9.1806,9.1439,8.9624,8.8856,9.0572,8.5162,8.1613,8.373,7.9978,7.7165,7.7165,7.7165,7.7165,7.7165,7.7165,7.7165,7.7165,7.7165,7.7165,7.7165,7.7541,7.7891,7.8312,7.7591,7.7341,7.7716,7.7341,7.7165,7.7165,7.7165,7.7165,4.9538,5.5284,6.0554,6.0102,5.9329,5.8651,5.839,5.5251,5.279,5.4121,5.4595,5.5915,5.9793,6.267,6.5725,6.9576,7.3656,7.8397,8.4381,9.009,9.2993,9.1145,9.1986,9.1825,8.9661,8.7788,8.6724,8.6724,8.6894,8.8177,9.0841,9.1174,9.2489,9.5185,9.5251,9.4519,9.2953,9.14,8.9578,8.7513,8.7513,8.6484,8.458,8.4302,8.4148,8.4148,8.4148,8.4148,8.4148,8.4148,8.4148,8.4148,8.4148,8.4148,8.4148,8.4148,8.4148,8.4148,8.4148,8.503,8.6309,8.7628,8.8937,9.0262,9.1583,9.1962,9.1962,9.1962,9.1962,9.1962,9.1962,9.1962,9.1962,9.1962,9.1962,9.1962,9.1962,9.1962,9.1962,9.1962,9.1962,9.1312,8.9161,8.8476,8.7653,8.5936,8.2935,8.1016,8.1374,7.8929,7.7165,7.7165,7.7165,7.7165,7.7165,7.7165,7.7165,7.7165,7.7165,7.7165,7.7165,7.9199,8.1278,8.3403,7.9297,7.8189,8.0318,7.8189,7.7165,7.7165,7.7165,7.7165,5.1455,5.6986,6.2076,6.1268,6.0483,5.9757,5.8901,5.7035,5.5465,5.5323,5.5287,5.65,6.0495,6.103,6.2991,6.9604,7.2529,7.596,8.1593,8.7158,9.0591,9.0424,9.0501,9.0683,9.0953,8.8373,8.6724,8.6724,8.6724,8.7947,9.0841,9.0972,9.2292,9.5152,9.4302,9.2409,8.9609,8.975,8.8356,8.5508,8.6558,8.6069,8.4148,8.4148,8.4148,8.4148,8.4148,8.4148,8.4148,8.4148,8.4148,8.4148,8.4148,8.4148,8.4148,8.4148,8.4148,8.4148,8.4148,8.4565,8.5292,8.6581,8.7425,8.8257,9.0292,9.0873,9.1018,9.1758,9.1962,9.1962,9.1962,9.1962,9.1962,9.1962,9.1962,9.1962,9.1962,9.1962,9.1962,9.1962,9.1962,9.1595,9.0458,8.9118,8.8344,8.852,8.5299,8.284,8.284,8.0727,7.8634,7.7291,7.7165,7.7165,7.7165,7.7165,7.7165,7.7165,7.7165,7.7165,7.7165,7.8263,7.9395,8.0534,7.8312,7.7716,7.888,7.7716,7.7165,7.7165,7.7165,7.7165,5.7093,0.0,6.4775,6.3587,6.2981,6.2183,0.0,5.9508,5.8723,5.6774,5.637,5.7451,6.1053,5.9781,6.0792,6.8811,7.0702,7.2972,7.8079,8.2319,8.5924,8.8615,8.8087,8.8667,9.172,8.8799,8.6724,8.6724,8.6724,8.7947,9.0841,9.0972,9.2051,9.4543,9.2858,9.033,8.7107,8.7996,8.7023,8.4187,8.5658,8.5583,8.4148,8.4148,8.4148,8.4148,8.4148,8.4148,8.4148,8.4148,8.4148,8.4148,8.4148,8.4148,8.4148,8.4148,8.4148,8.4148,8.4148,8.4148,8.4323,8.535,8.5844,8.66,8.9216,8.9565,8.9419,9.1018,9.1454,9.1583,9.1874,9.1962,9.1962,9.1962,9.1962,9.1962,9.1962,9.1962,9.1962,9.1962,9.1962,9.1962,9.1962,8.9869,8.8899,9.0786,8.7358,8.4564,8.4564,8.2395,8.0124,7.8238,7.7541,7.7165,7.7165,7.7165,7.7165,7.7165,7.7165,7.7165,7.7165,7.7165,7.7165,7.7165,7.7165,7.7165,7.7165,7.7165,7.7165,7.7165,7.7165,7.7165,0.0,6.9725,6.9996,6.9939,6.8698,6.6759,6.3728,6.1934,0.0,5.6988,5.637,5.6477,5.6809,5.6691,5.7712,6.1304,6.4337,6.8391,7.4691,7.6605,7.9177,8.4028,8.462,8.5753,8.8501,8.7496,8.6724,8.6724,8.6724,8.7947,9.0841,9.0972,9.1518,9.2697,9.0968,8.909,8.7107,8.5425,8.4427,8.4148,8.4302,8.4302,8.4148,8.4148,8.4148,8.4148,8.4148,8.4148,8.4148,8.4148,8.4148,8.4148,8.4148,8.4148,8.4148,8.4148,8.4148,8.4148,8.4148,8.4148,8.4177,8.4303,8.5117,8.66,8.9216,8.8315,8.689,8.9449,9.0146,9.0408,9.1642,9.1962,9.1962,9.1962,9.1962,9.1962,9.1962,9.1962,9.1962,9.1962,9.1962,9.1962,9.1962,8.9869,8.83,8.8476,8.6253,8.4564,8.4564,8.2395,8.0824,8.0631,7.856,7.7165,7.7165,7.7165,7.7165,7.7165,7.7165,7.7165,7.7165,7.7165,7.7165,7.7165,7.7165,7.7165,7.7165,7.7165,7.7165,7.7165,7.7165,7.7165,7.001,7.1959,7.2993,7.1045,7.0817,6.9961,6.5787,6.436,6.279,5.8675,5.7059,5.637,5.637,5.637,5.8022,6.3111,6.493,6.8248,7.5633,7.6622,7.8335,8.3012,8.4905,8.6222,8.7251,8.6956,8.6724,8.6724,8.6724,8.7947,9.0841,9.0972,9.0526,8.9546,8.8588,8.7193,8.5312,8.4542,8.4148,8.4148,8.4148,8.4148,8.4148,8.4148,8.4148,8.4148,8.4148,8.4148,0.0,8.4148,8.4148,8.4148,8.4148,8.4148,8.4148,8.4148,8.4148,8.4148,8.4148,8.4148,8.4148,8.4148,8.4497,8.5088,8.6076,8.6251,8.6658,8.9274,9.0001,9.0292,9.1613,9.1962,9.1962,9.1962,9.1962,9.1962,9.1962,9.1962,9.1962,9.1962,9.1962,9.1962,9.1962,9.1156,9.0572,9.0572,8.974,8.8608,8.7045,8.6027,8.4287,8.1183,8.0027,7.8831,7.7291,7.7165,7.7165,7.7165,7.7165,7.7165,7.7165,7.7165,7.7165,7.7165,7.7165,7.7165,7.7165,7.7165,7.7165,7.7165,7.7165,7.7165,7.2794,7.3992,7.4741,7.2565,7.2829,7.2365,6.7557,6.6059,6.436,5.9686,5.7451,5.637,5.637,5.637,5.8271,6.4026,6.5822,6.8887,7.6012,7.7209,7.8492,8.1679,8.3962,8.5283,8.5283,8.6138,8.6724,8.6724,8.6724,8.7749,9.0155,9.0188,8.9385,8.7732,8.6894,8.5734,8.4187,8.4148,8.4148,8.4148,8.4148,8.4148,8.4148,8.4148,8.4148,8.4148,8.4148,8.4148,8.4148,8.4148,8.4148,8.4148,8.4148,8.4148,8.4148,8.4148,8.4148,8.4148,8.4148,8.4148,8.4148,8.4148,8.4148,8.4148,8.4148,8.4797,8.5873,8.7646,8.8751,8.9681,9.1002,9.1642,9.1962,9.1962,9.1962,9.1962,9.1962,9.1962,9.1962,9.1962,9.1962,9.1962,9.1962,9.1962,9.1962,9.1962,9.1962,9.1354,8.9624,8.8768,8.6686,8.249,8.1326,8.0486,7.9565,7.9516,7.9516,7.9516,7.8781,7.8312,7.8312,7.7566,7.7165,7.7165,7.7165,7.7165,7.7165,7.7165,7.7165,7.7165,7.7165,7.7165,7.6683,7.6418,7.5226,7.5241,7.5241,7.4013,6.917,6.6879,6.4395,5.9686,5.7487,5.637,5.637,5.6381,5.7915,6.2622,6.5997,6.9834,7.5044,7.7596,7.9039,7.9453,8.1121,8.2224,8.2257,8.4954,8.6724,8.6724,8.6724,8.7322,8.8774,8.8451,8.8012,8.7634,8.5985,8.4817,8.4158,8.4148,8.4148,8.4148,8.4148,8.4148,8.4148,8.4148,8.4148,8.4148,8.4148,8.4148,8.4148,8.4148,8.4148,8.4148,8.4148,8.4148,8.4148,8.4148,8.4148,8.4148,8.4148,8.4148,8.4148,8.4148,8.4148,8.4148,8.4148,8.4148,8.4148,8.4148,8.6018,8.8326,8.9623,9.0931,9.1932,9.1962,9.1962,9.1962,9.1962,9.1962,9.1962,9.1962,9.1962,9.1962,9.1962,9.1962,9.1962,9.1962,9.1962,9.1962,9.1962,8.9826,8.7313,8.4886,8.2395,8.1921,8.4333,8.4564,8.4564,8.4564,8.2253,8.092,8.092,7.856,7.7215,7.7215,7.7215,7.7165,7.7165,7.7165,7.7165,7.7165,7.7165,7.7165,7.5669,7.5597,7.5475,7.6596,7.6897,7.5934,7.2294,6.9318,6.6023,6.1291,5.8212,5.637,5.637,5.7273,5.921,6.2765,6.5997,6.9479,7.3607,7.5965,7.7815,7.9329,8.1105,8.2593,8.3618,8.5546,8.6724,8.6724,8.6724,8.7322,8.8774,8.6372,8.4916,8.4806,8.3778,8.3127,8.2925,8.3751,8.4148,8.4148,8.4148,8.4148,8.4148,8.4148,8.4148,8.4148,8.4148,8.4148,8.4148,8.4148,8.4148,8.4148,8.4148,8.4148,8.4148,8.4148,8.4148,8.4148,8.4148,8.4148,8.4148,8.4148,8.4148,8.4148,8.4148,8.4148,8.4148,8.4148,8.5379,8.6745,8.7152,8.8896,9.0786,9.1729,9.1962,9.1962,9.1962,9.1962,9.1962,9.1962,9.1962,9.1962,9.1962,9.1962,9.1962,9.1962,9.1962,9.1962,9.1962,9.1312,8.9913,8.743,8.6506,8.5664,8.4656,8.4564,8.4564,8.4564,8.3869,8.345,8.345,8.1087,7.976,7.976,7.804,7.7165,7.7165,7.7165,7.7165,7.7165,7.7165,7.7165,7.5226,7.5226,7.5597,7.7183,7.7111,7.6133,7.4257,7.0353,6.613,6.2683,5.8996,5.656,5.7202,5.8568,6.1077,6.5488,6.8841,7.1987,7.5169,7.7259,7.8565,7.8857,8.0345,8.1935,8.3355,8.4894,8.6039,8.6631,8.6724,8.7059,8.7919,8.534,8.3759,8.3594,8.2472,8.2071,8.241,8.3129,8.3693,8.4148,8.4148,8.4148,8.4148,8.4148,8.4148,8.4148,8.4148,8.4148,8.4148,8.4148,8.4148,8.4148,8.4148,8.4148,8.4148,8.4148,8.4148,8.4148,8.4148,8.4148,8.4148,8.4148,8.4148,8.4148,8.4148,8.4148,8.4148,8.4148,8.4739,8.5466,8.596,8.7268,8.8896,9.0728,9.1583,9.1962,9.1962,9.1962,9.1962,9.1962,9.1962,9.1962,9.1962,9.1962,9.1962,9.1962,9.1962,9.1962,9.1962,9.1962,9.0985,8.852,8.9118,8.9118,8.7653,8.7519,8.7519,8.7519,8.6596,8.6027,8.6027,8.3637,8.2348,8.2348,8.0872,7.9614,7.8634,7.8634,7.8139,7.7165,7.7165,7.7165,7.5226,7.5226,7.5633,7.7361,7.6596,7.544,7.544,7.0639,6.5608,6.3763,5.9876,5.713,5.8283,6.0221,6.3587,6.939,7.3314,7.6465,7.8748,8.031,8.047,7.8335,7.9281,8.0653,8.2092,8.3546,8.4999,8.6565,8.6724,8.6724,8.6724,8.4936,8.3768,8.3408,8.1697,8.1228,8.2032,8.2294,8.2984,8.4012,8.409,8.4148,8.4148,8.4148,8.4148,8.4148,8.4148,8.4148,8.4148,8.4148,8.4148,8.4148,8.4148,8.4148,8.4148,8.4148,8.4148,8.4148,8.4148,8.4148,8.4148,8.4148,8.4148,8.4148,8.4148,8.4148,8.4148,8.4148,8.4148,8.4448,8.5611,8.6018,8.6716,8.91,9.0728,9.1816,9.1932,9.1962,9.1962,9.1962,9.1962,9.1962,9.1962,9.1962,9.1962,9.1962,9.1962,9.1962,9.1962,9.1962,9.1071,8.8856,9.0615,9.1962,9.1962,9.1962,9.1962,9.1962,8.9826,8.8564,8.8564,8.6208,8.4886,8.4886,8.4702,8.345,8.1183,8.1183,7.993,7.7491,7.7491,7.7391,7.5226,7.5226,7.5868,7.8686,7.8238,7.7075,7.7075,7.315,6.8355,6.424,6.1612,5.9401,5.7273,6.2159,6.6973,6.8328,7.4355,7.9191,8.0017,8.0778,8.0736,7.9338,7.9723,8.0653,8.2092,8.3546,8.4999,8.6565,8.6724,8.6724,8.6724,8.3823,8.2165,8.2072,8.0127,7.9153,7.9376,8.1383,8.2556,8.2809,8.3722,8.4148,8.4148,8.4148,8.4148,8.4148,8.4148,8.4148,8.4148,8.4148,8.4148,8.4148,8.4148,8.4148,8.4148,8.4148,8.4148,8.4148,8.4148,8.4148,8.4148,8.4148,8.4148,8.4148,8.4148,8.4148,8.4148,8.4148,8.4148,8.4206,8.4536,8.535,8.6251,8.6803,8.8722,9.0699,9.1729,9.1962,9.1962,9.1962,9.1962,9.1962,9.1962,9.1962,9.1962,9.1962,9.1962,9.1962,9.1962,9.1962,9.1764,9.1198,9.1637,9.1962,9.1962,9.1962,9.1962,9.1962,9.1439,9.1156,9.1156,8.8768,8.7475,8.7475,8.5527,8.4333,8.3776,8.3776,8.249,8.0076,8.0076,7.9002,7.5027,7.5226,7.5975,7.9114,7.8737,7.7968,7.945,7.6168,7.1673,6.7628,6.493,6.254,6.0162,6.4953,6.9733,7.1252,7.6831,8.0969,8.0867,8.1068,8.0629,7.8968,7.8957,7.9626,8.1047,8.2494,8.3973,8.5453,8.6269,8.6368,8.5617,8.4634,8.3316,8.1699,7.9822,7.8716,7.8525,7.987,8.1151,8.241,8.3042,8.3605,8.4148,8.4148,8.4148,8.4148,8.4148,8.4148,8.4148,8.4148,8.4148,8.4148,8.4148,8.4148,8.4148,8.4148,8.4148,8.4148,8.4148,8.4148,8.4148,8.4148,8.4148,8.4148,8.4148,8.4148,8.4148,8.4148,8.4148,8.4148,8.4148,8.4681,8.535,8.596,8.7123,8.8664,9.0582,9.1483,9.1962,9.1962,9.1962,9.1962,9.1962,9.1962,9.1962,9.1962,9.1962,9.1962,9.1962,9.1962,9.1962,9.1962,9.1962,9.1962,9.1962,9.1962,9.1962,9.1962,9.1962,9.1962,9.1962,9.07,8.9999,8.9999,8.8768,8.7519,8.6298,8.6298,8.507,8.2631,8.1422,8.0173,7.4884,7.5226,7.5903,7.8757,7.8523,7.8253,8.0806,7.8416,7.4741,7.1616,6.8833,6.6393,6.4525,6.8342,7.2601,7.5205,7.9807,8.278,8.2085,8.1776,8.0808,7.8478,7.8062,7.8507,7.9962,8.1146,8.2461,8.3881,8.542,8.5716,8.444,8.5815,8.5282,8.2194,8.0434,7.9131,7.8176,7.8409,7.9638,8.177,8.2207,8.2925,8.3867,8.41,8.4148,8.4148,8.4148,8.4148,8.4148,8.4148,8.4148,8.4148,8.4148,8.4148,8.4148,8.4148,8.4148,8.4148,8.4148,8.4148,8.4148,8.4148,8.4148,8.4148,8.4148,8.4148,8.4148,8.4148,8.4148,8.4148,8.4148,8.4148,8.4448,8.5524,8.5931,8.6687,8.8867,9.0524,9.17,9.1903,9.1962,9.1962,9.1962,9.1962,9.1962,9.1962,9.1962,9.1962,9.1962,9.1962,9.1962,9.1962,9.1962,9.1962,9.1962,9.1962,9.1845,9.16,9.1845,9.1845,9.16,9.1845,9.1962,9.1962,9.1962,9.0943,8.8899,8.8899,8.7608,8.5162,8.3075,8.1709,7.5154,7.5226,7.5654,7.7417,7.7718,7.7682,7.8075,7.7682,7.6362,7.3236,7.2237,7.1009,6.7971,7.2458,7.6754,7.7183,8.234,8.5935,8.4918,8.3919,8.228,7.9609,7.8493,7.8507,7.9962,8.0258,8.0949,8.2395,8.3875,8.4572,8.4374,8.5815,8.5826,8.3884,8.2163,7.9877,7.6867,7.7972,7.87,7.9049,8.1325,8.2498,8.2664,8.3693,8.4148,8.4148,8.4148,8.4148,8.4148,8.4148,8.4148,8.4148,8.4148,8.4148,8.4148,8.4148,8.4148,8.4148,8.4148,8.4148,8.4148,8.4148,8.4148,8.4148,8.4148,8.4148,8.4148,8.4148,8.4148,8.4148,8.4148,8.4148,8.4206,8.4381,8.5292,8.6193,8.6542,8.8547,9.0582,9.1729,9.1962,9.1962,9.1962,9.1962,9.1962,9.1962,9.1962,9.1962,9.1962,9.1962,9.1962,9.1962,9.1962,9.1962,9.1962,9.1962,9.1467,9.0321,9.1351,9.1467,9.0321,9.1351,9.1962,9.1962,9.1962,9.1764,9.1439,9.1439,9.02,8.7742,8.743,8.4978,7.4726,7.5226,7.5597,7.7183,7.7575,7.7789,7.8666,7.8864,7.7988,7.4863,7.4899,7.4542,7.1316,7.5205,7.8864,7.8864,8.2138,8.4325,8.3202,8.2013,8.0656,7.8857,7.8247,7.8203,7.8836,7.9633,8.0357,8.0981,8.1606,8.2304,8.3119,8.4565,8.5001,8.4177,8.3437,8.1916,7.9456,7.9056,7.9223,7.996,8.0138,8.0598,8.1354,8.2635,8.3149,8.3207,8.3867,8.4148,8.4148,8.4148,8.4148,8.4148,8.4148,8.4148,8.4148,8.4148,8.4148,8.4148,8.4148,8.4148,8.4148,8.4148,8.4148,8.4148,8.4148,8.4148,8.4148,8.4148,8.4148,8.4148,8.4148,8.4148,8.4148,8.4148,8.4584,8.5233,8.596,8.7007,8.8198,8.9519,9.0362,9.1076,9.1845,9.1962,9.1962,9.1962,9.1962,9.1962,9.1962,9.1962,9.1962,9.1962,9.1962,9.1671,9.0902,9.0844,9.0292,8.8995,8.946,8.9519,8.8937,8.946,8.978,8.978,8.978,8.978,8.978,9.0536,9.0285,8.9214,8.8589,8.709,7.3992,7.4634,7.5027,7.6561,7.6953,7.7274,7.8436,7.9007,7.8614,7.6311,7.706,7.7453,7.5113,7.7881,8.0612,8.1004,8.271,8.3493,8.203,8.1089,7.9878,7.8168,7.794,7.794,7.794,7.8935,7.9535,7.9535,7.9864,8.0554,8.1606,8.3388,8.4322,8.4241,8.4163,8.3588,8.2317,8.0626,8.0239,8.1172,7.9851,7.9679,8.0641,8.1519,8.1945,8.1974,8.2858,8.3228,8.3257,8.3576,8.3722,8.3751,8.4071,8.4148,8.4148,8.4148,8.4148,8.4119,8.3809,8.3722,8.378,8.41,8.4148,8.4148,8.4148,8.4148,8.4148,8.4148,8.4148,8.4148,8.4148,8.4148,8.4148,8.4148,8.4148,8.4448,8.5408,8.5873,8.6396,8.7366,8.8646,8.9797,9.0798,9.1234,9.1467,9.1467,9.1729,9.1729,9.1031,9.0973,9.0973,9.0973,9.0973,9.0566,8.9565,8.9507,8.8925,8.7657,8.7861,8.789,8.757,8.789,8.8035,8.8035,8.8035,8.8035,8.8035,8.9053,8.9507,8.9495,8.8944,8.8333,7.2986,7.3022,7.3364,7.4955,7.5333,7.5383,7.544,7.6596,7.7646,7.7468,7.8701,7.972,7.9577,8.0933,8.259,8.4069,8.566,8.5948,8.377,8.3401,8.2037,7.8388,7.794,7.794,7.794,7.8006,7.8071,7.8071,7.9305,8.0127,8.0192,8.2862,8.4354,8.4339,8.4225,8.4122,8.4002,8.2379,8.1543,8.1604,8.1147,8.0965,8.1021,8.0727,8.0569,8.0569,8.0627,8.0685,8.0772,8.1965,8.2527,8.2643,8.3722,8.4148,8.4148,8.4148,8.4148,8.4012,8.2896,8.2527,8.2664,8.3809,8.4148,8.4148,8.4148,8.4148,8.4148,8.4148,8.4148,8.4148,8.4148,8.4148,8.4148,8.4148,8.4148,8.4177,8.4235,8.5233,8.6135,8.6193,8.7279,8.8152,8.8239,8.9286,9.0088,9.0088,9.1135,9.106,8.8559,8.8239,8.8239,8.8239,8.8239,8.8239,8.8152,8.8152,8.7599,8.628,8.7366,8.7483,8.6251,8.7395,8.8035,8.8035,8.8035,8.8035,8.8035,8.8123,8.8152,8.8181,8.9354,8.8668,7.233,7.2403,7.2189,7.3409,7.398,7.4426,7.5095,7.5669,7.6061,7.6061,7.731,7.838,7.838,8.0485,8.2412,8.2947,8.3807,8.3871,8.2313,8.1436,8.0206,7.8168,7.794,7.794,7.794,7.794,7.794,7.794,7.8409,7.9132,8.0028,8.1055,8.2468,8.4309,8.4322,8.4792,8.5765,8.5197,8.4323,8.3258,8.2008,8.1428,8.1427,8.2149,8.249,8.2517,8.3367,8.3731,8.3689,8.3045,8.2784,8.2736,8.2062,8.1811,8.1811,8.1811,8.1811,8.1911,8.2566,8.2084,8.1238,8.1637,8.2335,8.3042,8.3042,8.3586,8.4148,8.4148,8.4148,8.4148,8.4148,8.4148,8.4148,8.4148,8.4148,8.4148,8.4148,8.4565,8.4885,8.4885,8.5902,8.6814,8.6814,8.789,8.8762,8.8762,8.914,8.9111,8.8152,8.8035,8.8035,8.8035,8.8035,8.7715,8.6901,8.6814,8.6251,8.4943,8.5292,8.535,8.4885,8.5321,8.5553,8.5553,8.5553,8.5553,8.5553,8.6396,8.6814,8.6843,8.8152,8.8256,6.9822,7.0758,7.1609,7.1728,7.2321,7.3058,7.3755,7.4202,7.4456,7.4456,7.6112,7.7575,7.7575,7.9665,8.1627,8.2162,8.2495,8.2522,8.1927,8.0842,7.97,7.8612,7.8175,7.794,7.794,7.794,7.794,7.794,7.794,7.8343,7.9305,7.9831,8.0956,8.2862,8.3388,8.4401,8.5907,8.594,8.5613,8.5026,8.3882,8.3046,8.2502,8.279,8.291,8.2973,8.3842,8.4245,8.4179,8.3487,8.3195,8.3154,8.2462,8.2183,8.2183,8.2183,8.1647,8.1107,8.2635,8.2088,8.0746,8.1158,8.1521,8.177,8.177,8.2277,8.3024,8.3431,8.3615,8.3635,8.41,8.4148,8.4148,8.4148,8.4148,8.4148,8.4148,8.4148,8.4148,8.4148,8.4885,8.5466,8.5466,8.6164,8.6901,8.7337,8.7395,8.725,8.6814,8.6756,8.6756,8.6756,8.6756,8.6396,8.5524,8.5466,8.5088,8.4206,8.4148,8.4148,8.4148,8.4148,8.4148,8.4148,8.4148,8.4148,8.4148,8.5059,8.5466,8.5495,8.6814,8.7395,6.5408,6.793,7.1447,6.9846,7.0354,7.1234,7.1281,7.2091,7.2837,7.2837,7.5271,7.7432,7.7432,7.8737,8.0326,8.1841,8.2162,8.2381,8.2874,8.1942,8.0821,7.9644,7.8588,7.794,7.794,7.794,7.794,7.794,7.794,7.794,7.794,7.9272,8.0061,8.0094,8.1409,8.2856,8.4276,8.4341,8.5097,8.6598,8.6691,8.5853,8.418,8.253,8.1792,8.1792,8.1792,8.1792,8.1886,8.3099,8.3596,8.3719,8.4927,8.5422,8.5422,8.5521,8.3939,8.1886,8.3129,8.2494,8.1294,8.2555,8.1869,8.0541,8.0533,8.0533,8.0796,8.2003,8.2381,8.2664,8.3867,8.4148,8.4119,8.4148,8.4148,8.4148,8.4148,8.4148,8.4148,8.4148,8.4148,8.4148,8.4148,8.4148,8.4584,8.5844,8.6047,8.5582,8.4323,8.4148,8.4148,8.4148,8.4148,8.4148,8.4148,8.4148,8.4148,8.4148,8.4119,8.409,8.409,8.4061,8.4032,8.4032,8.4032,8.4032,8.4032,8.4032,8.4061,8.4148,8.5408,8.6018,6.4551,6.5113,6.5688,6.5988,6.7543,6.9146,6.9916,7.0957,7.1761,7.1761,7.3026,7.4164,7.4164,7.6398,7.8345,7.8773,8.0735,8.199,8.1275,8.1194,8.0821,7.9644,7.8588,7.794,7.794,7.794,7.794,7.794,7.794,7.794,7.794,7.831,7.9034,8.0061,8.0488,8.1376,8.279,8.3848,8.4572,8.4999,8.6171,8.644,8.5965,8.5508,8.5278,8.5278,8.5278,8.5278,8.5225,8.4358,8.4011,8.3921,8.3071,8.2724,8.3008,8.5478,8.5146,8.3531,8.3882,8.2912,8.156,8.1898,8.2343,8.2603,8.2056,8.1871,8.1764,8.117,8.1442,8.221,8.3741,8.3556,8.3129,8.3983,8.4148,8.4148,8.4148,8.4148,8.4148,8.4148,8.4148,8.4148,8.4148,8.4148,8.4264,8.4681,8.471,8.4555,8.4206,8.4148,8.4148,8.4148,8.4148,8.4148,8.4148,8.4148,8.4148,8.4148,8.3382,8.2896,8.2896,8.1986,8.1492,8.1492,8.1492,8.1492,8.1492,8.1492,8.1957,8.2896,8.3275,8.3876,6.1259,6.1635,6.1444,6.1332,6.2663,6.4511,6.6447,6.7281,6.7921,6.9062,7.0315,7.1336,7.1815,7.395,7.5827,7.6454,7.8666,8.0486,8.112,8.0667,8.0261,8.026,7.928,7.8454,7.7989,7.794,7.794,7.794,7.794,7.794,7.794,7.794,7.8343,7.9198,7.9173,7.9864,8.131,8.2139,8.2862,8.3513,8.4395,8.4822,8.4855,8.5447,8.5716,8.5749,8.6401,8.6724,8.6609,8.5625,8.5225,8.514,8.4148,8.3764,8.397,8.5993,8.6048,8.5225,8.5225,8.394,8.2224,8.1792,8.2134,8.2691,8.2232,8.2066,8.2172,8.2481,8.1883,8.1404,8.2355,8.2364,8.2248,8.2966,8.3257,8.344,8.344,8.3809,8.4148,8.4148,8.4148,8.4148,8.4148,8.4148,8.4148,8.4148,8.4148,8.4148,8.4148,8.4148,8.4148,8.4148,8.4148,8.4148,8.4148,8.3722,8.344,8.344,8.2285,8.1587,8.1587,8.0889,8.0481,8.0481,8.0481,8.0481,8.0481,8.0481,8.086,8.1587,8.1587,8.1965,5.6025,5.7192,5.7605,5.6126,5.6655,5.8387,0.0,6.1916,6.238,6.4952,6.688,6.8459,6.9643,7.1264,7.3001,7.4752,7.6336,7.8324,8.1306,8.0192,7.949,8.0619,7.9845,7.8862,7.7831,7.7841,7.794,7.794,7.794,7.794,7.794,7.794,7.794,7.794,7.794,7.854,7.9831,8.0028,8.0718,8.1994,8.2158,8.2224,8.2257,8.3546,8.4144,8.421,8.5611,8.6296,8.6434,8.6598,8.6625,8.6434,8.6598,8.656,8.6368,8.6368,8.65,8.6724,8.6724,8.5334,8.3433,8.253,8.2194,8.2194,8.2194,8.2194,8.2695,8.501,8.2964,8.019,8.0772,8.1143,8.1388,8.1629,8.1928,8.2207,8.2207,8.3004,8.3809,8.3954,8.3983,8.4012,8.4148,8.4148,8.4061,8.3809,8.378,8.378,8.378,8.378,8.378,8.378,8.378,8.378,8.378,8.2809,8.2207,8.2207,8.0976,8.0249,8.0249,8.0132,8.0045,8.0045,7.9899,7.9899,8.0045,7.9899,7.9987,8.0249,8.0249,8.0198,0.0,0.0,0.0,0.0,0.0,0.0,0.0,5.6549,5.7517,5.9111,6.1676,6.4016,6.5171,6.7725,7.0559,7.3508,7.4926,7.6347,7.8217,7.9448,7.9537,7.7827,7.762,7.7243,7.6325,7.7258,7.794,7.794,7.794,7.794,7.794,7.794,7.794,7.794,7.794,7.8104,7.8343,7.9502,8.0225,8.0521,8.1672,8.2224,8.2224,8.252,8.2625,8.2658,8.298,8.3743,8.49,8.6171,8.5973,8.4933,8.6203,8.5743,8.4335,8.4335,8.5322,8.6724,8.6724,8.6385,8.596,8.5765,8.5709,8.5709,8.5709,8.5709,8.5807,8.6304,8.2065,7.8257,8.2385,8.1541,7.9972,8.1301,8.123,8.0831,8.0831,8.1034,8.1529,8.2547,8.2751,8.3071,8.4012,8.4148,8.3489,8.1492,8.1172,8.1172,8.1172,8.1172,8.1172,8.1172,8.1172,8.1172,8.1172,8.0976,8.0831,8.0831,7.9638,7.8903,7.8903,7.7914,7.7326,7.7326,7.6315,7.6286,7.7326,7.6286,7.6838,7.8903,7.8903,7.8591,0.0,0.0,0.0,0.0,0.0,0.0,0.0,0.0,0.0,0.0,0.0,5.8785,6.1606,0.0,6.7472,6.9738,7.2551,7.4883,7.6214,7.7413,7.7654,7.6451,7.6701,7.6776,7.6245,7.7076,7.7632,7.7562,7.8297,7.8493,7.7964,7.794,7.794,7.794,7.794,7.794,7.794,7.8672,7.9034,7.9034,7.9724,8.0086,8.0119,8.1106,8.1402,8.1212,8.2461,8.3119,8.3349,8.4131,8.4,8.3349,8.3671,8.3474,8.2987,8.2987,8.3638,8.4263,8.2842,8.2316,8.2316,8.2316,8.2316,8.2875,8.5776,8.6724,8.6724,8.6724,8.4265,8.2227,8.4767,8.1673,7.8082,7.8925,7.9448,7.9747,7.9514,8.0016,8.0656,8.1325,8.1442,8.1645,8.2219,8.2335,8.1899,8.0685,8.0481,8.0481,8.0481,8.0481,8.0219,7.9608,7.9521,7.9521,7.9521,7.9521,7.9521,7.9521,7.7688,7.6576,7.6576,7.5355,7.4623,7.4623,7.4017,7.4017,7.4623,7.3988,7.4714,7.6789,7.7566,7.7719,0.0,0.0,0.0,0.0,0.0,0.0,0.0,0.0,0.0,0.0,0.0,0.0,0.0,0.0,0.0,6.5948,6.9665,7.2895,7.4697,7.492,7.4943,7.4941,7.565,7.6162,7.6182,7.6803,7.7176,7.7068,7.8506,7.8935,7.7866,7.8082,7.815,7.794,7.794,7.794,7.794,7.794,7.794,7.794,7.794,0.0,7.8006,7.956,8.0061,7.9765,8.1771,8.2362,8.1928,8.1566,8.1731,8.2092,8.081,8.0744,8.1402,8.1402,8.1402,8.1073,7.8762,7.794,7.794,7.794,7.794,7.8828,8.3566,8.4987,0.0,8.4987,8.4987,8.4987,8.4987,8.0828,7.6746,7.7416,7.844,7.9187,7.878,7.9516,8.0298,8.0562,8.0293,8.019,8.0423,8.0308,8.0122,7.9888,7.9768,7.9638,7.9376,7.9579,7.9347,7.8263,7.8176,7.8176,7.8176,7.7943,7.7885,7.8147,7.5704,7.408,7.3585,7.2563,7.1977,7.1977,7.1749,7.1981,7.2675,7.2777,7.3535,7.5024,7.4412,7.4861,0.0,0.0,0.0,0.0,0.0,0.0,0.0,0.0,0.0,0.0,0.0,0.0,0.0,0.0,0.0,0.0,6.6567,6.8833,7.3203,7.2692,7.1832,7.1827,7.3021,7.4089,7.4648,7.5892,7.667,7.665,7.8095,7.8473,7.7335,7.8565,0.0,0.0,0.0,7.794,7.794,7.794,7.794,7.794,7.794,7.794,7.794,7.8203,7.8236,7.8203,7.8474,7.9527,8.0875,7.9132,7.9922,8.1961,7.9297,7.8335,7.8433,7.8433,7.8433,7.8368,7.8071,0.0,0.0,7.794,7.794,7.8071,7.8729,7.8927,7.8927,7.8927,7.8927,7.8927,7.8927,7.7788,7.7347,8.0338,8.0396,7.9757,7.943,7.9332,7.9607,8.0769,7.9775,7.9107,8.0278,7.979,7.889,7.7719,7.7234,7.66,7.5413,7.6315,7.6977,7.6832,7.6803,0.0,7.6803,7.5762,7.5559,7.6745,7.4332,7.1952,6.9742,6.9509,6.9422,6.9422,6.829,6.9366,7.2675,7.294,7.3726,7.4813,6.633,6.5883,0.0,0.0,0.0,0.0,0.0,0.0,0.0,0.0,0.0,0.0,0.0,0.0,0.0,0.0,0.0,0.0,6.3292,6.6604,6.8636,6.8708,6.9215,7.1113,7.1056,7.1225,7.2072,7.3828,7.4852,7.478,7.7074,7.8008,7.6886,7.7673,7.796,7.7502,7.7785,7.794,7.794,7.794,7.794,7.794,7.794,7.794,7.794,7.794,7.794,7.794,7.794,7.8433,7.9099,7.8302,7.8639,7.9626,0.0,0.0,0.0,0.0,7.794,7.794,7.794,7.794,7.794,7.794,7.794,7.794,7.794,7.794,7.794,7.794,7.794,7.794,7.794,7.7665,7.7683,7.8957,7.8913,7.8494,7.8314,7.817,7.8258,7.8809,7.903,0.0,7.872,7.8333,7.7884,7.7172,7.6926,7.6595,7.5866,7.6251,7.6309,7.5529,7.5471,7.5471,7.5471,7.4948,0.0,0.0,0.0,7.2708,7.0236,7.012,0.0,0.0,0.0,6.4713,6.6828,6.3898,0.0,0.0,6.2979,6.3387,0.0,0.0,0.0,0.0,0.0,0.0,0.0,0.0,0.0,0.0,0.0,0.0,0.0,0.0,0.0,0.0,5.9277,6.2795,6.2688,6.4238,6.6128,6.8255,6.8647,6.8876,6.9192,7.1395,7.2773,7.2693,7.5577,7.6886,7.5778,7.6817,7.7154,7.6616,7.6966,7.7166,7.7159,7.7159,7.7446,7.794,7.794,7.794,7.794,7.794,7.794,7.794,7.794,7.794,7.794,7.794,7.794,7.794,7.794,7.794,7.794,7.794,7.794,7.794,7.794,7.794,7.794,7.794,7.794,7.794,7.794,7.794,7.794,7.794,7.794,7.794,7.794,7.794,7.7897,7.7724,7.8079,7.8371,7.8151,7.8074,7.8004,7.8004,7.8917,7.9302,7.8293,7.8045,7.7808,7.734,7.6768,7.6251,7.5676,7.5537,7.5146,7.4221,7.4104,7.4104,7.4104,7.3818,7.3789,7.4075,7.3498,7.2447,7.1025,6.9919,6.8898,6.7968,6.4245,6.2202,0.0,0.0,0.0,0.0,0.0,0.0,0.0,0.0,0.0,0.0,0.0,0.0,0.0,0.0,0.0,0.0,0.0,0.0,0.0,0.0,0.0,0.0,0.0,0.0,5.5561,5.956,6.2238,6.1436,6.5332,6.7481,6.6001,6.877,7.0646,7.0646,7.3556,7.4798,7.3648,7.6448,7.7189,7.5177,7.5103,7.5126,7.5129,7.5129,7.6082,7.794,7.794,7.794,7.794,7.794,7.794,7.794,7.794,7.794,7.794,7.794,7.794,7.794,7.794,7.794,7.794,7.794,7.794,7.794,7.794,7.794,7.794,7.794,7.794,7.794,7.794,7.794,7.794,7.794,7.794,7.794,7.794,7.794,7.7948,7.7907,7.9386,8.0642,8.0106,7.9774,7.9635,7.9635,7.9869,8.004,8.0008,7.9785,7.9216,7.8074,7.6313,0.0,7.337,7.2992,7.2791,7.2733,7.2767,7.2767,7.2767,7.172,7.1578,7.2708,7.0527,6.9713,7.0909,6.733,6.5263,6.5234,6.507,6.3514,6.054,0.0,0.0,0.0,0.0,0.0,0.0,0.0,0.0,0.0,0.0,0.0,0.0,0.0,0.0,0.0,0.0,0.0,0.0,0.0,0.0,0.0,0.0,0.0,0.0,5.6296,5.9376,5.9949,6.1089,6.1244,5.9674,6.2397,6.4681,6.5702,6.8685,7.0768,7.152,7.3787,7.4718,7.4019,7.425,7.4941,7.604,7.6661,7.7068,7.7323,7.773,7.794,7.794,7.794,7.794,7.794,7.794,7.794,7.794,7.794,7.794,7.794,7.794,7.794,7.794,7.794,7.794,7.8392,8.1321,8.0393,7.794,7.794,7.794,7.794,7.794,7.794,7.794,7.794,7.794,7.794,7.794,7.794,7.794,7.794,7.8442,7.8869,7.8705,7.86,7.8538,7.8538,7.7865,7.6313,7.3396,7.6032,7.7035,7.2673,7.3893,7.5076,7.4427,7.3405,7.2675,7.2675,7.2675,7.2675,7.2675,7.233,7.1952,7.1545,7.0731,7.0091,6.9684,6.8404,6.7706,6.7706,6.6852,6.2947,5.595,0.0,0.0,0.0,0.0,0.0,0.0,0.0,0.0,0.0,0.0,0.0,0.0,0.0,0.0,0.0,0.0,0.0,0.0,0.0,0.0,0.0,0.0,0.0,0.0,0.0,0.0,5.7493,5.7732,0.0,5.5042,5.6649,5.85,6.0052,6.2581,6.5166,6.7856,6.9722,7.1063,7.1861,7.2388,7.3256,7.4421,7.6111,7.6764,7.6361,7.6777,7.7346,7.794,7.794,7.794,7.794,7.794,7.794,7.7808,7.5712,7.4857,7.4857,7.4857,7.4857,7.5011,7.6466,7.6988,7.7371,8.0239,7.8396,7.5048,7.6509,7.6988,7.6988,7.6988,7.6988,7.6988,7.6988,7.8026,7.8931,7.8183,7.7406,7.6959,7.7157,7.7192,7.7323,7.7841,7.7521,7.7027,7.6534,7.5679,7.3617,6.9189,7.1578,7.292,6.9581,7.0993,7.2925,7.4284,7.3111,7.1961,7.1432,7.1367,7.1367,7.1367,7.1367,7.108,7.0294,7.0236,6.9887,6.9044,6.9015,6.8111,6.628,6.5408,6.117,0.0,0.0,0.0,0.0,0.0,0.0,0.0,0.0,0.0,0.0,0.0,0.0,0.0,0.0,0.0,0.0,0.0,0.0,0.0,0.0,0.0,0.0,0.0,0.0,0.0,0.0,0.0,5.3815,5.4963,0.0,0.0,0.0,0.0,5.3721,5.5378,5.8197,6.2565,6.436,6.6257,6.8553,6.9199,6.9735,7.0317,7.3279,7.4848,7.4991,7.4991,7.5916,7.7562,7.743,7.7496,7.7794,7.7609,7.7512,7.7052,7.1273,6.8848,6.8729,6.8366,6.8254,6.8777,7.2445,7.3814,7.3906,7.4512,7.2226,6.9658,7.3486,7.4726,7.4726,7.4726,7.4298,0.0,0.0,7.7324,8.0608,7.8446,7.6467,7.5169,7.5609,7.5688,7.6074,7.7422,7.6666,7.5293,7.3945,7.3659,7.2081,6.716,0.0,6.7337,6.8203,6.762,6.8545,7.2635,7.1964,7.0603,6.9143,6.9015,6.9015,6.9015,6.9015,6.9015,6.9015,6.9015,6.8954,6.8928,6.8693,6.6222,6.1164,6.0787,0.0,0.0,0.0,0.0,0.0,0.0,0.0,0.0,0.0,0.0,0.0,0.0,0.0,0.0,0.0,0.0,0.0,0.0,0.0,0.0,0.0,0.0,0.0,0.0,0.0,0.0,4.6895,5.0042,4.9339,4.8585,4.676,0.0,0.0,0.0,0.0,0.0,0.0,5.4779,5.7373,6.0089,6.2973,6.1012,6.2166,6.6893,6.7749,6.9354,7.1744,7.1744,7.2007,7.2357,6.993,7.1431,7.5731,7.2738,7.1424,7.1075,6.6573,6.3966,6.2292,5.6734,5.5253,5.6004,5.4747,5.4263,5.5583,6.4895,6.7478,6.6769,6.7796,6.8141,6.8141,6.8141,0.0,0.0,0.0,0.0,7.8523,7.7259,7.5982,7.491,7.4344,7.4208,7.4307,7.4669,7.4471,7.411,7.3725,7.3659,6.9868,5.7853,6.1799,0.0,5.7374,6.2459,6.7443,6.8439,7.0082,7.0603,6.9143,6.9015,6.9015,6.9015,6.9015,6.9015,6.9015,6.9015,6.8579,6.7592,6.4768,6.1716,5.8545,0.0,0.0,0.0,0.0,0.0,0.0,0.0,0.0,0.0,0.0,0.0,0.0,0.0,0.0,0.0,0.0,0.0,0.0,0.0,0.0,0.0,0.0,0.0,0.0,0.0,0.0,0.0,4.1342,4.5236,4.539,4.3419,4.1271,0.0,0.0,0.0,0.0,0.0,0.0,0.0,0.0,0.0,5.8794,5.3467,5.3406,5.9508,6.3646,6.6607,6.8427,6.8427,6.8427,6.844,6.7998,6.9782,7.3034,7.0754,6.7428,6.364,6.4084,6.0483,5.4155,0.0,0.0,0.0,0.0,4.2855,4.4283,5.4121,6.1113,6.5715,6.5715,0.0,0.0,0.0,0.0,0.0,0.0,0.0,7.5478,6.9951,7.049,7.2503,7.2488,7.3104,7.3659,7.3659,7.1654,6.9846,6.9846,6.783,6.2273,5.0239,5.4086,0.0,0.0,0.0,6.4215,6.6622,6.9987,7.1589,7.0084,6.9396,6.9015,6.9015,6.9015,6.9015,6.9015,6.8462,6.7066,6.4623,6.1338,5.7247,0.0,0.0,0.0,0.0,0.0,0.0,0.0,0.0,0.0,0.0,0.0,0.0,0.0,0.0,0.0,0.0,0.0,0.0,0.0,0.0,0.0,0.0,0.0,0.0,0.0,0.0,0.0,0.0,0.0,3.9877,4.1249,0.0,0.0,0.0,0.0,0.0,0.0,0.0,0.0,0.0,0.0,0.0,0.0,0.0,4.4157,4.923,6.0209,6.5715,6.5715,6.5715,6.5573,6.5358,6.7642,6.8819,6.9047,6.8141,0.0,5.6738,6.1351,0.0,0.0,0.0,0.0,0.0,0.0,0.0,0.0,0.0,0.0,0.0,0.0,0.0,0.0,0.0,0.0,0.0,0.0,0.0,0.0,0.0,0.0,6.9403,7.0274,7.1525,7.2063,7.0513,6.6145,6.2318,6.148,5.7275,5.141,0.0,0.0,0.0,0.0,0.0,0.0,6.6326,7.0944,7.3091,7.1352,7.0052,6.9206,6.9015,6.8869,6.8753,6.8753,6.6893,6.4216,6.0641,5.7918,0.0,0.0,0.0,0.0,0.0,0.0,0.0,0.0,0.0,0.0,0.0,0.0,0.0,0.0,0.0,0.0,0.0,0.0,0.0,0.0,0.0,0.0,0.0,0.0,0.0,0.0,0.0,0.0,0.0,0.0,0.0,0.0,0.0,0.0,0.0,0.0,0.0,0.0,0.0,0.0,0.0,0.0,0.0,0.0,0.0,0.0,0.0,0.0,0.0,0.0,6.5715,6.4788,6.3052,6.0173,5.9793,6.1102,5.5498,5.4345,5.606,5.198,0.0,0.0,0.0,0.0,0.0,0.0,0.0,0.0,0.0,0.0,0.0,0.0,0.0,0.0,0.0,0.0,0.0,0.0,0.0,0.0,0.0,0.0,6.9002,6.8265,6.7236,6.3741,5.3815,0.0,0.0,0.0,0.0,0.0,0.0,0.0,0.0,0.0,0.0,0.0,6.6302,7.1616,7.4203,7.144,7.0905,7.0269,6.908,6.8028,6.7388,6.7388,6.2238,5.8426,0.0,0.0,0.0,0.0,0.0,0.0,0.0,0.0,0.0,0.0,0.0,0.0,0.0,0.0,0.0,0.0,0.0,0.0,0.0,0.0,0.0,0.0,0.0,0.0,0.0,0.0,0.0,0.0,0.0,0.0,0.0,0.0,0.0,0.0,0.0,0.0,0.0,0.0,0.0,0.0,0.0,0.0,0.0,0.0,0.0,0.0,0.0,0.0,0.0,0.0,0.0,0.0,0.0,0.0,0.0,0.0,0.0,0.0,4.9609,4.704,0.0,0.0,0.0,0.0,0.0,0.0,0.0,0.0,0.0,0.0,0.0,0.0,0.0,0.0,0.0,0.0,0.0,0.0,0.0,0.0,0.0,0.0,0.0,0.0,0.0,0.0,0.0,0.0,0.0,0.0,0.0,0.0,0.0,0.0,0.0,0.0,0.0,0.0,0.0,0.0,6.612,7.1128,7.3929,7.2516,7.1617,7.0275,6.8152,6.7417,6.5904,6.3198,5.8281,0.0,0.0,0.0,0.0,0.0,0.0,0.0,0.0,0.0,0.0,0.0,0.0,0.0,0.0,0.0,0.0,0.0,0.0,0.0,0.0,0.0,0.0,0.0,0.0,0.0,0.0,0.0,0.0,0.0,0.0,0.0,0.0,0.0,0.0,0.0,0.0,0.0,0.0,0.0,0.0,0.0,0.0,0.0,0.0,0.0,0.0,0.0,0.0,0.0,0.0,0.0,0.0,0.0,0.0,0.0,0.0,0.0,0.0,0.0,4.4675,4.1115,0.0,0.0,0.0,0.0,0.0,0.0,0.0,0.0,0.0,0.0,0.0,0.0,0.0,0.0,0.0,0.0,0.0,0.0,0.0,0.0,0.0,0.0,0.0,0.0,0.0,0.0,0.0,0.0,0.0,0.0,0.0,0.0,0.0,0.0,0.0,0.0,0.0,0.0,0.0,0.0,6.853,7.1763,7.3664,7.3219,7.1754,6.9762,6.7296,6.6551,6.4158,5.9214,5.4556,0.0,0.0,0.0,0.0,0.0,0.0,0.0,0.0,0.0,0.0,0.0,0.0,0.0,0.0,0.0,0.0,0.0,0.0,0.0,0.0,0.0,0.0,0.0,0.0,0.0,0.0,0.0,0.0,0.0,0.0,0.0,0.0,0.0,0.0,0.0,0.0,0.0,0.0,0.0,0.0,0.0,0.0,0.0,0.0,0.0,0.0,0.0,0.0,0.0,0.0,0.0,0.0,0.0,0.0,0.0,0.0,0.0,0.0,0.0,0.0,0.0,0.0,0.0,0.0,0.0,0.0,0.0,0.0,0.0,0.0,0.0,0.0,0.0,0.0,0.0,0.0,0.0,0.0,0.0,0.0,0.0,0.0,0.0,0.0,0.0,0.0,0.0,0.0,0.0,0.0,0.0,0.0,0.0,0.0,0.0,0.0,0.0,0.0,0.0,0.0,0.0,7.6854,7.5724,7.4222,7.2439,7.0632,6.8886,6.7181,6.4885,6.186,5.7931,0.0,0.0,0.0,0.0,0.0,0.0,0.0,0.0,0.0,0.0,0.0,0.0,0.0,0.0,0.0,0.0,0.0,0.0,0.0,0.0,0.0,0.0,0.0,0.0,0.0,0.0,0.0,0.0,0.0,0.0,0.0,0.0,0.0,0.0,0.0,0.0,0.0,0.0,0.0,0.0,0.0,0.0,0.0,0.0,0.0,0.0,0.0,0.0,0.0,0.0,0.0,0.0,0.0,0.0,0.0,0.0,0.0,0.0,0.0,0.0,0.0,0.0,0.0,0.0,0.0,0.0,0.0,0.0,0.0,0.0,0.0,0.0,0.0,0.0,0.0,0.0,0.0,0.0,0.0,0.0,0.0,0.0,0.0,0.0,0.0,0.0,0.0,0.0,0.0,0.0,0.0,0.0,0.0,0.0,0.0,0.0,0.0,0.0,0.0,0.0,0.0,0.0,6.8029,7.1119,7.2731,7.2188,7.1175,6.9299,6.6164,6.4304,6.0299,5.33,0.0,0.0,0.0,0.0,0.0,0.0,0.0,0.0,0.0,0.0,0.0,0.0,0.0,0.0,0.0,0.0,0.0,0.0,0.0,0.0,0.0,0.0,0.0,0.0,0.0,0.0,0.0,0.0,0.0,0.0,0.0,0.0,0.0,0.0,0.0,0.0,0.0,0.0,0.0,0.0,0.0,0.0,0.0,0.0,0.0,0.0,0.0,0.0,0.0,0.0,0.0,0.0,0.0,0.0,0.0,0.0,0.0,0.0,0.0,0.0,0.0,0.0,0.0,0.0,0.0,0.0,0.0,0.0,0.0,0.0,0.0,0.0,0.0,0.0,0.0,0.0,0.0,0.0,0.0,0.0,0.0,0.0,0.0,0.0,0.0,0.0,0.0,0.0,0.0,0.0,0.0,0.0,0.0,0.0,0.0,0.0,0.0,0.0,0.0,0.0,0.0,0.0,6.0047,6.6522,7.0582,7.1209,7.0488,6.8496,6.4896,6.349,5.8892,4.9772,0.0,0.0,0.0,0.0,0.0,0.0,0.0,0.0,0.0,0.0,0.0,0.0,0.0,0.0,0.0,0.0,0.0,0.0,0.0,0.0,0.0,0.0,0.0,0.0,0.0,0.0,0.0,0.0,0.0,0.0,0.0,0.0,0.0,0.0,0.0,0.0,0.0,0.0,0.0,0.0,0.0,0.0,0.0,0.0,0.0,0.0,0.0,0.0,0.0,0.0,0.0,0.0,0.0,0.0,0.0,0.0,0.0,0.0,0.0,0.0,0.0,0.0,0.0,0.0,0.0,0.0,0.0,0.0,0.0,0.0,0.0,0.0,0.0,0.0,0.0,0.0,0.0,0.0,0.0,0.0,0.0,0.0,0.0,0.0,0.0,0.0,0.0,0.0,0.0,0.0,0.0,0.0,0.0,0.0,0.0,0.0,0.0,0.0,0.0,0.0,0.0,0.0,5.6803,6.362,6.7947,6.9099,6.771,6.5803,6.3581,6.2192,5.7547,0.0,0.0,0.0,0.0,0.0,0.0,0.0,0.0,0.0,0.0,0.0,0.0,0.0,0.0,0.0,0.0,0.0,0.0,0.0,0.0,0.0,0.0,0.0,0.0,0.0,0.0,0.0,0.0,0.0,0.0,0.0,0.0,0.0,0.0,0.0,0.0,0.0,0.0,0.0,0.0,0.0,0.0,0.0,0.0,0.0,0.0,0.0,0.0,0.0,0.0,0.0,0.0,0.0,0.0,0.0,0.0,0.0,0.0,0.0,0.0,0.0,0.0,0.0,0.0,0.0,0.0,0.0,0.0,0.0,0.0,0.0,0.0,0.0,0.0,0.0,0.0,0.0,0.0,0.0,0.0,0.0,0.0,0.0,0.0,0.0,0.0,0.0,0.0,0.0,0.0,0.0,0.0,0.0,0.0,0.0,0.0,0.0,0.0,0.0,0.0,0.0,0.0,0.0,5.0907,5.9374,6.5535,6.7188,6.7105,6.599,6.3576,6.1286,5.6474,4.8308,0.0,0.0,0.0,0.0,0.0,0.0,0.0,0.0,0.0,0.0,0.0,0.0,0.0,0.0,0.0,0.0,0.0,0.0,0.0,0.0,0.0,0.0,0.0,0.0,0.0,0.0,0.0,0.0,0.0,0.0,0.0,0.0,0.0,0.0,0.0,0.0,0.0,0.0,0.0,0.0,0.0,0.0,0.0,0.0,0.0,0.0,0.0,0.0,0.0,0.0,0.0,0.0,0.0,0.0,0.0,0.0,0.0,0.0,0.0,0.0,0.0,0.0,0.0,0.0,0.0,0.0,0.0,0.0,0.0,0.0,0.0,0.0,0.0,0.0,0.0,0.0,0.0,0.0,0.0,0.0,0.0,0.0,0.0,0.0,0.0,0.0,0.0,0.0,0.0,0.0,0.0,0.0,0.0,0.0,0.0,0.0,0.0,0.0,0.0,0.0,0.0,0.0,0.0,5.8464,6.4539,6.6219,6.6666,6.5499,6.2147,6.0253,5.579,4.7616,0.0,0.0,0.0,0.0,0.0,0.0,0.0,0.0,0.0,0.0,0.0,0.0,0.0,0.0,0.0,0.0,0.0,0.0,0.0,0.0,0.0,0.0,0.0,0.0,0.0,0.0,0.0,0.0,0.0,0.0,0.0,0.0,0.0,0.0,0.0,0.0,0.0,0.0,0.0,0.0,0.0,0.0,0.0,0.0,0.0,0.0,0.0,0.0,0.0,0.0,0.0,0.0,0.0,0.0,0.0,0.0,0.0,0.0,0.0,0.0,0.0,0.0,0.0,0.0,0.0,0.0,0.0,0.0,0.0,0.0,0.0,0.0,0.0,0.0,0.0,0.0,0.0,0.0,0.0,0.0,0.0,0.0,0.0,0.0,0.0,0.0,0.0,0.0,0.0,0.0,0.0,0.0,0.0,0.0,0.0,0.0,0.0,0.0,0.0,0.0,0.0,0.0,0.0,6.0005,6.4412,6.5978,6.6252,6.4446,5.981,5.9144,5.5274,4.6558,4.1083,0.0,0.0,0.0,0.0,0.0,0.0,0.0,0.0,0.0,0.0,0.0,0.0,0.0,0.0,0.0,0.0,0.0,0.0,0.0,0.0,0.0,0.0,0.0,0.0,0.0,0.0,0.0,0.0,0.0,0.0,0.0,0.0,0.0,0.0,0.0,0.0,0.0,0.0,0.0,0.0,0.0,0.0,0.0,0.0,0.0,0.0,0.0,0.0,0.0,0.0,0.0,0.0,0.0,0.0,0.0,0.0,0.0,0.0,0.0,0.0,0.0,0.0,0.0,0.0,0.0,0.0,0.0,0.0,0.0,0.0,0.0,0.0,0.0,0.0,0.0,0.0,0.0,0.0,0.0,0.0,0.0,0.0,0.0,0.0,0.0,0.0,0.0,0.0,0.0,0.0,0.0,0.0,0.0,0.0,0.0,0.0,0.0,0.0,0.0,0.0,0.0,0.0,5.761,6.1728,6.4381,6.4686,6.3582,6.086,5.7893,5.3615,4.757,4.0663,0.0,0.0,0.0,0.0,0.0,0.0,0.0,0.0,0.0,0.0,0.0,0.0,0.0,0.0,0.0,0.0,0.0,0.0,0.0,0.0,0.0,0.0,0.0,0.0,0.0,0.0,0.0,0.0,0.0,0.0,0.0,0.0,0.0,0.0,0.0,0.0,0.0,0.0,0.0,0.0,0.0,0.0,0.0,0.0,0.0,0.0,0.0,0.0,0.0,0.0,0.0,0.0,0.0,0.0,0.0,0.0,0.0,0.0,0.0,0.0,0.0,0.0,0.0,0.0,0.0,0.0,0.0,0.0,0.0,0.0,0.0,0.0,0.0,0.0,0.0,0.0,0.0,0.0,0.0,0.0,0.0,0.0,0.0,0.0,0.0,0.0,0.0,0.0,0.0,0.0,0.0,0.0,0.0,0.0,0.0,0.0,0.0,0.0,0.0,0.0,0.0,0.0,5.5763,5.8273,6.2209,6.2577,6.1597,5.9261,5.6696,5.276,4.7002,4.061,0.0,0.0,0.0,0.0,0.0,0.0,0.0,0.0,0.0,0.0,0.0,0.0,0.0,0.0,0.0,0.0,0.0,0.0,0.0,0.0,0.0,0.0,0.0,0.0,0.0,0.0,0.0,0.0,0.0,0.0,0.0,0.0,0.0,0.0,0.0,0.0,0.0,0.0,0.0,0.0,0.0,0.0,0.0,0.0,0.0,0.0,0.0,0.0,0.0,0.0,0.0,0.0,0.0,0.0,0.0,0.0,0.0,0.0,0.0,0.0,0.0,0.0,0.0,0.0,0.0,0.0,0.0,0.0,0.0,0.0,0.0,0.0,0.0,0.0,0.0,0.0,0.0,0.0,0.0,0.0,0.0,0.0,0.0,0.0,0.0,0.0,0.0,0.0,0.0,0.0,0.0,0.0,0.0,0.0,0.0,0.0,0.0,0.0,0.0,0.0,0.0,0.0,0.0,5.5636,6.0567,6.0837,5.9709,5.722,5.5668,5.2185,4.6034,0.0,0.0,0.0,0.0,0.0,0.0,0.0,0.0,0.0,0.0,0.0,0.0,0.0,0.0,0.0,0.0,0.0,0.0,0.0,0.0,0.0,0.0,0.0,0.0,0.0,0.0,0.0,0.0,0.0,0.0,0.0,0.0,0.0,0.0,0.0,0.0,0.0,0.0,0.0,0.0,0.0,0.0,0.0,0.0,0.0,0.0,0.0,0.0,0.0,0.0,0.0,0.0,0.0,0.0,0.0,0.0,0.0,0.0,0.0,0.0,0.0,0.0,0.0,0.0,0.0,0.0,0.0,0.0,0.0,0.0,0.0,0.0,0.0,0.0,0.0,0.0,0.0,0.0,0.0,0.0,0.0,0.0,0.0,0.0,0.0,0.0,0.0,0.0,0.0,0.0,0.0,0.0,0.0,0.0,0.0,0.0,0.0,0.0,0.0,0.0,0.0,0.0,0.0,0.0,5.7549,6.1859,6.1538,6.0229,5.8385,5.5053,5.1145,4.6597,0.0,0.0,0.0,0.0,0.0,0.0,0.0,0.0,0.0,0.0,0.0,0.0,0.0,0.0]}],[{"header":{"parameterUnit":"kt","parameterCategory":2,"dx":1,"dy":1,"la1":29.285339999999998,"la2":30.599998999999997,"lo1":-89.70041500000002,"lo2":-87.6738589999976,"nx":112,"ny":82,"refTime":"2022-09-17T18:00:00:Z","depth":0,"parameterNumber":2,"parameterNumberName":"V-component_of_WINDS"},"data":[4.2767,4.2761,4.1828,3.7809,3.5896,3.3321,2.7051,2.7385,2.894,2.8542,2.9737,3.0875,3.0989,2.9301,2.7916,2.8045,2.7032,2.5968,0.0,2.5518,2.5817,2.5817,2.948,3.2282,3.2885,3.4302,3.7513,4.3319,4.2614,4.442,5.0124,5.1728,5.2772,5.3354,5.4405,5.4993,5.4993,5.4993,5.4993,5.4993,5.4993,5.4993,5.5064,5.63,5.6883,5.7194,6.2792,6.6267,6.8297,7.2702,7.5554,7.7165,7.7165,7.7165,7.6595,7.1798,7.1869,7.4668,7.6563,7.7165,7.7165,7.7165,7.7165,7.7165,7.7165,7.7165,7.7165,7.7165,7.7165,7.7165,7.7165,7.7165,7.7165,7.7165,7.7165,7.7165,7.7165,7.7165,7.7165,7.7165,7.7165,7.7165,7.7165,7.7165,7.7165,7.7165,7.7165,7.7165,7.7165,7.7165,7.7165,7.7165,7.9681,8.1952,8.3467,8.3589,8.3589,8.3589,8.3589,8.3589,8.3589,8.3589,8.3589,8.3589,8.3589,8.3589,8.3589,8.3589,8.3589,8.3589,8.3589,8.3589,4.0493,4.0402,3.9447,3.4496,3.3834,3.2745,2.6497,2.7582,2.9225,2.674,2.8201,2.9415,2.7719,2.739,2.7151,2.6361,2.6456,2.6361,0.0,2.6158,2.7063,2.822,3.2575,3.546,3.5412,3.6906,3.975,4.4268,4.3281,4.5065,5.1036,5.207,5.2905,5.381,5.4627,5.4993,5.4993,5.4993,5.4993,5.4993,5.4993,5.4993,5.5045,5.5939,5.6331,5.662,6.1885,6.5371,6.773,7.2081,7.5164,7.7016,7.5776,7.5472,7.5089,6.9873,6.9823,7.29,7.6041,7.7165,7.7165,7.7165,7.7165,7.7165,7.7165,7.7165,7.7165,7.7165,7.7165,7.7165,7.7165,7.7165,7.7165,7.7165,7.7165,7.7165,7.7165,7.7165,7.7165,7.7165,7.7165,7.7165,7.7165,7.7165,7.7165,7.7165,7.7165,7.7165,7.7165,7.7165,7.7165,7.7165,7.9703,8.2026,8.3467,8.3589,8.3589,8.3589,8.3589,8.3589,8.3589,8.3589,8.3589,8.3589,8.3589,8.3589,8.3589,8.3589,8.3589,8.3589,8.3589,8.3589,3.8095,3.7937,3.7187,3.1402,3.1594,3.1772,2.637,2.7551,2.9139,2.6759,2.8144,2.9301,2.77,2.7397,2.7132,2.6399,2.6961,0.0,0.0,2.7094,2.8913,3.2305,3.628,3.9409,4.1192,3.8496,3.9369,4.5881,4.2562,4.3515,5.0931,5.2108,5.2943,5.3829,5.4646,5.4993,5.4993,5.4993,5.4993,5.4993,5.4993,5.4993,5.5097,5.7604,5.8781,5.9084,6.4421,6.7901,7.0072,7.2737,7.5115,7.6668,7.2957,7.1929,7.244,7.1504,7.1282,7.1969,7.5702,7.7066,7.7165,7.7165,7.7165,7.7165,7.7165,7.7165,7.7165,7.7165,7.7165,7.7165,7.7165,7.7165,7.7165,7.7165,7.7165,7.7165,7.7165,7.7165,7.7165,7.7165,7.7165,7.7165,7.7165,7.7165,7.7165,7.7165,7.7165,7.7165,7.7165,7.7165,7.7165,7.7165,7.7165,7.8898,8.3222,8.3589,8.3589,8.3589,8.3589,8.3589,8.3589,8.3589,8.3589,8.3589,8.3589,8.3589,8.3589,8.3589,8.3589,8.3589,8.3589,8.3589,3.4545,3.4897,3.5175,3.1798,3.1386,3.0943,2.7529,2.6584,2.6538,2.7006,2.6747,0.0,0.0,0.0,2.6658,2.7018,0.0,2.9898,2.9035,3.1216,3.4188,3.7564,3.8971,4.0814,4.3759,4.3208,4.4443,4.8626,4.6223,4.6799,5.1899,5.2981,5.3867,5.4633,5.4879,5.4993,5.4993,5.4993,5.4993,5.4993,5.4993,5.4993,5.5045,5.5732,5.6093,5.6383,6.1638,6.5125,6.7506,7.2032,7.3962,7.3913,7.2225,6.8788,6.4731,6.3827,6.5578,6.8844,7.2003,7.4884,7.7165,7.7165,7.7165,7.7165,7.7165,7.7165,7.7165,7.7165,7.7165,7.7165,7.7165,7.7165,7.7165,7.7165,7.7165,7.7165,7.7165,7.7165,7.7165,7.7165,7.7165,7.7165,7.7165,7.7165,7.7165,7.7165,7.7165,7.7165,7.7165,7.7165,7.7165,7.7165,7.7165,7.8898,8.3222,8.3589,8.3589,8.3589,8.3589,8.3589,8.3589,8.3589,8.3589,8.3589,8.3589,8.3589,8.3589,8.3589,8.3589,8.3589,8.3589,8.3589,3.3343,3.3688,3.4229,3.1021,3.1298,3.131,2.7327,2.6246,2.6137,2.639,0.0,0.0,0.0,0.0,0.0,0.0,3.0183,3.2168,3.1644,3.4454,3.7795,4.1194,4.2828,4.4329,4.5925,4.5407,4.6394,4.9726,4.7685,4.8083,5.2298,5.3373,5.4209,5.4974,5.4993,5.4993,5.4993,5.4993,5.4993,5.4993,5.4993,5.4993,5.4993,5.4993,5.4993,5.5253,5.9365,6.2119,6.4071,6.8263,6.9949,6.981,6.7674,6.3842,5.9709,6.1992,6.4491,6.7433,7.2229,7.533,7.7165,7.7165,7.7165,7.7165,7.7165,7.7165,7.7165,7.7165,7.7165,7.7165,7.7165,7.7165,7.7165,7.7165,7.7165,7.7165,7.7165,7.7165,7.7165,7.7165,7.7165,7.7165,7.7165,7.7165,7.7165,7.7165,7.7165,7.7165,7.7165,7.7165,7.7165,7.7165,7.7165,7.8165,8.0707,8.2563,8.3589,8.3589,8.3589,8.3589,8.3589,8.3589,8.3589,8.3589,8.8009,8.806,8.3589,8.3589,8.3589,8.3589,8.3589,8.3589,3.3151,3.3082,3.3273,2.9774,3.0955,3.172,2.7003,0.0,2.7459,2.6654,0.0,2.729,2.7487,0.0,0.0,2.8667,3.2005,3.4676,3.4676,3.7643,4.0964,4.4055,4.7122,4.8577,4.7773,4.6369,4.6704,4.9717,4.8121,4.8577,5.2317,5.3449,5.4304,5.4974,5.4993,5.4993,5.4993,5.4993,5.4993,5.4993,5.4993,5.4993,5.4993,5.4993,5.4993,5.5149,5.7757,5.9493,6.0671,6.3422,6.4972,6.521,6.136,5.8291,5.6839,6.3596,6.6086,6.7187,7.4587,7.7165,7.7165,7.7165,7.7165,7.7165,7.7165,7.7165,7.7165,7.7165,7.7165,7.7165,7.7165,7.7165,7.7165,7.7165,7.7165,7.7165,7.7165,7.7165,7.7165,7.7165,7.7165,7.7165,7.7165,7.7165,7.7165,7.7165,7.7165,7.7165,7.7165,7.7165,7.7165,7.7165,7.7165,7.7165,7.7165,8.0683,8.288,8.288,8.288,8.288,8.288,8.4483,8.5401,8.5401,9.3498,9.3057,8.3589,8.3589,8.4189,8.5348,8.4159,8.3589,3.0363,2.9158,2.8988,2.9543,2.8686,2.827,0.0,0.0,0.0,3.4338,3.414,3.3732,3.508,3.499,3.4914,3.5479,3.793,3.9807,3.9807,4.385,4.7305,4.8626,4.9347,4.9669,4.9498,4.9195,4.9271,4.9887,5.0769,5.1603,5.2468,5.393,5.4822,5.4993,5.4993,5.4993,5.4993,5.4993,5.4993,5.4993,5.4993,5.4993,5.4993,5.4993,5.4993,5.5149,5.7757,5.9493,6.0671,6.3422,6.3776,6.2228,5.7794,5.5723,5.6104,6.3414,6.6086,6.7187,7.4587,7.7165,7.7165,7.7165,7.7165,7.7165,7.7165,7.7165,7.7165,7.7165,7.7165,7.7165,7.7165,7.7165,7.7165,7.7165,7.7165,7.7165,7.7165,7.7165,7.7165,7.7165,7.7165,7.7165,7.7165,7.7165,7.7165,7.7165,7.7165,7.7165,7.7165,7.7165,7.7165,7.7165,7.7165,7.7165,7.7165,7.7921,7.8385,7.8385,7.8385,7.8385,7.8385,9.0045,9.6445,9.6445,9.001,8.5667,8.3589,8.3589,8.8009,9.6256,8.7618,8.3589,2.9412,2.8336,2.8091,2.8097,2.8102,0.0,0.0,2.881,3.0091,3.2694,3.3489,3.4383,3.6458,3.7143,3.7437,3.7491,4.0319,4.3069,4.478,4.7198,4.9098,4.9878,4.9944,4.9944,4.9944,4.9944,4.9944,4.9944,5.1528,5.2696,5.3133,5.4329,5.4993,5.4993,5.4993,5.4993,5.4993,5.4993,5.4993,5.4993,5.4993,5.4993,5.4993,5.4993,5.4993,5.5097,5.6383,5.7267,5.7816,5.9166,5.9223,5.8181,5.5923,5.4993,5.5892,6.3351,6.6086,6.7187,7.4587,7.7165,7.7165,7.7165,7.7165,7.7165,7.7165,7.7165,7.7165,7.7165,7.7165,7.7165,7.7165,7.7165,7.7165,7.7165,7.7165,7.7165,7.7165,7.7165,7.7165,7.7165,7.7165,7.7165,7.7165,7.7165,7.7165,7.7165,7.7165,7.7165,7.7165,7.7165,7.7816,7.9444,7.8139,7.8189,8.0679,7.8609,7.7165,7.7165,7.7165,7.7629,7.8651,9.2132,9.9507,9.9507,9.0768,8.5348,8.3589,8.3589,8.9117,9.937,9.4061,9.0162,2.8685,2.7828,2.7429,2.656,2.7281,0.0,2.5907,2.7264,2.9399,3.1051,3.2883,3.4938,3.7422,3.8951,3.9731,3.9313,4.2047,4.5293,4.8357,4.8927,4.9241,4.9897,4.9944,4.9944,4.9944,4.9944,4.9944,4.9944,5.1376,5.2715,5.3772,5.4608,5.4993,5.4993,5.4993,5.4993,5.4993,5.4993,5.4993,5.4993,5.4993,5.4993,5.4993,5.4993,5.4993,5.4993,5.4993,5.4993,5.4993,5.4993,5.4993,5.5045,5.5596,5.5784,5.6661,6.3851,6.6693,6.7825,7.4573,7.697,7.7165,7.7165,7.7165,7.7165,7.7165,7.7165,7.7165,7.7165,7.7165,7.7165,7.7165,7.7165,7.7165,7.7165,7.7165,7.7165,7.7165,7.7165,7.7165,7.7165,7.7165,7.7165,7.7165,7.7165,7.7165,7.7165,7.7165,7.7165,7.7165,7.7165,7.8189,8.0824,7.915,7.9516,8.3497,8.0173,7.7666,7.7215,7.7433,7.8641,8.1031,9.2299,9.8503,9.8503,9.3008,8.8655,8.5642,8.5642,9.0466,9.9507,9.9507,9.6114,2.6668,2.5234,2.4099,2.6229,2.4356,0.0,2.974,3.03,3.1461,3.855,4.0235,4.1122,4.3495,4.4101,4.4454,4.516,4.5654,4.6622,4.8509,4.9393,4.9878,4.9925,4.9944,4.9944,4.9944,4.9944,4.9944,4.9944,5.0893,5.2176,5.3753,5.4608,5.4993,5.4993,5.4993,5.4993,5.4993,5.4993,5.4993,5.4993,5.4993,5.4993,5.4993,5.4993,5.4993,5.4993,5.4993,5.4993,5.4993,5.4993,5.4993,5.5253,5.7553,5.8498,5.9236,6.5756,6.8744,7.0136,7.4353,7.6409,7.7165,7.7165,7.7165,7.7165,7.7165,7.7165,7.7165,7.7165,7.7165,7.7165,7.7165,7.7165,7.7165,7.7165,7.7165,7.7165,7.7165,7.7165,7.7165,7.7165,7.7165,7.7165,7.7165,7.7165,7.7165,7.7165,7.7165,7.7165,7.7165,7.7165,7.7291,7.7666,7.9346,8.0679,8.123,8.0776,7.9516,7.7291,7.8361,8.0575,8.392,9.1006,9.4863,9.4863,9.4911,9.4304,9.3106,9.3106,9.5295,9.9507,9.9507,9.411,2.56,2.4212,2.2815,2.3743,0.0,0.0,2.684,2.8464,3.0536,3.4876,3.6543,3.8377,4.2154,4.326,4.4235,4.598,4.7103,4.8144,4.9298,4.9745,4.9944,4.9944,4.9944,4.9944,4.9944,4.9944,4.9944,4.9944,5.1205,5.2317,5.3,5.4291,5.4993,5.4993,5.4993,5.4993,5.4993,5.4993,5.4993,5.4993,5.4993,5.4993,5.4993,5.4993,5.4993,5.4993,5.4993,5.4993,5.5149,5.662,5.6383,5.5253,5.7909,5.8882,5.969,6.6085,6.9093,7.0532,7.4331,7.6312,7.7165,7.7165,7.7165,7.7165,7.7165,7.7165,7.7165,7.7165,7.7165,7.7165,7.7165,7.7165,7.7165,7.7165,7.7165,7.7165,7.7165,7.7165,7.7165,7.7165,7.7165,7.7165,7.7165,7.7165,7.7165,7.7165,7.7165,7.7165,7.7165,7.7165,7.7716,7.915,8.027,8.147,8.2888,8.3028,8.1968,7.9467,8.2545,8.5127,8.6755,9.2141,9.5055,9.5055,9.5438,9.3915,9.0314,9.3498,9.5007,9.4959,9.8058,9.6303,2.5077,0.0,0.0,0.0,0.0,0.0,2.5414,2.7256,2.9377,3.1934,3.3414,3.5736,4.0523,4.2154,4.3585,4.6148,4.8007,4.9305,4.9878,4.9944,4.9944,4.9944,4.9944,4.9944,4.9944,4.9944,4.9944,4.9944,5.1528,5.2457,5.2457,5.4101,5.4993,5.4993,5.4993,5.4993,5.4993,5.4993,5.4993,5.4993,5.4993,5.4993,5.4993,5.4993,5.4993,5.5045,5.5784,5.568,5.5253,5.8599,5.7991,5.5389,5.9486,6.0645,6.073,6.6834,6.9927,7.1419,7.4189,7.6043,7.7165,7.7165,7.7165,7.7165,7.7165,7.7165,7.7165,7.7165,7.7165,7.7165,7.7165,7.7165,7.7165,7.7165,7.7165,7.7165,7.7165,7.7165,7.7165,7.7165,7.7165,7.7165,7.7165,7.7165,7.7165,7.7165,7.7165,7.7165,7.7165,7.7165,7.8139,8.0583,8.147,8.2631,8.4426,8.5162,8.4518,8.2063,8.5072,8.7669,8.9388,9.2718,9.5199,9.6709,9.6709,9.4061,8.8603,9.4061,9.4959,9.1644,9.6303,9.7442,0.0,0.0,0.0,2.1333,2.1903,2.3022,2.8207,2.8395,2.8761,3.3357,3.4357,3.5837,4.0523,4.2154,4.379,4.6884,4.8802,4.9953,4.9944,4.9944,4.9944,4.9944,4.9944,4.9944,4.9944,4.9944,4.9944,4.9944,5.1528,5.2457,5.2457,5.4101,5.4993,5.4993,5.4993,5.4993,5.4993,5.4993,5.4993,5.4993,5.4993,5.4993,5.4993,5.4993,5.4993,5.5149,5.7706,5.7369,5.5389,6.0546,5.9616,5.5803,6.3574,6.5001,6.3357,6.8701,7.1971,7.3774,7.3871,7.5335,7.7165,7.7165,7.7165,7.7165,7.7165,7.7165,7.7165,7.7165,7.7165,7.7165,7.7165,7.7165,7.7165,7.7165,7.7165,7.7165,7.7165,7.7165,7.7165,7.7165,7.7165,7.7165,7.7165,7.7165,7.7165,7.7165,7.7165,7.7165,7.7165,7.7165,7.8139,8.0583,8.3028,8.4472,8.4564,8.6776,8.709,8.461,8.4199,8.6481,9.1803,9.1802,9.411,9.9324,9.9416,9.6804,9.1444,9.6804,9.6709,9.1594,9.4449,9.5705,1.9346,1.8459,1.7753,2.0452,2.4419,2.8112,2.9927,2.9945,3.0052,3.1618,3.1955,3.3429,3.8184,4.0242,4.2567,4.6738,4.8859,4.9944,4.9944,4.9944,4.9944,4.9944,4.9944,4.9944,4.9944,4.9944,4.9944,4.9944,5.1528,5.2457,5.2457,5.4101,5.4993,5.4993,5.4993,5.4993,5.4993,5.4993,5.4993,5.4993,5.4993,5.4993,5.4993,5.4993,5.4993,5.5149,5.7757,5.8397,5.7991,6.3308,6.3357,6.0645,6.5097,6.6293,6.6004,7.0239,7.265,7.3992,7.4725,7.5945,7.7165,7.7165,7.7165,7.7165,7.7165,7.7165,7.7165,7.7165,7.7165,7.7165,7.7165,7.7165,7.7165,7.7165,7.7165,7.7165,7.7165,7.7165,7.7165,7.7165,7.7165,7.7165,7.7165,7.7165,7.7165,7.7165,7.7165,7.7165,7.7165,7.7165,7.7491,7.8312,8.2063,8.4564,8.4564,8.8344,8.9624,8.7135,8.5967,8.7439,9.1959,9.1059,9.3379,9.9416,9.9507,9.7797,9.4255,9.6066,9.5991,9.4304,9.5199,9.6568,1.6685,1.712,1.824,2.3051,2.7469,3.0724,3.0694,3.0688,3.0728,3.0728,3.0728,3.2192,3.6987,3.9299,4.1983,4.6666,4.8828,4.9944,4.9944,4.9944,4.9944,4.9944,4.9944,4.9944,4.9944,4.9944,4.9944,4.9944,5.1528,5.2457,5.2457,5.4101,5.4993,5.4993,5.4993,5.4993,5.4993,5.4993,5.4993,5.4993,5.4993,5.4993,5.4993,5.4993,5.4993,5.5201,5.8781,5.9767,5.9386,6.5674,6.6104,6.3139,6.6841,6.7903,6.7824,7.1074,7.3259,7.4578,7.5359,7.6312,7.7165,7.7165,7.7165,7.7165,7.7165,7.7165,7.7165,7.7165,7.7165,7.7165,7.7165,7.7165,7.7165,7.7165,7.7165,7.7165,7.7165,7.7165,7.7165,7.7165,7.7165,7.7165,7.7165,7.7165,7.7165,7.7165,7.7165,7.7165,7.7165,7.7165,7.7165,7.7165,8.1613,8.4564,8.4564,8.9118,9.1269,8.9668,8.8223,8.9062,9.2619,9.1811,9.3701,9.8718,9.9274,9.8243,9.5657,9.6568,9.654,9.5657,9.6615,9.7918,1.7106,1.7458,1.9873,2.856,3.0697,3.0711,3.0723,3.0728,3.0728,3.0728,3.0728,3.2178,3.7018,3.9298,4.1969,4.6667,4.8859,4.9944,4.9944,4.9944,4.9944,4.9944,4.9944,4.9944,4.9944,4.9944,4.9944,4.9944,5.1528,5.2457,5.2457,5.4101,5.4993,5.4993,5.4993,5.4993,5.4993,5.4993,5.4993,5.4993,5.4993,5.4993,5.4993,5.4993,5.4993,5.5305,6.0346,6.1242,5.9717,6.7386,6.7645,6.3676,6.8771,6.9883,6.8902,7.1435,7.3772,7.5603,7.5677,7.636,7.7165,7.7165,7.7165,7.7165,7.7165,7.7165,7.7165,7.7165,7.7165,7.7165,7.7165,7.7165,7.7165,7.7165,7.7165,7.7165,7.7165,7.7165,7.7165,7.7165,7.7165,7.7165,7.7165,7.7165,7.7165,7.7165,7.7165,7.7165,7.7165,7.7165,7.7165,7.7165,8.147,8.4426,8.4564,8.8987,9.1806,9.1962,9.0557,9.0987,9.3766,9.371,9.4877,9.7528,9.8809,9.8232,9.5848,9.8318,9.8272,9.5896,9.8364,9.9507,1.7122,2.2105,2.7793,3.0117,3.073,3.0715,3.073,3.0728,3.0728,3.0728,3.0728,3.2213,3.7006,3.9282,4.1954,4.6651,4.8837,4.9944,4.9944,4.9944,4.9944,4.9944,4.9944,4.9944,4.9944,4.9944,4.9944,4.9944,5.1528,5.2457,5.2457,5.4101,5.4993,5.4993,5.4993,5.4993,5.4993,5.4993,5.4993,5.4993,5.4993,5.4993,5.4993,5.4993,5.4993,5.5182,5.8498,6.0596,6.211,6.6175,6.8209,6.8864,7.0235,7.0983,7.1506,7.2925,7.4358,7.5725,7.6531,7.6945,7.7165,7.7165,7.7165,7.7165,7.7165,7.7165,7.7165,7.7165,7.7165,7.7165,7.7165,7.7165,7.7165,7.7165,7.7165,7.7165,7.7165,7.7165,7.7165,7.7165,7.7165,7.7165,7.7165,7.7165,7.7165,7.7165,7.7165,7.7165,7.7165,7.7165,7.7165,7.7165,7.993,8.2584,8.4426,8.743,8.9956,9.1806,8.985,9.0198,9.3737,9.3021,9.4118,9.7499,9.7937,9.8202,9.8503,9.9204,9.9158,9.8549,9.9204,9.9507,1.7115,2.3792,3.0711,3.0714,3.0697,3.0728,3.0728,3.0728,3.0728,3.0728,3.0728,3.1981,3.6097,3.8519,4.1522,4.6599,4.8531,4.9555,4.9935,4.9944,4.9944,4.9944,4.9944,4.9944,4.9944,4.9944,4.9944,4.9944,5.1528,5.2457,5.2457,5.4101,5.4993,5.4993,5.4993,5.4993,5.4993,5.4993,5.4993,5.4993,5.4993,5.4993,5.4993,5.4993,5.4993,5.5234,5.8983,6.144,6.3091,6.6983,6.9424,7.0814,7.1232,7.2087,7.3114,7.4212,7.5359,7.6385,7.6945,7.7165,7.7165,7.7165,7.7165,7.7165,7.7165,7.7165,7.7165,7.7165,7.7165,7.7165,7.7165,7.7165,7.7165,7.7165,7.7165,7.7165,7.7165,7.7165,7.7165,7.7165,7.7165,7.7165,7.7165,7.7165,7.7165,7.7165,7.7165,7.7165,7.7165,7.7165,7.7165,7.7165,7.9395,8.1873,8.4333,8.6821,8.932,9.1764,9.0658,9.0816,9.2966,9.2969,9.4144,9.6745,9.7326,9.7921,9.8693,9.9245,9.9507,9.9507,9.9507,9.9507,1.8233,2.4265,3.0333,3.0635,3.0717,3.0728,3.0728,3.0728,3.0728,3.0728,3.0728,3.1693,3.4861,3.7176,4.0444,4.6075,4.7704,4.8689,4.9811,4.9944,4.9944,4.9944,4.9944,4.9944,4.9944,4.9944,4.9944,4.9944,5.1528,5.2457,5.2457,5.4101,5.4993,5.4993,5.4993,5.4993,5.4993,5.4993,5.4993,5.4993,5.4993,5.4993,5.4993,5.4993,5.4993,5.5286,6.0167,6.2454,6.3188,6.8186,7.0444,7.0842,7.1916,7.2943,7.4017,7.5188,7.6287,7.7165,7.7165,7.7165,7.7165,7.7165,7.7165,7.7165,7.7165,7.7165,7.7165,7.7165,7.7165,7.7165,7.7165,7.7165,7.7165,7.7165,7.7165,7.7165,7.7165,7.7165,7.7165,7.7165,7.7165,7.7165,7.7165,7.7165,7.7165,7.7165,7.7165,7.7165,7.7165,7.7491,7.7541,7.7215,7.9395,8.173,8.3869,8.6298,8.8812,9.1312,9.1764,9.1962,9.1962,9.3183,9.4419,9.5568,9.6542,9.7224,9.7572,9.8722,9.9332,9.9507,9.9507,9.9507,2.4071,2.6794,2.8438,3.0237,3.0717,3.0728,3.0728,3.0728,3.0728,3.0728,3.0728,3.1517,3.4136,3.5496,3.7986,4.3616,4.5194,4.6702,4.9575,4.9944,4.9944,4.9944,4.9944,4.9944,4.9944,4.9944,4.9944,4.9944,5.1528,5.2457,5.2457,5.4101,5.4993,5.4993,5.4993,5.4993,5.4993,5.4993,5.4993,5.4993,5.4993,5.4993,5.4993,5.4993,5.4993,5.5201,5.8245,6.0795,6.3042,6.6223,6.8795,7.0842,7.1916,7.2943,7.4017,7.5188,7.6287,7.7165,7.7165,7.7165,7.7165,7.7165,7.7165,7.7165,7.7165,7.7165,7.7165,7.7165,7.7165,7.7165,7.7165,7.7165,7.7165,7.7165,7.7165,7.7165,7.7165,7.7165,7.7165,7.7165,7.7165,7.7165,7.7165,7.7165,7.7165,7.7165,7.7165,7.7165,7.7165,7.8978,7.9419,7.7391,7.9395,8.1039,8.147,8.3776,8.6253,8.8768,9.0786,9.1962,9.1962,9.3183,9.4011,9.4244,9.4405,9.5568,9.7572,9.7821,9.8489,9.9507,9.9507,9.9507,2.6517,2.7398,2.7658,2.8743,2.9847,3.0723,3.071,3.0728,3.0806,3.1151,3.0936,3.1452,3.3982,3.4713,3.6499,4.1123,4.2211,4.3746,4.7415,4.7931,4.8426,4.9783,4.9944,4.9944,4.9944,4.9944,4.9944,4.9944,5.1528,5.2457,5.2457,5.4101,5.4993,5.4993,5.4993,5.4993,5.4993,5.4993,5.4993,5.4993,5.4993,5.4993,5.4993,5.4993,5.4993,5.5234,5.9235,6.1638,6.3091,6.722,6.961,7.0842,7.1916,7.2601,7.3236,7.4968,7.5921,7.6458,7.697,7.7165,7.7165,7.7165,7.7165,7.7165,7.7165,7.7165,7.7165,7.7165,7.7165,7.7165,7.7165,7.7165,7.7165,7.7165,7.7165,7.7165,7.7165,7.7165,7.7165,7.7165,7.7165,7.7165,7.7165,7.7165,7.7165,7.7165,7.7165,7.7165,7.7165,7.8189,7.8978,7.9052,7.9028,7.9978,8.2584,8.3869,8.5618,8.8096,9.0572,9.1962,9.1962,9.2543,9.2863,9.2863,9.3532,9.4463,9.5684,9.6353,9.7313,9.8518,9.8518,9.8867,2.5178,2.5546,2.6183,2.7164,2.8528,2.9862,3.0769,3.0806,3.0845,3.1346,3.119,3.1459,3.3283,3.3732,3.499,3.8531,3.9654,4.1471,4.5358,4.6494,4.7692,4.9689,4.9944,4.9944,4.9944,4.9944,4.9944,4.9944,5.1528,5.2457,5.2457,5.4101,5.4993,5.4993,5.4993,5.4993,5.4993,5.4993,5.4993,5.4993,5.4993,5.4993,5.4993,5.4993,5.4993,5.5305,6.0517,6.3112,6.4038,6.8818,7.0765,7.0842,7.1916,7.2331,7.2575,7.4529,7.5408,7.5725,7.658,7.697,7.7165,7.7165,7.7165,7.7165,7.7165,7.7165,7.7165,7.7165,7.7165,7.7165,7.7165,7.7165,7.7165,7.7165,7.7165,7.7165,7.7165,7.7165,7.7165,7.7165,7.7165,7.7165,7.7165,7.7165,7.7165,7.7165,7.7165,7.7165,7.7165,7.8089,7.9297,8.0727,8.0076,8.0679,8.3543,8.4241,8.539,8.7313,8.9783,9.1397,9.1919,9.1962,9.1962,9.1962,9.295,9.3633,9.3895,9.4913,9.6004,9.721,9.7472,9.8095,1.8063,1.9599,2.2218,2.6358,2.6765,2.7107,3.0897,3.1198,3.0741,3.0793,3.1216,3.1479,3.1143,3.1517,3.284,3.5517,3.8468,4.157,4.4896,4.7825,4.9689,4.9944,4.9944,4.9944,4.9944,4.9944,4.9944,4.9944,5.1528,5.2457,5.2457,5.4101,5.4993,5.4993,5.4993,5.4993,5.4993,5.4993,5.4993,5.4993,5.4993,5.4993,5.4993,5.4993,5.4993,5.5305,6.0517,6.4205,6.6722,6.9563,7.0765,7.0842,7.1916,7.2331,7.2478,7.3602,7.4676,7.5628,7.5725,7.6385,7.7165,7.7165,7.7165,7.7165,7.7165,7.7165,7.7165,7.7165,7.7165,7.7165,7.7165,7.7165,7.7165,7.7165,7.7165,7.7165,7.7165,7.7165,7.7165,7.7165,7.7165,7.7165,7.7165,7.7165,7.7165,7.7165,7.7165,7.7165,7.7165,8.1087,8.3075,8.1087,8.4702,8.5618,8.1565,8.3263,8.4656,8.4886,8.7224,8.9581,9.1848,9.1962,9.1962,9.1962,9.2078,9.2689,9.3895,9.4011,9.4739,9.6019,9.7065,9.7631,2.0478,2.1341,2.1675,2.2148,2.4876,2.7975,3.0031,3.06,3.0819,3.1216,3.1523,3.1614,3.1333,3.119,3.1661,3.3429,3.4769,3.6755,4.0002,4.327,4.5842,4.7435,4.8987,4.9944,4.9944,4.9944,4.9944,4.9944,5.1528,5.2457,5.2457,5.4101,5.4993,5.4993,5.4993,5.4993,5.4993,5.4993,5.4993,5.4993,5.4993,5.4993,5.4993,5.4993,5.4993,5.5201,5.8882,6.1934,6.4737,6.9028,7.0765,7.0814,7.1183,7.1354,7.1501,7.2575,7.3602,7.4651,7.5359,7.6312,7.7165,7.7165,7.7165,7.7165,7.7165,7.7165,7.7165,7.7165,7.7165,7.7165,7.7165,7.7165,7.7165,7.7165,7.7165,7.7165,7.7165,7.7165,7.7165,7.7165,7.7165,7.7165,7.7165,7.7165,7.7165,7.7165,7.7165,7.7165,7.7165,8.0173,8.2537,8.3028,8.484,8.5253,8.3263,8.5345,8.6163,8.4656,8.83,8.9581,8.7564,9.0329,9.1269,8.974,9.1156,9.2194,9.2718,9.2718,9.3358,9.4681,9.5132,9.5771,2.1362,2.1636,2.0905,2.046,2.361,2.7171,2.8309,2.9276,3.0184,3.1016,3.1445,3.1679,3.1679,3.1307,3.1294,3.2086,3.2877,3.4545,3.7783,4.0363,4.3211,4.6757,4.814,4.9082,4.9878,4.9944,4.9944,4.9944,5.1528,5.2457,5.2457,5.4101,5.4993,5.4993,5.4993,5.4993,5.4993,5.4993,5.4993,5.4993,5.4993,5.4993,5.4993,5.4993,5.5441,5.6331,5.8932,6.1588,6.4328,6.8864,7.0765,7.0765,7.0765,7.0765,7.0863,7.1574,7.2479,7.3578,7.4724,7.5823,7.675,7.7067,7.7165,7.7165,7.7165,7.7165,7.7165,7.7165,7.7165,7.7165,7.7165,7.7165,7.7165,7.7165,7.7165,7.7165,7.7165,7.7165,7.7165,7.7165,7.7165,7.7165,7.7165,7.7165,7.7165,7.7165,7.7165,7.7441,7.8189,7.9809,8.2063,8.5299,8.6298,8.6461,8.5709,8.7224,8.7179,8.4702,8.852,8.9581,8.6866,9.0085,9.1113,8.9364,9.1071,9.1962,9.1962,9.1962,9.2398,9.3299,9.372,9.439,1.8333,1.8309,1.9214,2.2938,2.3329,2.3389,2.5723,2.7275,2.8524,2.971,3.0886,3.1679,3.1679,3.1679,3.1679,3.1692,3.3854,3.6689,3.9934,4.0878,4.3382,4.9244,4.7692,4.7147,4.9689,4.9944,4.9944,4.9944,5.1528,5.2457,5.2457,5.4101,5.4993,5.4993,5.4993,5.4993,5.4993,5.4993,5.4993,5.4993,5.4993,5.4993,5.4993,5.4993,5.6415,5.9033,6.1616,6.4302,6.703,6.9656,7.0765,7.0765,7.0765,7.0765,7.0765,7.079,7.1428,7.2455,7.3529,7.4627,7.5799,7.6873,7.7165,7.7165,7.7165,7.7165,7.7165,7.7165,7.7165,7.7165,7.7165,7.7165,7.7165,7.7165,7.7165,7.7165,7.7165,7.7165,7.7165,7.7165,7.7165,7.7165,7.7165,7.7165,7.7165,7.7165,7.7165,7.804,8.0486,8.0872,8.2746,8.7697,9.0415,9.09,8.8432,8.8256,8.7179,8.4702,8.6911,8.9364,9.1764,9.1919,9.1919,9.1919,9.1919,9.1962,9.1962,9.1962,9.1962,9.202,9.327,9.3895,1.7912,1.8921,2.0354,2.2238,2.3465,2.4572,2.6041,2.7309,2.8615,3.0145,3.0489,3.0743,3.1536,3.1307,3.1177,3.1614,3.2375,3.3401,3.4791,3.7029,3.9373,4.1579,4.4322,4.6408,4.7243,4.8939,4.9944,4.9944,5.1528,5.2457,5.2457,5.4101,5.4993,5.4993,5.4993,5.4993,5.4993,5.4993,5.4993,5.4993,5.4993,5.6877,6.0267,5.8498,5.9084,6.1737,6.4399,6.6079,6.7077,6.9656,7.0765,7.0765,7.0765,7.0765,7.0765,7.0765,7.1403,7.238,7.265,7.4065,7.5652,7.6019,7.6555,7.7165,7.7165,7.7165,7.7165,7.7165,7.7165,7.7165,7.7165,7.7165,7.7165,7.7165,7.7165,7.7165,7.7165,7.7165,7.7165,7.7165,7.7165,7.7165,7.7165,7.7165,7.7165,7.7165,7.7165,7.804,8.0534,8.0872,8.2746,8.7742,9.0458,9.0943,8.8476,8.9826,8.974,8.7224,8.9407,8.9581,8.7001,9.0157,9.1156,8.9451,9.1071,9.1962,9.1962,9.1962,9.1962,9.1962,9.2369,9.2572,1.8631,1.9741,2.0916,2.2204,2.3044,2.3889,2.5192,2.5879,2.6697,2.819,2.8567,2.8952,3.0138,3.0749,3.1281,3.19,3.1822,3.2129,3.3463,3.4697,3.6407,3.8974,4.2415,4.5002,4.5987,4.8426,4.9944,4.9944,5.1528,5.2457,5.2457,5.4101,5.4993,5.4993,5.4993,5.4993,5.4993,5.4993,5.4993,5.5045,5.5971,5.8194,6.1291,6.0645,6.1835,6.4399,6.6127,6.7409,6.8467,7.0097,7.0765,7.0765,7.0765,7.0765,7.0765,7.0765,7.1135,7.1794,7.2185,7.3479,7.5042,7.5481,7.6336,7.7165,7.7165,7.7165,7.7165,7.7165,7.7165,7.7165,7.7165,7.7165,7.7165,7.7165,7.7165,7.7165,7.7165,7.7165,7.7165,7.7165,7.7165,7.7165,7.7165,7.7165,7.7165,7.7165,7.794,7.9467,8.1921,8.3075,8.5207,8.9233,9.1028,9.1312,8.9783,9.1071,9.09,8.8388,9.0572,9.0572,8.7475,9.0329,9.1227,8.9668,9.1156,9.1962,9.1962,9.1962,9.1962,9.1962,9.1962,9.1962,1.9884,2.0465,2.0916,2.2557,2.2251,2.1971,2.3555,2.3473,2.3404,2.4587,2.558,2.6617,2.7837,2.9904,3.1653,3.2242,3.1991,3.2578,3.5077,3.3831,3.4709,4.0369,4.1797,4.3298,4.5811,4.8426,4.9944,4.9944,5.1471,5.245,5.2457,5.4044,5.4936,5.4993,5.4993,5.4993,5.4993,5.4993,5.5201,5.5596,5.7838,5.9164,5.9817,6.206,6.4593,6.7125,6.7125,6.8514,7.0765,7.0765,7.0765,7.0765,7.0765,7.0765,7.0765,7.0765,7.0765,7.0912,7.1867,7.2919,7.4041,7.5139,7.6263,7.7165,7.7165,7.7165,7.7165,7.7165,7.7165,7.7165,7.7165,7.7165,7.7165,7.7165,7.7165,7.7165,7.7165,7.7165,7.7165,7.7165,7.7165,7.7215,7.7391,7.7291,7.7215,7.7391,7.9395,8.173,8.4241,8.6731,8.9205,9.168,9.1962,9.1962,9.1962,9.1962,9.0985,8.8652,9.07,9.1848,9.168,9.1848,9.1764,9.1397,9.1764,9.1848,9.168,9.1848,9.1962,9.1962,9.1962,9.1962,1.7802,1.8867,2.0062,2.0982,2.2264,2.3425,2.3815,2.3092,2.2737,2.3879,2.4334,2.4972,2.6539,2.8032,2.9445,3.0884,3.1424,3.2217,3.3719,3.4167,3.5712,3.9155,4.1816,4.4098,4.5916,4.8426,4.9944,4.9944,5.0988,5.1842,5.2419,5.3494,5.4399,5.4974,5.4993,5.4993,5.4993,5.4993,5.7011,6.0944,5.9566,6.211,6.7927,6.6556,6.7338,6.9865,6.9865,7.0189,7.0765,7.0765,7.0765,7.0765,7.0765,7.0765,7.0765,7.0765,7.0765,7.0814,7.1012,7.2356,7.3919,7.4188,7.5579,7.7165,7.7165,7.7165,7.7165,7.7165,7.7165,7.7165,7.7165,7.7165,7.7165,7.7165,7.7165,7.7165,7.7165,7.7165,7.7165,7.7165,7.7165,7.7766,7.9663,7.8411,7.7816,7.9712,8.0486,8.173,8.4241,8.6731,8.9205,9.168,9.1962,9.1962,9.1962,9.1962,9.168,9.1113,9.1637,9.1071,8.9205,9.0943,9.0157,8.6344,8.9999,9.1028,8.9118,9.1028,9.1962,9.1962,9.1962,9.1962,1.8048,1.9319,2.0399,2.0209,2.1451,2.2672,2.2446,2.1913,2.1607,2.2264,2.2602,2.3438,2.5672,2.6592,2.7746,2.9976,3.0645,3.1198,3.2034,3.3101,3.457,3.6602,4.0485,4.3546,4.4853,4.8031,4.9944,4.9944,5.0817,5.1652,5.2468,5.3373,5.4209,5.4974,5.4993,5.4993,5.4993,5.4993,5.7655,6.2748,6.139,6.3578,6.8959,6.8748,6.9424,7.0765,7.0765,7.0765,7.0765,7.0765,7.0765,7.0765,7.0765,7.0765,7.0765,7.0765,7.0765,7.0765,7.0765,7.1818,7.3212,7.3724,7.5042,7.658,7.7019,7.7165,7.7165,7.7165,7.7165,7.7165,7.7165,7.7165,7.7165,7.7165,7.7165,7.7165,7.7165,7.7165,7.7165,7.7165,7.7165,7.7566,7.8929,7.9028,7.8929,7.915,8.2063,8.4333,8.4564,8.7697,9.0458,9.1806,9.1962,9.1962,9.1962,9.1962,9.1962,9.1962,9.1962,9.1354,8.9999,9.1227,9.07,8.8007,9.0572,9.1312,8.9956,9.1312,9.1962,9.1962,9.1962,9.1962,1.8956,2.0395,2.1269,2.0265,2.0711,2.1275,2.0825,2.0513,2.0356,2.0435,2.0807,2.1906,2.4542,2.5165,2.6126,2.8723,2.9359,2.9987,3.1222,3.2596,3.3921,3.5217,3.9891,4.3342,4.4059,4.7643,4.9944,4.9944,5.0703,5.1519,5.24,5.324,5.4076,5.4974,5.4993,5.5201,5.5596,5.5971,5.8629,6.3405,6.3405,6.4834,6.755,6.9773,7.0765,7.0765,7.0765,7.0765,7.0765,7.0765,7.0765,7.0765,7.0765,7.0765,7.0765,7.0765,7.0765,7.0765,7.0765,7.1428,7.2502,7.3529,7.4627,7.5823,7.6848,7.7165,7.7165,7.7165,7.7165,7.7165,7.7165,7.7165,7.7165,7.7165,7.7165,7.7165,7.7165,7.7165,7.7165,7.7165,7.7165,7.7291,7.7666,7.9467,8.027,7.856,8.3962,8.7519,8.539,8.9118,9.1962,9.1962,9.1962,9.1962,9.1962,9.1962,9.1962,9.1962,9.1962,9.1962,9.1962,9.1595,9.1198,9.0786,9.1553,9.1764,9.1397,9.1764,9.1962,9.1962,9.1962,9.1962,1.7969,2.0053,2.2003,2.1801,2.1594,2.1347,2.1288,2.0144,1.9247,1.9698,1.9837,2.0317,2.1763,2.2849,2.4003,2.541,2.6854,2.936,3.3878,3.657,3.8697,4.0402,4.4369,4.6661,4.5808,4.8287,4.9944,4.9944,5.0105,5.0845,5.2381,5.2639,5.3399,5.4955,5.4993,5.6093,5.8295,6.0496,6.3161,6.6245,6.6245,6.7645,7.0189,7.0582,7.0765,7.0765,7.0765,7.0765,7.0765,7.0765,7.0765,7.0765,7.0765,7.0765,7.0765,7.0765,7.0765,7.0765,7.0765,7.1428,7.2502,7.3529,7.4627,7.5823,7.6848,7.7165,7.7165,7.7165,7.7165,7.7165,7.7165,7.7165,7.7165,7.7165,7.7165,7.7165,7.7165,7.7165,7.7165,7.7165,7.7165,7.7816,7.993,8.0631,8.147,8.3169,8.6163,8.8124,8.7742,9.02,9.1962,9.1962,9.1962,9.1962,9.1962,9.1962,9.1962,9.1962,9.1962,9.1962,9.1962,8.9913,8.783,8.5709,8.9826,9.0943,8.8812,9.0943,9.1962,9.1962,9.1962,9.1962,1.8696,2.0706,2.2594,2.2262,2.1977,2.175,2.1438,2.0794,2.0222,2.017,2.0157,2.0599,2.2056,2.2251,2.2966,2.5334,2.6399,2.807,3.1423,3.5214,3.8629,4.1447,4.4814,4.6893,4.7032,4.8797,4.9944,4.9944,4.9944,5.0712,5.2381,5.2457,5.3285,5.4936,5.6383,5.9084,6.3183,6.2917,6.486,6.8935,6.755,6.8233,7.0765,7.0765,7.0765,7.0765,7.0765,7.0765,7.0765,7.0765,7.0765,7.0765,7.0765,7.0765,7.0765,7.0765,7.0765,7.0765,7.0765,7.1037,7.1647,7.265,7.3358,7.4138,7.5848,7.6336,7.6458,7.6994,7.7165,7.7165,7.7165,7.7165,7.7165,7.7165,7.7165,7.7165,7.7165,7.7165,7.7165,7.7165,7.7165,7.7541,7.8634,7.9978,8.0776,8.0583,8.3823,8.6253,8.6253,8.8388,9.0458,9.1806,9.1962,9.1962,9.1962,9.1962,9.1962,9.1962,9.1962,9.1962,9.1962,9.0829,8.974,8.8564,9.0786,9.1397,9.0243,9.1397,9.1962,9.1962,9.1962,9.1962,2.0745,0.0,2.3616,2.3105,2.2884,2.2633,0.0,2.1659,2.1373,2.0734,2.0622,2.0982,2.2297,2.1795,2.2126,2.496,2.5646,2.6515,2.8467,3.3103,3.7751,4.1735,4.4883,4.6897,4.7366,4.8969,4.9944,4.9944,4.9944,5.0712,5.2381,5.2457,5.3548,5.5829,5.8447,6.2082,6.684,6.5411,6.67,7.0719,6.8748,6.8841,7.0765,7.0765,7.0765,7.0765,7.0765,7.0765,7.0765,7.0765,7.0765,7.0765,7.0765,7.0765,7.0765,7.0765,7.0765,7.0765,7.0765,7.0765,7.0912,7.1696,7.2111,7.2746,7.4944,7.5237,7.5115,7.6458,7.6824,7.6848,7.7092,7.7165,7.7165,7.7165,7.7165,7.7165,7.7165,7.7165,7.7165,7.7165,7.7165,7.7165,7.7165,7.9248,8.0221,7.8312,8.173,8.4564,8.4564,8.6731,8.8987,9.09,9.1595,9.1962,9.1962,9.1962,9.1962,9.1962,9.1962,9.1962,9.1962,9.1962,9.1962,9.1962,9.1962,9.1962,9.1962,9.1962,9.1962,9.1962,9.1962,9.1962,0.0,2.5335,2.5477,2.5412,2.5047,2.4381,2.3274,2.2542,0.0,2.0812,2.0622,2.0661,2.0747,2.0739,2.1041,2.2275,2.3377,2.4892,2.7231,3.2517,3.7978,4.2814,4.6484,4.7963,4.6316,4.85,4.9944,4.9944,4.9944,5.0712,5.2381,5.2457,5.438,5.8488,6.1143,6.3914,6.684,6.9098,7.0373,7.0765,7.0582,7.0582,7.0765,7.0765,7.0765,7.0765,7.0765,7.0765,7.0765,7.0765,7.0765,7.0765,7.0765,7.0765,7.0765,7.0765,7.0765,7.0765,7.0765,7.0765,7.079,7.0817,7.1501,7.2746,7.4944,7.4187,7.299,7.5139,7.5725,7.5945,7.6896,7.7165,7.7165,7.7165,7.7165,7.7165,7.7165,7.7165,7.7165,7.7165,7.7165,7.7165,7.7165,7.9248,8.0824,8.0631,8.284,8.4564,8.4564,8.6731,8.83,8.8476,9.0572,9.1962,9.1962,9.1962,9.1962,9.1962,9.1962,9.1962,9.1962,9.1962,9.1962,9.1962,9.1962,9.1962,9.1962,9.1962,9.1962,9.1962,9.1962,9.1962,2.5438,2.6191,2.6567,2.5814,2.5775,2.5464,2.3944,2.3425,2.2854,2.1392,2.0838,2.0622,2.0622,2.0622,2.119,2.297,2.3633,2.484,2.7528,3.2672,3.7364,4.06,4.604,4.9217,4.8551,4.9385,4.9944,4.9944,4.9944,5.0712,5.2381,5.2457,5.5,6.04,6.3701,6.6604,6.9238,7.0235,7.0765,7.0765,7.0765,7.0765,7.0765,7.0765,7.0765,7.0765,7.0765,7.0765,0.0,7.0765,7.0765,7.0765,7.0765,7.0765,7.0765,7.0765,7.0765,7.0765,7.0765,7.0765,7.0765,7.0765,7.1059,7.1476,7.2307,7.2453,7.2795,7.4993,7.5603,7.5848,7.6872,7.7165,7.7165,7.7165,7.7165,7.7165,7.7165,7.7165,7.7165,7.7165,7.7165,7.7165,7.7165,7.794,7.856,7.856,7.9395,8.0486,8.2063,8.3075,8.484,8.7919,8.9074,9.0286,9.1806,9.1962,9.1962,9.1962,9.1962,9.1962,9.1962,9.1962,9.1962,9.1962,9.1962,9.1962,9.1962,9.1962,9.1962,9.1962,9.1962,9.1962,2.645,2.6931,2.7204,2.6412,2.6463,2.6294,2.463,2.4084,2.3425,2.1724,2.0982,2.0622,2.0622,2.0622,2.1281,2.3343,2.3957,2.5414,2.8798,3.3421,3.7386,3.9782,4.5469,4.9176,4.9176,4.9669,4.9944,4.9944,4.9944,5.0598,5.2051,5.3125,5.6125,6.1431,6.4666,6.7739,7.0719,7.0765,7.0765,7.0765,7.0765,7.0765,7.0765,7.0765,7.0765,7.0765,7.0765,7.0765,7.0765,7.0765,7.0765,7.0765,7.0765,7.0765,7.0765,7.0765,7.0765,7.0765,7.0765,7.0765,7.0765,7.0765,7.0765,7.0765,7.0765,7.1232,7.2136,7.3625,7.4553,7.5335,7.636,7.6896,7.7165,7.7165,7.7165,7.7165,7.7165,7.7165,7.7165,7.7165,7.7165,7.7165,7.7165,7.7165,7.7165,7.7165,7.7165,7.7766,7.9467,8.0366,8.2442,8.6641,8.7786,8.8608,8.9538,8.9581,8.9581,8.9581,9.0329,9.0786,9.0786,9.1524,9.1962,9.1962,9.1962,9.1962,9.1962,9.1962,9.1962,9.1962,9.1962,9.1962,2.7863,2.7814,2.7426,2.7385,2.7385,2.6984,2.5304,2.4383,2.3438,2.1724,2.0995,2.0622,2.0622,2.0591,2.1151,2.287,2.4143,2.6458,3.1036,3.4802,3.8177,4.1086,4.4966,4.7412,4.7431,4.8986,4.9944,4.9944,4.9944,5.0352,5.1254,5.4535,5.7978,6.1504,6.3916,6.6939,7.0695,7.0765,7.0765,7.0765,7.0765,7.0765,7.0765,7.0765,7.0765,7.0765,7.0765,7.0765,7.0765,7.0765,7.0765,7.0765,7.0765,7.0765,7.0765,7.0765,7.0765,7.0765,7.0765,7.0765,7.0765,7.0765,7.0765,7.0765,7.0765,7.0765,7.0765,7.0765,7.2258,7.4114,7.5286,7.6385,7.7141,7.7165,7.7165,7.7165,7.7165,7.7165,7.7165,7.7165,7.7165,7.7165,7.7165,7.7165,7.7165,7.7165,7.7165,7.7165,7.7165,7.9297,8.1778,8.4241,8.6731,8.7179,8.4794,8.4564,8.4564,8.4564,8.6866,8.8212,8.8212,9.0572,9.1919,9.1919,9.1919,9.1962,9.1962,9.1962,9.1962,9.1962,9.1962,9.1962,2.7541,2.7515,2.7517,2.7879,2.7941,2.7591,2.6268,2.523,2.4071,2.2308,2.1223,2.0622,2.0622,2.0916,2.1587,2.2922,2.4143,2.6323,3.0536,3.417,3.7743,4.1241,4.5073,4.7685,4.8338,4.9328,4.9944,4.9944,4.9944,5.0352,5.1254,5.5556,5.8497,5.952,6.4941,6.8372,6.9506,7.0353,7.0765,7.0765,7.0765,7.0765,7.0765,7.0765,7.0765,7.0765,7.0765,7.0765,7.0765,7.0765,7.0765,7.0765,7.0765,7.0765,7.0765,7.0765,7.0765,7.0765,7.0765,7.0765,7.0765,7.0765,7.0765,7.0765,7.0765,7.0765,7.0765,7.0765,7.1721,7.2868,7.321,7.4675,7.6263,7.697,7.7165,7.7165,7.7165,7.7165,7.7165,7.7165,7.7165,7.7165,7.7165,7.7165,7.7165,7.7165,7.7165,7.7165,7.7165,7.7816,7.9199,8.1709,8.2631,8.345,8.4472,8.4564,8.4564,8.4564,8.5253,8.5664,8.5664,8.8007,8.9364,8.9364,9.1071,9.1962,9.1962,9.1962,9.1962,9.1962,9.1962,9.1962,2.7426,2.7426,2.7515,2.8044,2.8019,2.771,2.6981,2.5606,2.411,2.2815,2.1509,2.0656,2.089,2.1353,2.223,2.3876,2.5099,2.7633,3.2685,3.5362,3.8372,4.2538,4.5342,4.7305,4.8186,4.9014,4.9612,4.9953,4.9944,5.02,5.076,5.4564,5.7298,5.8669,6.3713,6.7204,6.8997,6.9676,7.0304,7.0765,7.0765,7.0765,7.0765,7.0765,7.0765,7.0765,7.0765,7.0765,7.0765,7.0765,7.0765,7.0765,7.0765,7.0765,7.0765,7.0765,7.0765,7.0765,7.0765,7.0765,7.0765,7.0765,7.0765,7.0765,7.0765,7.0765,7.0765,7.0765,7.1183,7.1794,7.2209,7.3308,7.4675,7.6214,7.6848,7.7165,7.7165,7.7165,7.7165,7.7165,7.7165,7.7165,7.7165,7.7165,7.7165,7.7165,7.7165,7.7165,7.7165,7.7165,7.8139,8.0583,7.9978,7.9978,8.147,8.1613,8.1613,8.1613,8.2537,8.3075,8.3075,8.5482,8.6776,8.6776,8.8256,8.9494,9.0458,9.0458,9.0985,9.1962,9.1962,9.1962,2.7426,2.7426,2.7528,2.8109,2.7879,2.7504,2.7504,2.571,2.3879,2.3287,2.1867,2.0864,2.1249,2.1919,2.3105,2.5256,2.6684,2.9736,3.5939,3.7449,3.9574,4.4038,4.56,4.6565,4.7336,4.8235,4.9136,4.9916,4.9944,4.9944,4.9944,5.2496,5.5379,5.8471,6.1284,6.4684,6.8681,6.89,6.9554,7.0573,7.0716,7.0765,7.0765,7.0765,7.0765,7.0765,7.0765,7.0765,7.0765,7.0765,7.0765,7.0765,7.0765,7.0765,7.0765,7.0765,7.0765,7.0765,7.0765,7.0765,7.0765,7.0765,7.0765,7.0765,7.0765,7.0765,7.0765,7.0765,7.0765,7.0939,7.1916,7.2258,7.2844,7.4846,7.6214,7.7043,7.7141,7.7165,7.7165,7.7165,7.7165,7.7165,7.7165,7.7165,7.7165,7.7165,7.7165,7.7165,7.7165,7.7165,7.804,8.027,7.851,7.7165,7.7165,7.7165,7.7165,7.7165,7.9297,8.0534,8.0534,8.2888,8.4241,8.4241,8.4426,8.5664,8.7919,8.7919,8.9161,9.1637,9.1637,9.1722,2.7426,2.7426,2.766,2.8688,2.8476,2.8006,2.8006,2.6579,2.4879,2.3421,2.2425,2.162,2.0916,2.2701,2.4459,2.4954,2.7155,3.0052,3.3708,3.6335,3.8942,4.1797,4.459,4.6565,4.7336,4.8235,4.9136,4.9916,4.9944,4.9944,4.9944,5.4046,5.6735,5.7467,6.2461,6.5612,6.653,6.8213,6.9119,6.9408,7.0329,7.0765,7.0765,7.0765,7.0765,7.0765,7.0765,7.0765,7.0765,7.0765,7.0765,7.0765,7.0765,7.0765,7.0765,7.0765,7.0765,7.0765,7.0765,7.0765,7.0765,7.0765,7.0765,7.0765,7.0765,7.0765,7.0765,7.0765,7.0765,7.0814,7.1012,7.1696,7.2453,7.2917,7.4529,7.6189,7.697,7.7165,7.7165,7.7165,7.7165,7.7165,7.7165,7.7165,7.7165,7.7165,7.7165,7.7165,7.7165,7.7165,7.7341,7.7891,7.7491,7.7165,7.7165,7.7165,7.7165,7.7165,7.7666,7.794,7.794,8.0366,8.1661,8.1661,8.359,8.4794,8.5345,8.5345,8.6641,8.9031,8.9031,9.0085,2.7307,2.7426,2.77,2.8844,2.8658,2.833,2.8918,2.7723,2.6087,2.4656,2.3633,2.2763,2.1971,2.3681,2.5424,2.6022,2.8012,3.0929,3.5005,3.6891,3.9162,4.2653,4.4558,4.5914,4.6793,4.7628,4.8482,4.9336,4.9745,4.9802,4.9431,5.2118,5.4755,5.7073,6.118,6.417,6.589,6.6945,6.8018,6.8997,6.9603,7.0231,7.0765,7.0765,7.0765,7.0765,7.0765,7.0765,7.0765,7.0765,7.0765,7.0765,7.0765,7.0765,7.0765,7.0765,7.0765,7.0765,7.0765,7.0765,7.0765,7.0765,7.0765,7.0765,7.0765,7.0765,7.0765,7.0765,7.0765,7.0765,7.0765,7.1135,7.1696,7.2209,7.3186,7.448,7.6092,7.6849,7.7165,7.7165,7.7165,7.7165,7.7165,7.7165,7.7165,7.7165,7.7165,7.7165,7.7165,7.7165,7.7165,7.7165,7.7165,7.7165,7.7165,7.7165,7.7165,7.7165,7.7165,7.7165,7.7165,7.8411,7.9101,7.9101,8.0366,8.1613,8.2793,8.2793,8.4055,8.6506,8.7697,8.8943,2.7256,2.7426,2.7674,2.8714,2.858,2.8433,2.9411,2.8541,2.7204,2.6022,2.5011,2.4165,2.3525,2.4917,2.6424,2.7372,2.9047,3.1932,3.6761,3.7807,3.9576,4.3781,4.4673,4.5269,4.6166,4.685,4.7609,4.849,4.9317,4.9488,4.8813,4.9545,5.2005,5.6425,5.8842,6.1824,6.5598,6.5793,6.675,6.8461,6.8827,6.9506,7.0451,7.0646,7.0765,7.0765,7.0765,7.0765,7.0765,7.0765,7.0765,7.0765,7.0765,7.0765,7.0765,7.0765,7.0765,7.0765,7.0765,7.0765,7.0765,7.0765,7.0765,7.0765,7.0765,7.0765,7.0765,7.0765,7.0765,7.0765,7.0765,7.0765,7.0939,7.1843,7.2185,7.282,7.4651,7.6043,7.6945,7.7116,7.7165,7.7165,7.7165,7.7165,7.7165,7.7165,7.7165,7.7165,7.7165,7.7165,7.7165,7.7165,7.7165,7.7165,7.7165,7.7165,7.7067,7.6946,7.7067,7.7067,7.6946,7.7067,7.7165,7.7165,7.7165,7.8189,8.0221,8.0221,8.1518,8.3962,8.6027,8.743,2.74,2.7426,2.7582,2.8177,2.8239,2.8226,2.8369,2.8226,2.7746,2.6565,2.6203,2.5801,2.4824,2.6373,2.7889,2.8044,2.9969,3.2397,3.5174,3.7308,3.9411,4.1608,4.3677,4.5269,4.6166,4.6337,4.6736,4.7571,4.8425,4.8889,4.8775,4.9545,5.1251,5.4021,5.6403,5.9851,6.4499,6.5427,6.6037,6.633,6.8164,6.9071,6.9286,7.0304,7.0765,7.0765,7.0765,7.0765,7.0765,7.0765,7.0765,7.0765,7.0765,7.0765,7.0765,7.0765,7.0765,7.0765,7.0765,7.0765,7.0765,7.0765,7.0765,7.0765,7.0765,7.0765,7.0765,7.0765,7.0765,7.0765,7.0765,7.0765,7.0814,7.0961,7.1647,7.2404,7.2697,7.4382,7.6092,7.697,7.7165,7.7165,7.7165,7.7165,7.7165,7.7165,7.7165,7.7165,7.7165,7.7165,7.7165,7.7165,7.7165,7.7165,7.7165,7.7165,7.675,7.5872,7.6652,7.675,7.5872,7.6652,7.7165,7.7165,7.7165,7.7341,7.7666,7.7666,7.8929,8.1374,8.1709,8.4148,2.7244,2.7426,2.7515,2.8044,2.8187,2.8265,2.8632,2.8753,2.8385,2.7202,2.7215,2.7085,2.5957,2.7372,2.8753,2.8753,3.1273,3.4016,3.6394,3.8734,4.0986,4.3095,4.427,4.5037,4.5459,4.5976,4.6394,4.6755,4.7115,4.7578,4.7989,4.8824,5.0633,5.3562,5.4639,5.6827,6.0283,6.2044,6.33,6.396,6.6208,6.7555,6.8189,6.9262,6.9771,6.9819,7.0451,7.0765,7.0765,7.0765,7.0765,7.0765,7.0765,7.0765,7.0765,7.0765,7.0765,7.0765,7.0765,7.0765,7.0765,7.0765,7.0765,7.0765,7.0765,7.0765,7.0765,7.0765,7.0765,7.0765,7.0765,7.0765,7.0765,7.0765,7.1132,7.1599,7.2209,7.3088,7.4089,7.5115,7.5823,7.6507,7.7067,7.7165,7.7165,7.7165,7.7165,7.7165,7.7165,7.7165,7.7165,7.7165,7.7165,7.6921,7.636,7.6312,7.5848,7.4676,7.5066,7.5115,7.4627,7.5066,7.5335,7.5335,7.5335,7.5335,7.5335,7.5969,7.6855,7.798,7.9941,8.2016,2.6931,2.7165,2.7307,2.7866,2.8009,2.8126,2.8597,2.8805,2.8662,2.7775,2.8048,2.819,2.7292,2.8346,2.939,2.9533,3.1905,3.4744,3.7708,3.9605,4.1748,4.4564,4.4885,4.4885,4.4885,4.5516,4.5919,4.5919,4.6109,4.6508,4.7115,4.8205,4.9917,5.2321,5.3231,5.4477,5.6245,5.8579,6.019,6.1098,6.373,6.5391,6.6254,6.7874,6.8607,6.8632,6.9527,6.9914,6.9938,7.0207,7.0329,7.0353,7.0622,7.0765,7.0765,7.0765,7.0765,7.0741,7.0402,7.0329,7.0378,7.0646,7.0765,7.0765,7.0765,7.0765,7.0765,7.0765,7.0765,7.0765,7.0765,7.0765,7.0765,7.0765,7.0765,7.0939,7.1745,7.2136,7.2575,7.3309,7.4383,7.5432,7.6189,7.6555,7.675,7.675,7.697,7.697,7.6384,7.6335,7.6335,7.6335,7.6335,7.5994,7.5237,7.5188,7.47,7.3553,7.3724,7.3748,7.348,7.3748,7.387,7.387,7.387,7.387,7.387,7.4725,7.5188,7.5261,7.8173,7.9885,2.6475,2.6488,2.6657,2.7282,2.7465,2.7437,2.7504,2.7879,2.8213,2.8148,2.8645,2.9065,2.9013,2.9507,3.006,3.0547,3.1283,3.3423,3.8011,3.8724,4.0345,4.4406,4.4885,4.4885,4.4885,4.4923,4.4961,4.4961,4.5787,4.6261,4.6299,4.7901,4.8886,4.9062,5.2057,5.3721,5.3838,5.6155,5.7362,5.7472,6.0941,6.262,6.2733,6.603,6.753,6.753,6.7579,6.7628,6.7701,6.8701,6.9095,6.9192,7.0329,7.0765,7.0765,7.0765,7.0765,7.0573,6.9481,6.9095,6.9286,7.0402,7.0765,7.0765,7.0765,7.0765,7.0765,7.0765,7.0765,7.0765,7.0765,7.0765,7.0765,7.0765,7.0765,7.079,7.0839,7.1599,7.2356,7.2404,7.3236,7.3968,7.4041,7.492,7.5677,7.5677,7.6556,7.6408,7.431,7.4041,7.4041,7.4041,7.4041,7.4041,7.3968,7.3968,7.3504,7.2478,7.3309,7.3407,7.2453,7.3334,7.387,7.387,7.387,7.387,7.387,7.3944,7.3968,7.3992,7.531,7.7163,2.6281,2.5284,2.4505,2.6311,2.5835,2.5355,2.7008,2.7541,2.7684,2.7684,2.8139,2.8528,2.8528,2.9294,2.9995,3.019,3.2013,3.4526,3.7729,3.9499,4.153,4.4564,4.4885,4.4885,4.4885,4.4885,4.4885,4.4885,4.5212,4.5629,4.6204,4.6856,4.7673,4.8737,4.9917,5.076,5.1278,5.2145,5.3333,5.4912,5.769,5.9025,5.9092,6.0995,6.1808,6.1899,6.2537,6.281,6.2993,6.4955,6.5776,6.5959,6.7873,6.8648,6.8648,6.8648,6.8648,6.8352,6.6414,6.6768,6.8091,6.8502,6.9087,6.9603,6.9603,7.0137,7.0765,7.0765,7.0765,7.0765,7.0765,7.0765,7.0765,7.0765,7.0765,7.0765,7.0765,7.1037,7.1306,7.1306,7.216,7.2845,7.2845,7.3748,7.4481,7.4481,7.4798,7.4773,7.3968,7.387,7.387,7.387,7.387,7.3602,7.2919,7.2845,7.2453,7.1354,7.1647,7.1696,7.1306,7.1672,7.1867,7.1867,7.1867,7.1867,7.1867,7.2575,7.2845,7.287,7.3968,7.4963,2.4383,2.3033,2.1979,2.3609,2.3629,2.3694,2.5441,2.6459,2.71,2.71,2.7656,2.8187,2.8187,2.8996,2.971,2.9904,3.1615,3.3813,3.6369,3.8722,4.1103,4.3463,4.4398,4.4885,4.4885,4.4885,4.4885,4.4885,4.4885,4.5174,4.5787,4.609,4.6799,4.7901,4.8205,4.8729,4.9536,4.9555,5.0493,5.2423,5.3954,5.5163,5.6042,5.75,5.8189,5.8233,5.8911,5.9195,5.9355,6.1356,6.2196,6.2377,6.4282,6.5006,6.5006,6.5006,6.4582,6.3796,6.2624,6.3774,6.5826,6.6162,6.7276,6.8461,6.8461,6.9038,6.9743,7.0085,7.0161,7.0255,7.0646,7.0765,7.0765,7.0765,7.0765,7.0765,7.0765,7.0765,7.0765,7.0765,7.1306,7.1794,7.1794,7.238,7.2919,7.3285,7.3334,7.3212,7.2845,7.2797,7.2797,7.2797,7.2797,7.2575,7.1843,7.1794,7.1476,7.0814,7.0765,7.0765,7.0765,7.0765,7.0765,7.0765,7.0765,7.0765,7.0765,7.1452,7.1794,7.1818,7.2845,7.3334,2.0819,1.984,1.9103,1.9206,2.0882,2.2545,2.2646,2.4559,2.6331,2.6331,2.7303,2.8135,2.8135,2.8658,2.9286,2.9788,2.9904,3.0955,3.3957,3.6429,3.8766,4.1129,4.3506,4.4885,4.4885,4.4885,4.4885,4.4885,4.4885,4.4885,4.4885,4.5768,4.6223,4.6242,4.7001,4.7837,4.8718,4.8756,4.9193,4.9935,4.9925,5.1204,5.3629,5.5864,5.694,5.694,5.694,5.694,5.7005,5.8119,5.8534,5.8689,5.9743,6.0161,6.0161,6.0021,5.8706,5.7204,5.8208,6.0142,6.2379,6.3418,6.5341,6.7208,6.7277,6.7277,6.7496,6.8656,6.8973,6.9286,7.0451,7.0765,7.0741,7.0765,7.0765,7.0765,7.0765,7.0765,7.0765,7.0765,7.0765,7.0765,7.0765,7.0765,7.1132,7.2111,7.2282,7.1892,7.0912,7.0765,7.0765,7.0765,7.0765,7.0765,7.0765,7.0765,7.0765,7.0765,7.0741,7.0716,7.0716,7.0692,7.0668,7.0668,7.0668,7.0668,7.0668,7.0668,7.0692,7.0765,7.1745,7.2258,1.9083,1.7219,1.6036,1.7913,1.798,1.8003,1.9801,2.2033,2.375,2.375,2.5457,2.6902,2.6902,2.7759,2.8515,2.8671,2.9385,3.0808,3.3354,3.615,3.8766,4.1129,4.3506,4.4885,4.4885,4.4885,4.4885,4.4885,4.4885,4.4885,4.4885,4.5155,4.5573,4.6223,4.647,4.6982,4.7799,4.8471,4.8889,4.9136,4.9688,5.0284,5.1017,5.1633,5.1939,5.1939,5.1939,5.1939,5.2098,5.4196,5.508,5.5217,5.7227,5.7992,5.7585,5.4063,5.3594,5.4635,5.493,5.6585,5.8648,5.8958,5.9963,6.1402,6.2821,6.3248,6.3881,6.6986,6.8262,6.9059,7.0423,7.0112,6.9676,7.0548,7.0765,7.0765,7.0765,7.0765,7.0765,7.0765,7.0765,7.0765,7.0765,7.0765,7.0863,7.1135,7.1159,7.1107,7.0814,7.0765,7.0765,7.0765,7.0765,7.0765,7.0765,7.0765,7.0765,7.0765,6.9966,6.9481,6.9481,6.8794,6.838,6.838,6.838,6.838,6.838,6.838,6.877,6.9481,6.9798,7.0381,1.7349,1.4868,1.2955,1.4336,1.4647,1.5079,1.676,1.8936,2.0928,2.1982,2.3527,2.4999,2.5917,2.6824,2.7552,2.7827,2.8632,2.9843,3.1699,3.518,3.8175,3.9743,4.1988,4.3824,4.48,4.4885,4.4885,4.4885,4.4885,4.4885,4.4885,4.4885,4.5174,4.5667,4.5711,4.6109,4.6944,4.7483,4.7901,4.8216,4.8664,4.891,4.8929,4.9271,4.9488,4.9507,4.9821,4.9944,5.0067,5.1512,5.2098,5.2238,5.3608,5.4137,5.3817,5.097,5.0876,5.2098,5.2098,5.3863,5.6247,5.694,5.7577,5.8237,5.9403,5.9762,6.0389,6.3576,6.6233,6.8306,6.9181,6.9112,6.9014,6.9694,6.9938,7.0015,7.0015,7.0402,7.0765,7.0765,7.0765,7.0765,7.0765,7.0765,7.0765,7.0765,7.0765,7.0765,7.0765,7.0765,7.0765,7.0765,7.0765,7.0765,7.0765,7.0329,7.0015,7.0015,6.8969,6.8384,6.8384,6.7799,6.7457,6.7457,6.7457,6.7457,6.7457,6.7457,6.7774,6.8384,6.8384,6.8701,1.534,1.2679,1.0222,0.9865,1.1366,1.3078,0.0,1.5473,1.785,2.0246,2.1328,2.2492,2.4662,2.5543,2.621,2.6839,2.7595,2.8459,2.9593,3.3782,3.6961,3.7593,3.9809,4.2208,4.4541,4.4828,4.4885,4.4885,4.4885,4.4885,4.4885,4.4885,4.4885,4.4885,4.4885,4.5288,4.609,4.6204,4.6603,4.7279,4.7374,4.7412,4.7431,4.8235,4.8642,4.868,4.9366,4.9698,4.984,4.9935,4.9887,4.984,4.9935,4.9849,4.9802,4.9802,4.9878,4.9944,4.9944,5.1846,5.4506,5.5864,5.6358,5.6358,5.6358,5.6358,5.6702,5.8562,6.2945,6.7213,6.7701,6.8087,6.8444,6.857,6.8746,6.8827,6.8827,6.9649,7.0402,7.0524,7.0548,7.0573,7.0765,7.0765,7.0692,7.0402,7.0378,7.0378,7.0378,7.0378,7.0378,7.0378,7.0378,7.0378,7.0378,6.9408,6.8827,6.8827,6.7872,6.7262,6.7262,6.7164,6.7091,6.7091,6.6969,6.6969,6.7091,6.6969,6.7043,6.7262,6.7262,6.6848,0.0,0.0,0.0,0.0,0.0,0.0,0.0,1.2246,1.4441,1.6289,1.7685,1.9152,2.094,2.2291,2.3395,2.4151,2.6119,2.7788,2.842,3.1797,3.4635,3.6033,3.8912,4.1613,4.3734,4.4548,4.4885,4.4885,4.4885,4.4885,4.4885,4.4885,4.4885,4.4885,4.4885,4.498,4.5174,4.59,4.6318,4.6489,4.7153,4.7412,4.7412,4.7583,4.7704,4.7723,4.7848,4.8349,4.9079,4.9688,4.9574,4.9098,4.9707,4.9441,4.8691,4.8691,4.926,4.9944,4.9944,5.0378,5.0951,5.1278,5.1372,5.1372,5.1372,5.1372,5.1431,5.1857,5.8267,6.5738,6.9205,6.8497,6.7179,6.8371,6.816,6.775,6.775,6.792,6.8335,6.9189,6.9359,6.9628,7.0573,7.0765,7.0133,6.838,6.8111,6.8111,6.8111,6.8111,6.8111,6.8111,6.8111,6.8111,6.8111,6.7872,6.775,6.775,6.675,6.6208,6.6208,6.5378,6.4956,6.4956,6.4036,6.4011,6.4956,6.4011,6.4475,6.6208,6.6208,6.2935,0.0,0.0,0.0,0.0,0.0,0.0,0.0,0.0,0.0,0.0,0.0,1.5751,1.8066,0.0,2.0709,2.2239,2.4143,2.6013,2.7598,3.0543,3.2862,3.3639,3.6379,3.8646,3.9849,4.1523,4.2645,4.2772,4.3011,4.3677,4.4843,4.4885,4.4885,4.4885,4.4885,4.4885,4.4885,4.5364,4.5573,4.5573,4.5971,4.6179,4.6198,4.6767,4.6938,4.6888,4.7609,4.7989,4.8121,4.8512,4.8436,4.8121,4.8247,4.8133,4.7913,4.7913,4.8228,4.8588,4.7708,4.7405,4.7405,4.7405,4.7405,4.7727,4.946,4.9944,4.9944,4.9944,5.3425,5.7643,5.9838,6.2883,6.5591,6.6299,6.6739,6.6915,6.672,6.7067,6.7603,6.8164,6.8262,6.8433,6.899,6.9087,6.8721,6.7628,6.7457,6.7457,6.7457,6.7457,6.7238,6.6725,6.6652,6.6652,6.6652,6.6652,6.6652,6.6652,6.5116,6.4255,6.4255,6.323,6.2685,6.2685,6.2108,6.2108,6.2685,6.2083,6.1864,6.1905,6.0806,5.8234,0.0,0.0,0.0,0.0,0.0,0.0,0.0,0.0,0.0,0.0,0.0,0.0,0.0,0.0,0.0,1.9848,2.184,2.3949,2.6314,2.8572,3.0279,3.1185,3.3385,3.5111,3.5879,3.8083,3.9536,3.9746,4.0271,4.1585,4.3942,4.4177,4.4441,4.4885,4.4885,4.4885,4.4885,4.4885,4.4885,4.4885,4.4885,0.0,4.4923,4.5876,4.6223,4.6052,4.721,4.7552,4.7242,4.7033,4.7128,4.7336,4.6597,4.6559,4.6938,4.6938,4.6938,4.6748,4.5359,4.4885,4.4885,4.4885,4.4885,4.5397,4.8125,4.9005,0.0,4.9005,4.9005,4.9005,4.9005,5.6596,6.4112,6.3181,6.4088,6.4914,6.4152,6.5112,6.6193,6.641,6.6853,6.7213,6.7408,6.6717,6.6048,6.5855,6.6416,6.675,6.653,6.6701,6.6506,6.5671,6.5598,6.5598,6.5598,6.5402,6.5353,6.5573,6.3523,6.2092,6.1677,6.0888,6.0463,6.0463,6.0204,6.0399,6.1049,6.0394,5.9348,5.7828,5.3631,5.1812,0.0,0.0,0.0,0.0,0.0,0.0,0.0,0.0,0.0,0.0,0.0,0.0,0.0,0.0,0.0,0.0,1.9088,2.2199,2.3741,2.3838,2.5305,2.9477,3.0855,3.2407,3.4858,3.6047,3.6621,3.6663,3.7249,3.8645,4.0957,4.1554,0.0,0.0,0.0,4.4885,4.4885,4.4885,4.4885,4.4885,4.4885,4.4885,4.4885,4.5037,4.5056,4.5037,4.525,4.5857,4.6635,4.5629,4.6085,4.726,4.5724,4.5113,4.5169,4.5169,4.5169,4.5132,4.4961,0.0,0.0,4.4885,4.4885,4.4961,4.534,4.5454,4.5454,4.5454,4.5454,4.5454,4.5454,5.4848,6.3266,5.8974,5.9151,5.9693,5.7577,5.9375,6.1708,6.2749,6.4673,6.6378,6.7286,6.411,6.1083,6.0177,6.2683,6.4346,6.3279,6.4036,6.4663,6.4541,6.4517,0.0,6.4517,6.3572,6.3401,6.4468,6.2441,6.0375,5.852,5.8325,5.8252,5.8252,5.7239,5.8141,6.1049,5.8149,5.7149,5.7666,4.6391,4.172,0.0,0.0,0.0,0.0,0.0,0.0,0.0,0.0,0.0,0.0,0.0,0.0,0.0,0.0,0.0,0.0,1.6074,1.7963,1.8592,2.0556,2.2866,2.5401,2.8035,2.9639,2.9577,3.1576,3.2936,3.3099,3.4014,3.555,3.7916,3.9897,4.1398,4.2409,4.4008,4.4885,4.4885,4.4885,4.4885,4.4885,4.4885,4.4885,4.4885,4.4885,4.4885,4.4885,4.4885,4.5169,4.5611,4.5094,4.5345,4.5914,0.0,0.0,0.0,0.0,4.4885,4.4885,4.4885,4.4885,4.4885,4.4885,4.4885,4.4885,4.4885,4.4885,4.4885,4.4885,4.4885,4.4885,4.4885,4.8944,5.3203,5.376,5.4362,5.4899,5.5155,5.6209,5.7316,5.7785,5.9081,0.0,5.9996,5.8428,5.7631,5.9083,6.0576,6.2025,6.3448,6.4053,6.4102,6.3377,6.3328,6.3328,6.3328,6.2889,0.0,0.0,0.0,6.101,5.8935,5.8838,0.0,0.0,0.0,5.3762,5.4358,5.0486,0.0,0.0,4.0413,3.7805,0.0,0.0,0.0,0.0,0.0,0.0,0.0,0.0,0.0,0.0,0.0,0.0,0.0,0.0,0.0,0.0,1.3447,1.475,1.5195,1.8117,2.081,2.2383,2.5624,2.7044,2.5355,2.7585,2.9264,2.9462,3.0535,3.2241,3.4584,3.7104,3.8994,4.0203,4.228,4.3714,4.4492,4.4492,4.4601,4.4885,4.4885,4.4885,4.4885,4.4885,4.4885,4.4885,4.4885,4.4885,4.4885,4.4885,4.4885,4.4885,4.4885,4.4885,4.4885,4.4885,4.4885,4.4885,4.4885,4.4885,4.4885,4.4885,4.4885,4.4885,4.4885,4.4885,4.4885,4.4885,4.4885,4.4885,4.4885,4.4885,4.5714,4.8922,4.9922,5.0591,5.2034,5.3034,5.3673,5.3673,5.3481,5.3113,5.2437,5.3076,5.4356,5.6384,5.8046,5.9775,6.183,6.2894,6.3125,6.2279,6.2181,6.2181,6.2181,6.1872,6.1848,6.2157,6.1604,6.079,5.9531,5.8604,5.7813,5.7032,5.3137,5.0539,0.0,0.0,0.0,0.0,0.0,0.0,0.0,0.0,0.0,0.0,0.0,0.0,0.0,0.0,0.0,0.0,0.0,0.0,0.0,0.0,0.0,0.0,0.0,0.0,1.5311,1.6517,1.8473,2.1793,2.386,2.4728,2.4022,2.5073,2.58,2.58,2.6908,2.8572,3.0931,3.2205,3.4873,3.9187,3.9409,4.0737,4.3376,4.3376,4.3926,4.4885,4.4885,4.4885,4.4885,4.4885,4.4885,4.4885,4.4885,4.4885,4.4885,4.4885,4.4885,4.4885,4.4885,4.4885,4.4885,4.4885,4.4885,4.4885,4.4885,4.4885,4.4885,4.4885,4.4885,4.4885,4.4885,4.4885,4.4885,4.4885,4.4885,4.4885,4.4885,4.4885,4.4947,4.5093,4.5949,4.6735,4.6599,4.9005,5.1223,5.1223,4.8704,4.6561,4.6542,4.9132,5.0892,4.9859,5.4433,0.0,5.6554,5.9174,6.1147,6.1098,6.1058,6.1058,6.1058,6.018,5.9994,6.101,5.9179,5.8496,5.9433,5.6434,5.4762,5.4738,5.1759,4.9623,4.8426,0.0,0.0,0.0,0.0,0.0,0.0,0.0,0.0,0.0,0.0,0.0,0.0,0.0,0.0,0.0,0.0,0.0,0.0,0.0,0.0,0.0,0.0,0.0,0.0,1.492,1.7166,1.9442,2.1408,2.2329,2.1756,2.2711,2.3542,2.3954,2.5084,2.6239,2.7365,2.9999,3.2198,3.3683,3.6566,3.8236,3.8588,4.2439,4.327,4.1059,4.3642,4.4885,4.4885,4.4885,4.4885,4.4885,4.4885,4.4885,4.4885,4.4885,4.4885,4.4885,4.4885,4.4885,4.4885,4.4885,4.4885,4.4014,3.7705,3.9645,4.4885,4.4885,4.4885,4.4885,4.4885,4.4885,4.4885,4.4885,4.4885,4.4885,4.4885,4.4885,4.4885,4.4885,4.5231,4.5478,4.5383,4.6241,4.7016,4.7016,4.5694,4.4059,4.2429,4.4842,4.6861,4.6465,5.1142,5.5363,5.711,5.9509,6.1049,6.1049,6.1049,6.1049,6.1049,6.0692,6.0375,6.0033,5.935,5.8813,5.8472,5.7398,5.6812,5.6812,5.5048,5.1487,4.607,0.0,0.0,0.0,0.0,0.0,0.0,0.0,0.0,0.0,0.0,0.0,0.0,0.0,0.0,0.0,0.0,0.0,0.0,0.0,0.0,0.0,0.0,0.0,0.0,0.0,0.0,1.8646,2.0196,0.0,1.9491,1.9956,2.0644,2.1266,2.22,2.3317,2.4697,2.707,2.8937,3.0088,3.3323,3.416,3.2407,3.6558,3.7388,3.4951,3.7447,4.0855,4.4885,4.4885,4.4885,4.4885,4.4885,4.4885,4.481,4.3657,4.3164,4.3164,4.3164,4.3164,4.2818,3.9753,3.8647,3.7789,3.1657,3.5521,4.2677,3.9669,3.8647,3.8647,3.8647,3.8647,3.8647,3.8647,4.0456,4.28,4.446,4.3906,4.3154,4.4266,4.4511,4.4586,4.4828,4.47,4.4416,4.4131,4.3638,4.2503,3.9997,4.1326,4.2793,4.3111,4.6822,5.1004,5.5093,5.7442,5.9057,5.9872,5.995,5.995,5.995,5.995,5.9643,5.8984,5.8935,5.8642,5.7935,5.791,5.7215,5.5677,5.4884,5.0481,0.0,0.0,0.0,0.0,0.0,0.0,0.0,0.0,0.0,0.0,0.0,0.0,0.0,0.0,0.0,0.0,0.0,0.0,0.0,0.0,0.0,0.0,0.0,0.0,0.0,0.0,0.0,1.909,1.9937,0.0,0.0,0.0,0.0,1.7844,1.8395,1.9897,2.2694,2.3425,2.5185,2.8352,2.9462,2.8574,2.5593,2.6671,2.7243,2.7294,2.7294,3.3157,4.3939,4.3864,4.3901,4.407,4.447,4.4639,4.4374,4.0942,3.9599,3.9731,3.9372,3.9109,3.8026,2.9869,2.6866,2.6945,2.7166,3.2488,3.792,2.983,2.7244,2.7244,2.7244,2.7088,0.0,0.0,3.2375,3.9206,4.3371,4.2006,4.0178,4.2996,4.3698,4.3866,4.4643,4.4207,4.3471,4.2692,4.2581,4.1669,3.8726,0.0,3.8877,3.9427,4.159,4.5154,5.0624,5.325,5.5472,5.7698,5.791,5.791,5.791,5.791,5.791,5.791,5.791,5.7924,5.7837,5.7704,5.5628,5.1437,5.1119,0.0,0.0,0.0,0.0,0.0,0.0,0.0,0.0,0.0,0.0,0.0,0.0,0.0,0.0,0.0,0.0,0.0,0.0,0.0,0.0,0.0,0.0,0.0,0.0,0.0,0.0,1.1692,1.3321,1.5853,1.5962,1.5674,0.0,0.0,0.0,0.0,0.0,0.0,1.8862,2.0528,2.2168,2.378,2.3382,2.3552,2.4347,2.4659,2.5243,2.6113,2.6113,2.7686,3.0574,2.9684,3.0229,3.2244,3.8523,4.1289,4.0829,3.4748,3.3833,3.5693,2.9968,2.6317,2.3917,2.0844,1.975,2.0231,2.362,2.6241,2.7699,2.5516,2.4801,2.4801,2.4801,0.0,0.0,0.0,0.0,4.2358,3.9206,4.0347,4.2382,4.2761,4.2844,4.2901,4.311,4.2996,4.2787,4.2619,4.2581,4.0338,3.3359,3.5635,0.0,3.3125,3.8603,4.4481,4.8144,5.2154,5.5472,5.7698,5.791,5.791,5.791,5.791,5.791,5.791,5.791,5.7544,5.6653,5.4407,5.1843,4.9125,0.0,0.0,0.0,0.0,0.0,0.0,0.0,0.0,0.0,0.0,0.0,0.0,0.0,0.0,0.0,0.0,0.0,0.0,0.0,0.0,0.0,0.0,0.0,0.0,0.0,0.0,0.0,0.9782,1.2042,1.4366,1.3924,1.3285,0.0,0.0,0.0,0.0,0.0,0.0,0.0,0.0,0.0,2.1399,1.8704,1.865,2.1659,2.3165,2.4243,2.4905,2.4905,2.4905,2.4868,2.4749,2.5399,2.6898,3.1687,3.2887,3.1298,2.8281,2.7127,2.6669,0.0,0.0,0.0,0.0,1.5572,1.609,1.9698,2.2243,2.3918,2.3918,0.0,0.0,0.0,0.0,0.0,0.0,0.0,3.6559,3.3599,3.7332,4.1544,4.0181,4.1255,4.2581,4.2581,4.1422,4.0377,4.0377,3.9162,3.5953,2.9006,3.1227,0.0,0.0,0.0,4.0664,4.5096,5.0095,5.4069,5.6248,5.7333,5.791,5.791,5.791,5.791,5.791,5.7447,5.6275,5.4225,5.1526,4.7718,0.0,0.0,0.0,0.0,0.0,0.0,0.0,0.0,0.0,0.0,0.0,0.0,0.0,0.0,0.0,0.0,0.0,0.0,0.0,0.0,0.0,0.0,0.0,0.0,0.0,0.0,0.0,0.0,0.0,1.1059,1.3105,0.0,0.0,0.0,0.0,0.0,0.0,0.0,0.0,0.0,0.0,0.0,0.0,0.0,1.4108,1.7706,2.184,2.3918,2.3918,2.3918,2.3866,2.3789,2.462,2.5048,2.5088,2.4801,0.0,2.0721,2.2368,0.0,0.0,0.0,0.0,0.0,0.0,0.0,0.0,0.0,0.0,0.0,0.0,0.0,0.0,0.0,0.0,0.0,0.0,0.0,0.0,0.0,0.0,3.9316,3.6436,3.8936,4.1396,3.959,3.6901,3.4721,3.443,3.1993,2.8791,0.0,0.0,0.0,0.0,0.0,0.0,4.2509,4.7853,5.1955,5.438,5.6349,5.7622,5.791,5.7788,5.7691,5.7691,5.6068,5.3824,5.0997,4.8277,0.0,0.0,0.0,0.0,0.0,0.0,0.0,0.0,0.0,0.0,0.0,0.0,0.0,0.0,0.0,0.0,0.0,0.0,0.0,0.0,0.0,0.0,0.0,0.0,0.0,0.0,0.0,0.0,0.0,0.0,0.0,0.0,0.0,0.0,0.0,0.0,0.0,0.0,0.0,0.0,0.0,0.0,0.0,0.0,0.0,0.0,0.0,0.0,0.0,0.0,2.3918,2.3581,2.291,2.1939,2.1763,2.2164,2.0131,1.9747,2.0474,1.8919,0.0,0.0,0.0,0.0,0.0,0.0,0.0,0.0,0.0,0.0,0.0,0.0,0.0,0.0,0.0,0.0,0.0,0.0,0.0,0.0,0.0,0.0,3.8791,3.385,3.5609,3.5287,2.3995,0.0,0.0,0.0,0.0,0.0,0.0,0.0,0.0,0.0,0.0,0.0,4.3521,4.6842,5.0286,5.4202,5.4962,5.5957,5.7773,5.7019,5.6483,5.6483,5.2166,4.8971,0.0,0.0,0.0,0.0,0.0,0.0,0.0,0.0,0.0,0.0,0.0,0.0,0.0,0.0,0.0,0.0,0.0,0.0,0.0,0.0,0.0,0.0,0.0,0.0,0.0,0.0,0.0,0.0,0.0,0.0,0.0,0.0,0.0,0.0,0.0,0.0,0.0,0.0,0.0,0.0,0.0,0.0,0.0,0.0,0.0,0.0,0.0,0.0,0.0,0.0,0.0,0.0,0.0,0.0,0.0,0.0,0.0,0.0,1.7995,1.7063,0.0,0.0,0.0,0.0,0.0,0.0,0.0,0.0,0.0,0.0,0.0,0.0,0.0,0.0,0.0,0.0,0.0,0.0,0.0,0.0,0.0,0.0,0.0,0.0,0.0,0.0,0.0,0.0,0.0,0.0,0.0,0.0,0.0,0.0,0.0,0.0,0.0,0.0,0.0,0.0,4.0767,4.4933,4.899,5.2625,5.3968,5.5276,5.6871,5.6507,5.5239,5.2971,4.8849,0.0,0.0,0.0,0.0,0.0,0.0,0.0,0.0,0.0,0.0,0.0,0.0,0.0,0.0,0.0,0.0,0.0,0.0,0.0,0.0,0.0,0.0,0.0,0.0,0.0,0.0,0.0,0.0,0.0,0.0,0.0,0.0,0.0,0.0,0.0,0.0,0.0,0.0,0.0,0.0,0.0,0.0,0.0,0.0,0.0,0.0,0.0,0.0,0.0,0.0,0.0,0.0,0.0,0.0,0.0,0.0,0.0,0.0,0.0,1.6233,1.4914,0.0,0.0,0.0,0.0,0.0,0.0,0.0,0.0,0.0,0.0,0.0,0.0,0.0,0.0,0.0,0.0,0.0,0.0,0.0,0.0,0.0,0.0,0.0,0.0,0.0,0.0,0.0,0.0,0.0,0.0,0.0,0.0,0.0,0.0,0.0,0.0,0.0,0.0,0.0,0.0,3.9466,4.3547,4.7382,5.0381,5.2252,5.3833,5.5106,5.5411,5.3775,4.9686,4.5727,0.0,0.0,0.0,0.0,0.0,0.0,0.0,0.0,0.0,0.0,0.0,0.0,0.0,0.0,0.0,0.0,0.0,0.0,0.0,0.0,0.0,0.0,0.0,0.0,0.0,0.0,0.0,0.0,0.0,0.0,0.0,0.0,0.0,0.0,0.0,0.0,0.0,0.0,0.0,0.0,0.0,0.0,0.0,0.0,0.0,0.0,0.0,0.0,0.0,0.0,0.0,0.0,0.0,0.0,0.0,0.0,0.0,0.0,0.0,0.0,0.0,0.0,0.0,0.0,0.0,0.0,0.0,0.0,0.0,0.0,0.0,0.0,0.0,0.0,0.0,0.0,0.0,0.0,0.0,0.0,0.0,0.0,0.0,0.0,0.0,0.0,0.0,0.0,0.0,0.0,0.0,0.0,0.0,0.0,0.0,0.0,0.0,0.0,0.0,0.0,0.0,4.426,4.394,4.4763,4.7663,4.8715,4.9934,5.1958,5.2896,5.1907,4.8556,0.0,0.0,0.0,0.0,0.0,0.0,0.0,0.0,0.0,0.0,0.0,0.0,0.0,0.0,0.0,0.0,0.0,0.0,0.0,0.0,0.0,0.0,0.0,0.0,0.0,0.0,0.0,0.0,0.0,0.0,0.0,0.0,0.0,0.0,0.0,0.0,0.0,0.0,0.0,0.0,0.0,0.0,0.0,0.0,0.0,0.0,0.0,0.0,0.0,0.0,0.0,0.0,0.0,0.0,0.0,0.0,0.0,0.0,0.0,0.0,0.0,0.0,0.0,0.0,0.0,0.0,0.0,0.0,0.0,0.0,0.0,0.0,0.0,0.0,0.0,0.0,0.0,0.0,0.0,0.0,0.0,0.0,0.0,0.0,0.0,0.0,0.0,0.0,0.0,0.0,0.0,0.0,0.0,0.0,0.0,0.0,0.0,0.0,0.0,0.0,0.0,0.0,3.6219,3.9829,4.3485,4.7216,4.7166,4.7906,5.054,5.0523,4.8666,4.4625,0.0,0.0,0.0,0.0,0.0,0.0,0.0,0.0,0.0,0.0,0.0,0.0,0.0,0.0,0.0,0.0,0.0,0.0,0.0,0.0,0.0,0.0,0.0,0.0,0.0,0.0,0.0,0.0,0.0,0.0,0.0,0.0,0.0,0.0,0.0,0.0,0.0,0.0,0.0,0.0,0.0,0.0,0.0,0.0,0.0,0.0,0.0,0.0,0.0,0.0,0.0,0.0,0.0,0.0,0.0,0.0,0.0,0.0,0.0,0.0,0.0,0.0,0.0,0.0,0.0,0.0,0.0,0.0,0.0,0.0,0.0,0.0,0.0,0.0,0.0,0.0,0.0,0.0,0.0,0.0,0.0,0.0,0.0,0.0,0.0,0.0,0.0,0.0,0.0,0.0,0.0,0.0,0.0,0.0,0.0,0.0,0.0,0.0,0.0,0.0,0.0,0.0,2.9571,3.5091,4.0239,4.4875,4.5231,4.5984,4.8185,4.8224,4.6167,4.1625,0.0,0.0,0.0,0.0,0.0,0.0,0.0,0.0,0.0,0.0,0.0,0.0,0.0,0.0,0.0,0.0,0.0,0.0,0.0,0.0,0.0,0.0,0.0,0.0,0.0,0.0,0.0,0.0,0.0,0.0,0.0,0.0,0.0,0.0,0.0,0.0,0.0,0.0,0.0,0.0,0.0,0.0,0.0,0.0,0.0,0.0,0.0,0.0,0.0,0.0,0.0,0.0,0.0,0.0,0.0,0.0,0.0,0.0,0.0,0.0,0.0,0.0,0.0,0.0,0.0,0.0,0.0,0.0,0.0,0.0,0.0,0.0,0.0,0.0,0.0,0.0,0.0,0.0,0.0,0.0,0.0,0.0,0.0,0.0,0.0,0.0,0.0,0.0,0.0,0.0,0.0,0.0,0.0,0.0,0.0,0.0,0.0,0.0,0.0,0.0,0.0,0.0,2.7475,3.0558,3.4063,3.9543,4.231,4.3864,4.4159,4.5967,4.5112,0.0,0.0,0.0,0.0,0.0,0.0,0.0,0.0,0.0,0.0,0.0,0.0,0.0,0.0,0.0,0.0,0.0,0.0,0.0,0.0,0.0,0.0,0.0,0.0,0.0,0.0,0.0,0.0,0.0,0.0,0.0,0.0,0.0,0.0,0.0,0.0,0.0,0.0,0.0,0.0,0.0,0.0,0.0,0.0,0.0,0.0,0.0,0.0,0.0,0.0,0.0,0.0,0.0,0.0,0.0,0.0,0.0,0.0,0.0,0.0,0.0,0.0,0.0,0.0,0.0,0.0,0.0,0.0,0.0,0.0,0.0,0.0,0.0,0.0,0.0,0.0,0.0,0.0,0.0,0.0,0.0,0.0,0.0,0.0,0.0,0.0,0.0,0.0,0.0,0.0,0.0,0.0,0.0,0.0,0.0,0.0,0.0,0.0,0.0,0.0,0.0,0.0,0.0,2.3603,2.9562,3.4845,3.845,3.9725,4.1335,4.3899,4.3464,4.2268,4.0356,0.0,0.0,0.0,0.0,0.0,0.0,0.0,0.0,0.0,0.0,0.0,0.0,0.0,0.0,0.0,0.0,0.0,0.0,0.0,0.0,0.0,0.0,0.0,0.0,0.0,0.0,0.0,0.0,0.0,0.0,0.0,0.0,0.0,0.0,0.0,0.0,0.0,0.0,0.0,0.0,0.0,0.0,0.0,0.0,0.0,0.0,0.0,0.0,0.0,0.0,0.0,0.0,0.0,0.0,0.0,0.0,0.0,0.0,0.0,0.0,0.0,0.0,0.0,0.0,0.0,0.0,0.0,0.0,0.0,0.0,0.0,0.0,0.0,0.0,0.0,0.0,0.0,0.0,0.0,0.0,0.0,0.0,0.0,0.0,0.0,0.0,0.0,0.0,0.0,0.0,0.0,0.0,0.0,0.0,0.0,0.0,0.0,0.0,0.0,0.0,0.0,0.0,0.0,2.7964,3.3062,3.6611,3.791,3.9746,4.2762,4.1896,4.0767,3.9646,0.0,0.0,0.0,0.0,0.0,0.0,0.0,0.0,0.0,0.0,0.0,0.0,0.0,0.0,0.0,0.0,0.0,0.0,0.0,0.0,0.0,0.0,0.0,0.0,0.0,0.0,0.0,0.0,0.0,0.0,0.0,0.0,0.0,0.0,0.0,0.0,0.0,0.0,0.0,0.0,0.0,0.0,0.0,0.0,0.0,0.0,0.0,0.0,0.0,0.0,0.0,0.0,0.0,0.0,0.0,0.0,0.0,0.0,0.0,0.0,0.0,0.0,0.0,0.0,0.0,0.0,0.0,0.0,0.0,0.0,0.0,0.0,0.0,0.0,0.0,0.0,0.0,0.0,0.0,0.0,0.0,0.0,0.0,0.0,0.0,0.0,0.0,0.0,0.0,0.0,0.0,0.0,0.0,0.0,0.0,0.0,0.0,0.0,0.0,0.0,0.0,0.0,0.0,2.5858,2.9312,3.4163,3.663,3.8771,4.0867,4.103,4.0251,3.8422,3.432,0.0,0.0,0.0,0.0,0.0,0.0,0.0,0.0,0.0,0.0,0.0,0.0,0.0,0.0,0.0,0.0,0.0,0.0,0.0,0.0,0.0,0.0,0.0,0.0,0.0,0.0,0.0,0.0,0.0,0.0,0.0,0.0,0.0,0.0,0.0,0.0,0.0,0.0,0.0,0.0,0.0,0.0,0.0,0.0,0.0,0.0,0.0,0.0,0.0,0.0,0.0,0.0,0.0,0.0,0.0,0.0,0.0,0.0,0.0,0.0,0.0,0.0,0.0,0.0,0.0,0.0,0.0,0.0,0.0,0.0,0.0,0.0,0.0,0.0,0.0,0.0,0.0,0.0,0.0,0.0,0.0,0.0,0.0,0.0,0.0,0.0,0.0,0.0,0.0,0.0,0.0,0.0,0.0,0.0,0.0,0.0,0.0,0.0,0.0,0.0,0.0,0.0,2.4602,2.7969,3.3203,3.4258,3.5881,3.9006,3.9095,3.8332,3.6791,3.3038,0.0,0.0,0.0,0.0,0.0,0.0,0.0,0.0,0.0,0.0,0.0,0.0,0.0,0.0,0.0,0.0,0.0,0.0,0.0,0.0,0.0,0.0,0.0,0.0,0.0,0.0,0.0,0.0,0.0,0.0,0.0,0.0,0.0,0.0,0.0,0.0,0.0,0.0,0.0,0.0,0.0,0.0,0.0,0.0,0.0,0.0,0.0,0.0,0.0,0.0,0.0,0.0,0.0,0.0,0.0,0.0,0.0,0.0,0.0,0.0,0.0,0.0,0.0,0.0,0.0,0.0,0.0,0.0,0.0,0.0,0.0,0.0,0.0,0.0,0.0,0.0,0.0,0.0,0.0,0.0,0.0,0.0,0.0,0.0,0.0,0.0,0.0,0.0,0.0,0.0,0.0,0.0,0.0,0.0,0.0,0.0,0.0,0.0,0.0,0.0,0.0,0.0,2.2212,2.4886,3.0594,3.2967,3.5072,3.7346,3.8017,3.7503,3.566,3.1764,0.0,0.0,0.0,0.0,0.0,0.0,0.0,0.0,0.0,0.0,0.0,0.0,0.0,0.0,0.0,0.0,0.0,0.0,0.0,0.0,0.0,0.0,0.0,0.0,0.0,0.0,0.0,0.0,0.0,0.0,0.0,0.0,0.0,0.0,0.0,0.0,0.0,0.0,0.0,0.0,0.0,0.0,0.0,0.0,0.0,0.0,0.0,0.0,0.0,0.0,0.0,0.0,0.0,0.0,0.0,0.0,0.0,0.0,0.0,0.0,0.0,0.0,0.0,0.0,0.0,0.0,0.0,0.0,0.0,0.0,0.0,0.0,0.0,0.0,0.0,0.0,0.0,0.0,0.0,0.0,0.0,0.0,0.0,0.0,0.0,0.0,0.0,0.0,0.0,0.0,0.0,0.0,0.0,0.0,0.0,0.0,0.0,0.0,0.0,0.0,0.0,0.0,0.0,2.1705,2.7125,3.1459,3.4473,3.5668,3.689,3.654,3.4103,0.0,0.0,0.0,0.0,0.0,0.0,0.0,0.0,0.0,0.0,0.0,0.0,0.0,0.0,0.0,0.0,0.0,0.0,0.0,0.0,0.0,0.0,0.0,0.0,0.0,0.0,0.0,0.0,0.0,0.0,0.0,0.0,0.0,0.0,0.0,0.0,0.0,0.0,0.0,0.0,0.0,0.0,0.0,0.0,0.0,0.0,0.0,0.0,0.0,0.0,0.0,0.0,0.0,0.0,0.0,0.0,0.0,0.0,0.0,0.0,0.0,0.0,0.0,0.0,0.0,0.0,0.0,0.0,0.0,0.0,0.0,0.0,0.0,0.0,0.0,0.0,0.0,0.0,0.0,0.0,0.0,0.0,0.0,0.0,0.0,0.0,0.0,0.0,0.0,0.0,0.0,0.0,0.0,0.0,0.0,0.0,0.0,0.0,0.0,0.0,0.0,0.0,0.0,0.0,2.1267,2.3398,2.6997,3.0564,3.3879,3.4193,3.3055,3.0369,0.0,0.0,0.0,0.0,0.0,0.0,0.0,0.0,0.0,0.0,0.0,0.0,0.0,0.0]}]]]